Time,TemperatureF,DewpointF,PressureIn,WindDirection,WindDirectionDegrees,WindSpeedMPH,WindSpeedGustMPH,Humidity,HourlyPrecipIn,Conditions,Clouds,dailyrainin,SoftwareType,DateUTC
2013-10-11 00:00:00,44.6,41.3,28.79,West,270,0.0,0.0,88,0.00,CLR,,0.00,WeatherDisplay:10.37,2013-10-11 05:00:00,
2013-10-11 00:01:00,44.6,41.3,28.79,West,270,0.0,0.0,88,0.00,CLR,,0.00,WeatherDisplay:10.37,2013-10-11 05:01:00,
2013-10-11 00:02:00,44.6,41.3,28.79,West,270,0.0,0.0,88,0.00,CLR,,0.00,WeatherDisplay:10.37,2013-10-11 05:02:00,
2013-10-11 00:03:00,44.1,40.7,28.79,West,270,0.0,0.0,88,0.00,CLR,,0.00,WeatherDisplay:10.37,2013-10-11 05:03:00,
2013-10-11 00:04:00,44.1,41.0,28.79,West,270,0.0,0.0,89,0.00,CLR,,0.00,WeatherDisplay:10.37,2013-10-11 05:04:00,
2013-10-11 00:05:00,44.1,41.0,28.79,West,270,0.0,0.0,89,0.00,CLR,,0.00,WeatherDisplay:10.37,2013-10-11 05:05:00,
2013-10-11 00:06:00,44.1,41.0,28.79,West,270,0.0,0.0,89,0.00,CLR,,0.00,WeatherDisplay:10.37,2013-10-11 05:06:00,
2013-10-11 00:07:00,44.2,41.2,28.79,West,270,0.0,0.0,89,0.00,CLR,,0.00,WeatherDisplay:10.37,2013-10-11 05:07:00,
2013-10-11 00:09:00,44.2,41.2,28.79,West,270,0.0,0.0,89,0.00,CLR,,0.00,WeatherDisplay:10.37,2013-10-11 05:09:00,
2013-10-11 00:10:00,44.2,41.2,28.79,West,270,0.0,0.0,89,0.00,CLR,,0.00,WeatherDisplay:10.37,2013-10-11 05:10:00,
2013-10-11 00:11:00,44.2,41.2,28.79,West,270,0.0,0.0,89,0.00,CLR,,0.00,WeatherDisplay:10.37,2013-10-11 05:11:00,
2013-10-11 00:12:00,44.2,41.2,28.79,West,270,0.0,0.0,89,0.00,CLR,,0.00,WeatherDisplay:10.37,2013-10-11 05:12:00,
2013-10-11 00:14:00,44.2,41.2,28.79,West,270,0.0,0.0,89,0.00,CLR,,0.00,WeatherDisplay:10.37,2013-10-11 05:14:00,
2013-10-11 00:16:00,44.2,41.2,28.79,West,270,0.0,0.0,89,0.00,CLR,,0.00,WeatherDisplay:10.37,2013-10-11 05:16:00,
2013-10-11 00:17:00,44.2,41.2,28.79,West,270,0.0,0.0,89,0.00,CLR,,0.00,WeatherDisplay:10.37,2013-10-11 05:17:00,
2013-10-11 00:19:00,44.2,41.2,28.79,West,270,0.0,0.0,89,0.00,CLR,,0.00,WeatherDisplay:10.37,2013-10-11 05:19:00,
2013-10-11 00:21:00,44.1,41.3,28.79,West,270,0.0,0.0,90,0.00,CLR,,0.00,WeatherDisplay:10.37,2013-10-11 05:21:00,
2013-10-11 00:22:00,44.1,41.3,28.79,West,270,0.0,0.0,90,0.00,CLR,,0.00,WeatherDisplay:10.37,2013-10-11 05:22:00,
2013-10-11 00:23:00,44.1,41.3,28.79,West,270,0.0,0.0,90,0.00,CLR,,0.00,WeatherDisplay:10.37,2013-10-11 05:23:00,
2013-10-11 00:24:00,44.1,41.3,28.79,West,270,0.0,0.0,90,0.00,CLR,,0.00,WeatherDisplay:10.37,2013-10-11 05:24:00,
2013-10-11 00:26:00,43.9,41.1,28.79,West,270,0.0,0.0,90,0.00,CLR,,0.00,WeatherDisplay:10.37,2013-10-11 05:26:00,
2013-10-11 00:28:00,44.1,41.3,28.79,West,270,0.0,0.0,90,0.00,CLR,,0.00,WeatherDisplay:10.37,2013-10-11 05:28:00,
2013-10-11 00:31:00,44.1,41.3,28.79,West,270,0.0,0.0,90,0.00,CLR,,0.00,WeatherDisplay:10.37,2013-10-11 05:31:00,
2013-10-11 00:33:00,44.1,41.3,28.79,West,270,0.0,0.0,90,0.00,CLR,,0.00,WeatherDisplay:10.37,2013-10-11 05:33:00,
2013-10-11 00:36:00,44.1,41.3,28.79,West,270,0.0,0.0,90,0.00,CLR,,0.00,WeatherDisplay:10.37,2013-10-11 05:36:00,
2013-10-11 00:37:00,44.1,41.3,28.79,West,270,0.0,0.0,90,0.00,CLR,,0.00,WeatherDisplay:10.37,2013-10-11 05:37:00,
2013-10-11 00:38:00,44.1,41.3,28.79,West,270,0.0,0.0,90,0.00,CLR,,0.00,WeatherDisplay:10.37,2013-10-11 05:38:00,
2013-10-11 00:39:00,44.1,41.3,28.79,West,270,0.0,0.0,90,0.00,CLR,,0.00,WeatherDisplay:10.37,2013-10-11 05:39:00,
2013-10-11 00:41:00,43.7,40.7,28.79,West,270,0.0,0.0,89,0.00,CLR,,0.00,WeatherDisplay:10.37,2013-10-11 05:41:00,
2013-10-11 00:42:00,43.7,40.7,28.79,West,270,0.0,0.0,89,0.00,CLR,,0.00,WeatherDisplay:10.37,2013-10-11 05:42:00,
2013-10-11 00:43:00,43.7,40.7,28.79,West,270,0.0,0.0,89,0.00,CLR,,0.00,WeatherDisplay:10.37,2013-10-11 05:43:00,
2013-10-11 00:44:00,43.7,40.7,28.79,West,270,0.0,0.0,89,0.00,CLR,,0.00,WeatherDisplay:10.37,2013-10-11 05:44:00,
2013-10-11 00:47:00,43.7,40.7,28.79,West,270,0.0,0.0,89,0.00,CLR,,0.00,WeatherDisplay:10.37,2013-10-11 05:47:00,
2013-10-11 00:48:00,43.9,41.4,28.79,West,270,0.0,0.0,91,0.00,CLR,,0.00,WeatherDisplay:10.37,2013-10-11 05:48:00,
2013-10-11 00:49:00,43.9,41.4,28.79,West,270,0.0,0.0,91,0.00,CLR,,0.00,WeatherDisplay:10.37,2013-10-11 05:49:00,
2013-10-11 00:52:00,43.9,41.4,28.79,West,270,0.0,0.0,91,0.00,CLR,,0.00,WeatherDisplay:10.37,2013-10-11 05:52:00,
2013-10-11 00:53:00,43.9,41.4,28.79,West,270,0.0,0.0,91,0.00,CLR,,0.00,WeatherDisplay:10.37,2013-10-11 05:53:00,
2013-10-11 00:54:00,43.9,41.4,28.79,West,270,0.0,0.0,91,0.00,CLR,,0.00,WeatherDisplay:10.37,2013-10-11 05:54:00,
2013-10-11 00:55:00,43.9,41.4,28.79,West,270,0.0,0.0,91,0.00,CLR,,0.00,WeatherDisplay:10.37,2013-10-11 05:55:00,
2013-10-11 00:57:00,43.9,41.4,28.79,West,270,1.2,1.2,91,0.00,CLR,,0.00,WeatherDisplay:10.37,2013-10-11 05:57:00,
2013-10-11 00:58:00,43.9,41.4,28.79,West,270,1.4,1.4,91,0.00,CLR,,0.00,WeatherDisplay:10.37,2013-10-11 05:58:00,
2013-10-11 00:59:00,43.9,41.4,28.79,West,270,1.2,1.2,91,0.00,CLR,,0.00,WeatherDisplay:10.37,2013-10-11 05:59:00,
2013-10-11 01:00:00,43.9,41.4,28.79,West,270,1.2,1.2,91,0.00,CLR,,0.00,WeatherDisplay:10.37,2013-10-11 06:00:00,
2013-10-11 01:02:00,43.9,41.4,28.79,West,270,0.0,0.0,91,0.00,CLR,,0.00,WeatherDisplay:10.37,2013-10-11 06:02:00,
2013-10-11 01:04:00,43.9,41.4,28.79,West,270,2.3,2.3,91,0.00,CLR,,0.00,WeatherDisplay:10.37,2013-10-11 06:04:00,
2013-10-11 01:05:00,43.9,41.4,28.79,West,270,2.3,2.3,91,0.00,CLR,,0.00,WeatherDisplay:10.37,2013-10-11 06:05:00,
2013-10-11 01:07:00,43.9,41.4,28.79,West,270,0.0,0.0,91,0.00,CLR,,0.00,WeatherDisplay:10.37,2013-10-11 06:07:00,
2013-10-11 01:09:00,43.9,41.4,28.79,West,270,0.0,0.0,91,0.00,CLR,,0.00,WeatherDisplay:10.37,2013-10-11 06:09:00,
2013-10-11 01:10:00,43.9,41.4,28.79,West,270,0.0,0.0,91,0.00,CLR,,0.00,WeatherDisplay:10.37,2013-10-11 06:10:00,
2013-10-11 01:12:00,43.7,41.2,28.79,West,270,0.0,0.0,91,0.00,CLR,,0.00,WeatherDisplay:10.37,2013-10-11 06:12:00,
2013-10-11 01:13:00,43.7,41.2,28.79,West,270,0.0,0.0,91,0.00,CLR,,0.00,WeatherDisplay:10.37,2013-10-11 06:13:00,
2013-10-11 01:14:00,43.7,41.2,28.79,West,270,0.0,0.0,91,0.00,CLR,,0.00,WeatherDisplay:10.37,2013-10-11 06:14:00,
2013-10-11 01:16:00,43.5,41.1,28.79,West,270,0.0,0.0,91,0.00,CLR,,0.00,WeatherDisplay:10.37,2013-10-11 06:16:00,
2013-10-11 01:18:00,43.5,41.1,28.79,West,270,0.0,0.0,91,0.00,CLR,,0.00,WeatherDisplay:10.37,2013-10-11 06:18:00,
2013-10-11 01:19:00,43.5,41.1,28.79,West,270,0.0,0.0,91,0.00,CLR,,0.00,WeatherDisplay:10.37,2013-10-11 06:19:00,
2013-10-11 01:20:00,43.5,41.1,28.79,West,270,0.0,0.0,91,0.00,CLR,,0.00,WeatherDisplay:10.37,2013-10-11 06:20:00,
2013-10-11 01:21:00,43.5,41.1,28.79,West,270,0.0,0.0,91,0.00,CLR,,0.00,WeatherDisplay:10.37,2013-10-11 06:21:00,
2013-10-11 01:22:00,43.5,41.1,28.79,West,270,0.0,0.0,91,0.00,CLR,,0.00,WeatherDisplay:10.37,2013-10-11 06:22:00,
2013-10-11 01:23:00,43.5,41.1,28.79,West,270,0.0,0.0,91,0.00,CLR,,0.00,WeatherDisplay:10.37,2013-10-11 06:23:00,
2013-10-11 01:24:00,43.5,41.1,28.79,West,270,0.0,0.0,91,0.00,CLR,,0.00,WeatherDisplay:10.37,2013-10-11 06:24:00,
2013-10-11 01:25:00,43.5,41.1,28.79,West,270,0.0,0.0,91,0.00,CLR,,0.00,WeatherDisplay:10.37,2013-10-11 06:25:00,
2013-10-11 01:26:00,43.5,41.1,28.79,West,270,0.0,0.0,91,0.00,CLR,,0.00,WeatherDisplay:10.37,2013-10-11 06:26:00,
2013-10-11 01:27:00,43.7,41.2,28.79,West,270,0.0,0.0,91,0.00,CLR,,0.00,WeatherDisplay:10.37,2013-10-11 06:27:00,
2013-10-11 01:28:00,43.7,41.2,28.79,West,270,0.0,0.0,91,0.00,CLR,,0.00,WeatherDisplay:10.37,2013-10-11 06:28:00,
2013-10-11 01:29:00,43.7,41.2,28.79,West,270,0.0,0.0,91,0.00,CLR,,0.00,WeatherDisplay:10.37,2013-10-11 06:29:00,
2013-10-11 01:30:00,43.7,41.2,28.79,West,270,0.0,0.0,91,0.00,CLR,,0.00,WeatherDisplay:10.37,2013-10-11 06:30:00,
2013-10-11 01:31:00,43.7,41.2,28.79,West,270,0.0,0.0,91,0.00,CLR,,0.00,WeatherDisplay:10.37,2013-10-11 06:31:00,
2013-10-11 01:32:00,43.7,41.2,28.79,West,270,0.0,0.0,91,0.00,CLR,,0.00,WeatherDisplay:10.37,2013-10-11 06:32:00,
2013-10-11 01:33:00,43.5,41.1,28.79,West,270,0.0,0.0,91,0.00,CLR,,0.00,WeatherDisplay:10.37,2013-10-11 06:33:00,
2013-10-11 01:34:00,43.3,40.9,28.79,West,270,0.0,0.0,91,0.00,CLR,,0.00,WeatherDisplay:10.37,2013-10-11 06:34:00,
2013-10-11 01:35:00,43.3,40.9,28.79,West,270,0.0,0.0,91,0.00,CLR,,0.00,WeatherDisplay:10.37,2013-10-11 06:35:00,
2013-10-11 01:36:00,43.3,41.2,28.79,West,270,0.0,0.0,92,0.00,CLR,,0.00,WeatherDisplay:10.37,2013-10-11 06:36:00,
2013-10-11 01:37:00,43.3,41.2,28.79,West,270,0.0,0.0,92,0.00,CLR,,0.00,WeatherDisplay:10.37,2013-10-11 06:37:00,
2013-10-11 01:38:00,43.2,40.7,28.79,West,270,0.0,0.0,91,0.00,CLR,,0.00,WeatherDisplay:10.37,2013-10-11 06:38:00,
2013-10-11 01:39:00,43.2,41.0,28.79,West,270,0.0,0.0,92,0.00,CLR,,0.00,WeatherDisplay:10.37,2013-10-11 06:39:00,
2013-10-11 01:40:00,43.2,41.0,28.79,West,270,0.0,0.0,92,0.00,CLR,,0.00,WeatherDisplay:10.37,2013-10-11 06:40:00,
2013-10-11 01:41:00,43.2,41.0,28.79,West,270,0.0,0.0,92,0.00,CLR,,0.00,WeatherDisplay:10.37,2013-10-11 06:41:00,
2013-10-11 01:42:00,43.2,41.0,28.79,West,270,0.0,0.0,92,0.00,CLR,,0.00,WeatherDisplay:10.37,2013-10-11 06:42:00,
2013-10-11 01:43:00,43.2,41.0,28.79,West,270,0.0,0.0,92,0.00,CLR,,0.00,WeatherDisplay:10.37,2013-10-11 06:43:00,
2013-10-11 01:45:00,43.2,41.0,28.79,West,270,0.0,0.0,92,0.00,CLR,,0.00,WeatherDisplay:10.37,2013-10-11 06:45:00,
2013-10-11 01:47:00,43.0,40.8,28.79,West,270,0.0,0.0,92,0.00,CLR,,0.00,WeatherDisplay:10.37,2013-10-11 06:47:00,
2013-10-11 01:48:00,43.0,40.8,28.79,West,270,0.0,0.0,92,0.00,CLR,,0.00,WeatherDisplay:10.37,2013-10-11 06:48:00,
2013-10-11 01:49:00,43.0,40.8,28.79,West,270,0.0,0.0,92,0.00,CLR,,0.00,WeatherDisplay:10.37,2013-10-11 06:49:00,
2013-10-11 01:50:00,43.0,40.8,28.79,West,270,0.0,0.0,92,0.00,CLR,,0.00,WeatherDisplay:10.37,2013-10-11 06:50:00,
2013-10-11 01:51:00,43.0,40.8,28.79,West,270,0.0,0.0,92,0.00,CLR,,0.00,WeatherDisplay:10.37,2013-10-11 06:51:00,
2013-10-11 01:53:00,43.0,40.8,28.79,West,270,0.0,0.0,92,0.00,CLR,,0.00,WeatherDisplay:10.37,2013-10-11 06:53:00,
2013-10-11 01:54:00,43.0,40.8,28.79,West,270,0.0,0.0,92,0.00,CLR,,0.00,WeatherDisplay:10.37,2013-10-11 06:54:00,
2013-10-11 01:55:00,43.0,40.8,28.79,West,270,0.0,0.0,92,0.00,CLR,,0.00,WeatherDisplay:10.37,2013-10-11 06:55:00,
2013-10-11 01:56:00,43.0,40.8,28.79,West,270,0.0,0.0,92,0.00,CLR,,0.00,WeatherDisplay:10.37,2013-10-11 06:56:00,
2013-10-11 01:58:00,43.0,40.8,28.79,West,270,0.0,0.0,92,0.00,CLR,,0.00,WeatherDisplay:10.37,2013-10-11 06:58:00,
2013-10-11 01:59:00,43.0,40.8,28.79,West,270,0.0,0.0,92,0.00,CLR,,0.00,WeatherDisplay:10.37,2013-10-11 06:59:00,
2013-10-11 02:00:00,43.0,40.8,28.79,West,270,0.0,0.0,92,0.00,CLR,,0.00,WeatherDisplay:10.37,2013-10-11 07:00:00,
2013-10-11 02:01:00,43.0,40.8,28.79,West,270,0.0,0.0,92,0.00,CLR,,0.00,WeatherDisplay:10.37,2013-10-11 07:01:00,
2013-10-11 02:03:00,43.0,40.8,28.79,West,270,0.0,0.0,92,0.00,CLR,,0.00,WeatherDisplay:10.37,2013-10-11 07:03:00,
2013-10-11 02:04:00,43.0,40.8,28.79,West,270,0.0,0.0,92,0.00,CLR,,0.00,WeatherDisplay:10.37,2013-10-11 07:04:00,
2013-10-11 02:05:00,43.0,41.1,28.79,West,270,0.0,0.0,93,0.00,CLR,,0.00,WeatherDisplay:10.37,2013-10-11 07:05:00,
2013-10-11 02:06:00,43.0,41.1,28.79,West,270,0.0,0.0,93,0.00,CLR,,0.00,WeatherDisplay:10.37,2013-10-11 07:06:00,
2013-10-11 02:08:00,43.0,41.1,28.79,West,270,0.0,0.0,93,0.00,CLR,,0.00,WeatherDisplay:10.37,2013-10-11 07:08:00,
2013-10-11 02:09:00,43.0,41.1,28.79,West,270,0.0,0.0,93,0.00,CLR,,0.00,WeatherDisplay:10.37,2013-10-11 07:09:00,
2013-10-11 02:10:00,43.0,41.1,28.79,West,270,0.0,0.0,93,0.00,CLR,,0.00,WeatherDisplay:10.37,2013-10-11 07:10:00,
2013-10-11 02:11:00,43.0,41.1,28.79,West,270,0.0,0.0,93,0.00,CLR,,0.00,WeatherDisplay:10.37,2013-10-11 07:11:00,
2013-10-11 02:13:00,42.8,40.9,28.79,West,270,0.0,0.0,93,0.00,CLR,,0.00,WeatherDisplay:10.37,2013-10-11 07:13:00,
2013-10-11 02:15:00,43.0,41.1,28.79,West,270,2.6,0.0,93,0.00,CLR,,0.00,WeatherDisplay:10.37,2013-10-11 07:15:00,
2013-10-11 02:16:00,43.0,40.8,28.79,SW,225,2.3,2.3,92,0.00,CLR,,0.00,WeatherDisplay:10.37,2013-10-11 07:16:00,
2013-10-11 02:17:00,43.2,41.0,28.79,SW,225,1.2,1.2,92,0.00,CLR,,0.00,WeatherDisplay:10.37,2013-10-11 07:17:00,
2013-10-11 02:19:00,43.3,41.5,28.79,SW,225,0.0,0.0,93,0.00,CLR,,0.00,WeatherDisplay:10.37,2013-10-11 07:19:00,
2013-10-11 02:20:00,43.5,41.6,28.79,SW,225,0.0,0.0,93,0.00,CLR,,0.00,WeatherDisplay:10.37,2013-10-11 07:20:00,
2013-10-11 02:21:00,43.5,41.6,28.79,SW,225,0.0,0.0,93,0.00,CLR,,0.00,WeatherDisplay:10.37,2013-10-11 07:21:00,
2013-10-11 02:22:00,43.5,41.6,28.79,SW,225,0.0,0.0,93,0.00,CLR,,0.00,WeatherDisplay:10.37,2013-10-11 07:22:00,
2013-10-11 02:24:00,43.7,42.1,28.79,SW,225,0.0,0.0,94,0.00,CLR,,0.00,WeatherDisplay:10.37,2013-10-11 07:24:00,
2013-10-11 02:26:00,43.7,42.1,28.82,SW,225,0.0,0.0,94,0.00,CLR,,0.00,WeatherDisplay:10.37,2013-10-11 07:26:00,
2013-10-11 02:27:00,43.5,41.9,28.82,SW,225,0.0,0.0,94,0.00,CLR,,0.00,WeatherDisplay:10.37,2013-10-11 07:27:00,
2013-10-11 02:28:00,43.5,41.9,28.82,SW,225,0.0,0.0,94,0.00,CLR,,0.00,WeatherDisplay:10.37,2013-10-11 07:28:00,
2013-10-11 02:31:00,43.3,41.5,28.82,WSW,248,0.0,1.2,93,0.00,CLR,,0.00,WeatherDisplay:10.37,2013-10-11 07:31:00,
2013-10-11 02:33:00,43.3,41.5,28.82,WSW,248,0.0,0.0,93,0.00,CLR,,0.00,WeatherDisplay:10.37,2013-10-11 07:33:00,
2013-10-11 02:34:00,43.3,41.5,28.82,WSW,248,0.0,0.0,93,0.00,CLR,,0.00,WeatherDisplay:10.37,2013-10-11 07:34:00,
2013-10-11 02:36:00,43.3,41.5,28.82,WSW,248,0.0,0.0,93,0.00,CLR,,0.00,WeatherDisplay:10.37,2013-10-11 07:36:00,
2013-10-11 02:37:00,43.3,41.5,28.82,WSW,248,0.0,0.0,93,0.00,CLR,,0.00,WeatherDisplay:10.37,2013-10-11 07:37:00,
2013-10-11 02:38:00,43.2,41.3,28.82,WSW,248,0.0,0.0,93,0.00,CLR,,0.00,WeatherDisplay:10.37,2013-10-11 07:38:00,
2013-10-11 02:39:00,43.3,41.5,28.82,WSW,248,0.0,0.0,93,0.00,CLR,,0.00,WeatherDisplay:10.37,2013-10-11 07:39:00,
2013-10-11 02:41:00,43.3,41.5,28.82,WSW,248,0.0,0.0,93,0.00,CLR,,0.00,WeatherDisplay:10.37,2013-10-11 07:41:00,
2013-10-11 02:42:00,43.3,41.5,28.82,WSW,248,0.0,0.0,93,0.00,CLR,,0.00,WeatherDisplay:10.37,2013-10-11 07:42:00,
2013-10-11 02:44:00,43.9,42.3,28.82,WSW,248,0.0,0.0,94,0.00,CLR,,0.00,WeatherDisplay:10.37,2013-10-11 07:44:00,
2013-10-11 02:47:00,43.9,42.3,28.82,WSW,248,0.0,0.0,94,0.00,CLR,,0.00,WeatherDisplay:10.37,2013-10-11 07:47:00,
2013-10-11 02:48:00,43.7,42.1,28.82,WSW,248,0.0,0.0,94,0.00,CLR,,0.00,WeatherDisplay:10.37,2013-10-11 07:48:00,
2013-10-11 02:49:00,43.7,42.1,28.82,WSW,248,0.0,0.0,94,0.00,CLR,,0.00,WeatherDisplay:10.37,2013-10-11 07:49:00,
2013-10-11 02:52:00,43.7,42.1,28.82,WSW,248,0.0,0.0,94,0.00,CLR,,0.00,WeatherDisplay:10.37,2013-10-11 07:52:00,
2013-10-11 02:53:00,43.5,41.9,28.82,WSW,248,0.0,0.0,94,0.00,CLR,,0.00,WeatherDisplay:10.37,2013-10-11 07:53:00,
2013-10-11 02:54:00,43.5,41.9,28.82,WSW,248,0.0,0.0,94,0.00,CLR,,0.00,WeatherDisplay:10.37,2013-10-11 07:54:00,
2013-10-11 02:57:00,43.3,41.7,28.82,WSW,248,0.0,0.0,94,0.00,CLR,,0.00,WeatherDisplay:10.37,2013-10-11 07:57:00,
2013-10-11 02:59:00,43.3,41.5,28.82,WSW,248,0.0,0.0,93,0.00,CLR,,0.00,WeatherDisplay:10.37,2013-10-11 07:59:00,
2013-10-11 03:02:00,43.3,41.7,28.82,WSW,248,0.0,0.0,94,0.00,CLR,,0.00,WeatherDisplay:10.37,2013-10-11 08:02:00,
2013-10-11 03:04:00,43.3,41.7,28.82,WSW,248,0.0,0.0,94,0.00,CLR,,0.00,WeatherDisplay:10.37,2013-10-11 08:04:00,
2013-10-11 03:05:00,43.3,41.7,28.82,WSW,248,0.0,0.0,94,0.00,CLR,,0.00,WeatherDisplay:10.37,2013-10-11 08:05:00,
2013-10-11 03:07:00,43.3,41.7,28.82,WSW,248,0.0,0.0,94,0.00,CLR,,0.00,WeatherDisplay:10.37,2013-10-11 08:07:00,
2013-10-11 03:09:00,43.3,41.7,28.82,WSW,248,0.0,0.0,94,0.00,CLR,,0.00,WeatherDisplay:10.37,2013-10-11 08:09:00,
2013-10-11 03:10:00,43.3,41.7,28.82,WSW,248,0.0,0.0,94,0.00,CLR,,0.00,WeatherDisplay:10.37,2013-10-11 08:10:00,
2013-10-11 03:12:00,43.2,41.6,28.82,WSW,248,0.0,0.0,94,0.00,CLR,,0.00,WeatherDisplay:10.37,2013-10-11 08:12:00,
2013-10-11 03:14:00,43.0,41.4,28.82,WSW,248,0.0,0.0,94,0.00,CLR,,0.00,WeatherDisplay:10.37,2013-10-11 08:14:00,
2013-10-11 03:15:00,43.0,41.4,28.82,WSW,248,0.0,0.0,94,0.00,CLR,,0.00,WeatherDisplay:10.37,2013-10-11 08:15:00,
2013-10-11 03:18:00,43.0,41.4,28.82,WSW,248,0.0,0.0,94,0.00,CLR,,0.00,WeatherDisplay:10.37,2013-10-11 08:18:00,
2013-10-11 03:20:00,43.0,41.4,28.82,WSW,248,0.0,0.0,94,0.00,CLR,,0.00,WeatherDisplay:10.37,2013-10-11 08:20:00,
2013-10-11 03:21:00,43.0,41.6,28.82,WSW,248,0.0,0.0,95,0.00,CLR,,0.00,WeatherDisplay:10.37,2013-10-11 08:21:00,
2013-10-11 03:23:00,43.0,41.6,28.82,WSW,248,0.0,0.0,95,0.00,CLR,,0.00,WeatherDisplay:10.37,2013-10-11 08:23:00,
2013-10-11 03:25:00,43.0,41.6,28.82,WSW,248,0.0,0.0,95,0.00,CLR,,0.00,WeatherDisplay:10.37,2013-10-11 08:25:00,
2013-10-11 03:26:00,42.8,41.5,28.82,WSW,248,0.0,0.0,95,0.00,CLR,,0.00,WeatherDisplay:10.37,2013-10-11 08:26:00,
2013-10-11 03:27:00,42.8,41.5,28.82,WSW,248,0.0,0.0,95,0.00,CLR,,0.00,WeatherDisplay:10.37,2013-10-11 08:27:00,
2013-10-11 03:28:00,42.8,41.5,28.82,WSW,248,0.0,0.0,95,0.00,CLR,,0.00,WeatherDisplay:10.37,2013-10-11 08:28:00,
2013-10-11 03:30:00,42.8,41.5,28.82,WSW,248,0.0,0.0,95,0.00,CLR,,0.00,WeatherDisplay:10.37,2013-10-11 08:30:00,
2013-10-11 03:31:00,42.8,41.5,28.82,WSW,248,0.0,0.0,95,0.00,CLR,,0.00,WeatherDisplay:10.37,2013-10-11 08:31:00,
2013-10-11 03:32:00,42.8,41.5,28.82,WSW,248,0.0,0.0,95,0.00,CLR,,0.00,WeatherDisplay:10.37,2013-10-11 08:32:00,
2013-10-11 03:33:00,42.8,41.5,28.82,WSW,248,0.0,0.0,95,0.00,CLR,,0.00,WeatherDisplay:10.37,2013-10-11 08:33:00,
2013-10-11 03:35:00,42.8,41.5,28.82,WSW,248,0.0,0.0,95,0.00,CLR,,0.00,WeatherDisplay:10.37,2013-10-11 08:35:00,
2013-10-11 03:36:00,42.8,41.5,28.82,WSW,248,0.0,0.0,95,0.00,CLR,,0.00,WeatherDisplay:10.37,2013-10-11 08:36:00,
2013-10-11 03:37:00,42.8,41.5,28.82,WSW,248,0.0,0.0,95,0.00,CLR,,0.00,WeatherDisplay:10.37,2013-10-11 08:37:00,
2013-10-11 03:38:00,42.8,41.5,28.82,WSW,248,0.0,0.0,95,0.00,CLR,,0.00,WeatherDisplay:10.37,2013-10-11 08:38:00,
2013-10-11 03:40:00,43.0,41.6,28.82,WSW,248,0.0,0.0,95,0.00,CLR,,0.00,WeatherDisplay:10.37,2013-10-11 08:40:00,
2013-10-11 03:41:00,43.0,41.6,28.82,WSW,248,0.0,0.0,95,0.00,CLR,,0.00,WeatherDisplay:10.37,2013-10-11 08:41:00,
2013-10-11 03:42:00,43.0,41.6,28.82,WSW,248,0.0,0.0,95,0.00,CLR,,0.00,WeatherDisplay:10.37,2013-10-11 08:42:00,
2013-10-11 03:44:00,43.0,41.6,28.82,WSW,248,0.0,0.0,95,0.00,CLR,,0.00,WeatherDisplay:10.37,2013-10-11 08:44:00,
2013-10-11 03:45:00,43.0,41.6,28.82,WSW,248,0.0,0.0,95,0.00,CLR,,0.00,WeatherDisplay:10.37,2013-10-11 08:45:00,
2013-10-11 03:46:00,43.0,41.6,28.82,WSW,248,0.0,0.0,95,0.00,CLR,,0.00,WeatherDisplay:10.37,2013-10-11 08:46:00,
2013-10-11 03:47:00,43.0,41.6,28.82,WSW,248,0.0,0.0,95,0.00,CLR,,0.00,WeatherDisplay:10.37,2013-10-11 08:47:00,
2013-10-11 03:48:00,43.0,41.6,28.82,WSW,248,0.0,0.0,95,0.00,CLR,,0.00,WeatherDisplay:10.37,2013-10-11 08:48:00,
2013-10-11 03:49:00,43.2,41.8,28.82,WSW,248,0.0,0.0,95,0.00,CLR,,0.00,WeatherDisplay:10.37,2013-10-11 08:49:00,
2013-10-11 03:51:00,43.3,42.0,28.82,WSW,248,0.0,0.0,95,0.00,CLR,,0.00,WeatherDisplay:10.37,2013-10-11 08:51:00,
2013-10-11 03:52:00,43.3,42.0,28.82,WSW,248,0.0,0.0,95,0.00,CLR,,0.00,WeatherDisplay:10.37,2013-10-11 08:52:00,
2013-10-11 03:53:00,43.3,42.0,28.82,WSW,248,0.0,0.0,95,0.00,CLR,,0.00,WeatherDisplay:10.37,2013-10-11 08:53:00,
2013-10-11 03:54:00,43.3,42.3,28.82,WSW,248,0.0,0.0,96,0.00,CLR,,0.00,WeatherDisplay:10.37,2013-10-11 08:54:00,
2013-10-11 03:56:00,43.2,42.1,28.82,WSW,248,0.0,0.0,96,0.00,CLR,,0.00,WeatherDisplay:10.37,2013-10-11 08:56:00,
2013-10-11 03:57:00,43.2,42.1,28.82,WSW,248,0.0,0.0,96,0.00,CLR,,0.00,WeatherDisplay:10.37,2013-10-11 08:57:00,
2013-10-11 03:58:00,43.2,41.8,28.82,WSW,248,0.0,0.0,95,0.00,CLR,,0.00,WeatherDisplay:10.37,2013-10-11 08:58:00,
2013-10-11 03:59:00,43.2,41.8,28.82,WSW,248,0.0,0.0,95,0.00,CLR,,0.00,WeatherDisplay:10.37,2013-10-11 08:59:00,
2013-10-11 04:02:00,43.0,41.6,28.82,WSW,248,0.0,0.0,95,0.00,CLR,,0.00,WeatherDisplay:10.37,2013-10-11 09:02:00,
2013-10-11 04:03:00,43.0,41.6,28.82,WSW,248,0.0,0.0,95,0.00,CLR,,0.00,WeatherDisplay:10.37,2013-10-11 09:03:00,
2013-10-11 04:04:00,43.0,41.6,28.82,WSW,248,0.0,0.0,95,0.00,CLR,,0.00,WeatherDisplay:10.37,2013-10-11 09:04:00,
2013-10-11 04:07:00,43.0,41.6,28.82,WSW,248,0.0,0.0,95,0.00,CLR,,0.00,WeatherDisplay:10.37,2013-10-11 09:07:00,
2013-10-11 04:09:00,43.0,41.6,28.82,WSW,248,0.0,0.0,95,0.00,CLR,,0.00,WeatherDisplay:10.37,2013-10-11 09:09:00,
2013-10-11 04:12:00,42.8,41.5,28.82,WSW,248,0.0,0.0,95,0.00,CLR,,0.00,WeatherDisplay:10.37,2013-10-11 09:12:00,
2013-10-11 04:14:00,43.0,41.6,28.82,WSW,248,0.0,0.0,95,0.00,CLR,,0.00,WeatherDisplay:10.37,2013-10-11 09:14:00,
2013-10-11 04:15:00,42.8,41.5,28.82,WSW,248,0.0,0.0,95,0.00,CLR,,0.00,WeatherDisplay:10.37,2013-10-11 09:15:00,
2013-10-11 04:18:00,42.8,41.5,28.82,WSW,248,0.0,0.0,95,0.00,CLR,,0.00,WeatherDisplay:10.37,2013-10-11 09:18:00,
2013-10-11 04:19:00,42.8,41.5,28.82,WSW,248,0.0,0.0,95,0.00,CLR,,0.00,WeatherDisplay:10.37,2013-10-11 09:19:00,
2013-10-11 04:20:00,42.8,41.5,28.82,WSW,248,0.0,0.0,95,0.00,CLR,,0.00,WeatherDisplay:10.37,2013-10-11 09:20:00,
2013-10-11 04:23:00,42.8,41.5,28.82,WSW,248,0.0,0.0,95,0.00,CLR,,0.00,WeatherDisplay:10.37,2013-10-11 09:23:00,
2013-10-11 04:24:00,42.6,41.6,28.82,WSW,248,0.0,0.0,96,0.00,CLR,,0.00,WeatherDisplay:10.37,2013-10-11 09:24:00,
2013-10-11 04:25:00,42.6,41.6,28.82,WSW,248,0.0,0.0,96,0.00,CLR,,0.00,WeatherDisplay:10.37,2013-10-11 09:25:00,
2013-10-11 04:28:00,42.6,41.6,28.82,WSW,248,0.0,0.0,96,0.00,CLR,,0.00,WeatherDisplay:10.37,2013-10-11 09:28:00,
2013-10-11 04:29:00,42.6,41.3,28.82,WSW,248,0.0,0.0,95,0.00,CLR,,0.00,WeatherDisplay:10.37,2013-10-11 09:29:00,
2013-10-11 04:30:00,42.6,41.3,28.82,WSW,248,0.0,0.0,95,0.00,CLR,,0.00,WeatherDisplay:10.37,2013-10-11 09:30:00,
2013-10-11 04:31:00,42.6,41.3,28.82,WSW,248,0.0,0.0,95,0.00,CLR,,0.00,WeatherDisplay:10.37,2013-10-11 09:31:00,
2013-10-11 04:33:00,42.8,41.5,28.82,WSW,248,0.0,0.0,95,0.00,CLR,,0.00,WeatherDisplay:10.37,2013-10-11 09:33:00,
2013-10-11 04:35:00,42.8,41.5,28.82,WSW,248,0.0,0.0,95,0.00,CLR,,0.00,WeatherDisplay:10.37,2013-10-11 09:35:00,
2013-10-11 04:36:00,42.8,41.5,28.82,WSW,248,0.0,0.0,95,0.00,CLR,,0.00,WeatherDisplay:10.37,2013-10-11 09:36:00,
2013-10-11 04:38:00,42.8,41.5,28.82,WSW,248,0.0,0.0,95,0.00,CLR,,0.00,WeatherDisplay:10.37,2013-10-11 09:38:00,
2013-10-11 04:40:00,42.8,41.5,28.79,WSW,248,0.0,0.0,95,0.00,CLR,,0.00,WeatherDisplay:10.37,2013-10-11 09:40:00,
2013-10-11 04:41:00,42.8,41.5,28.79,WSW,248,0.0,0.0,95,0.00,CLR,,0.00,WeatherDisplay:10.37,2013-10-11 09:41:00,
2013-10-11 04:43:00,42.6,41.6,28.79,WSW,248,0.0,0.0,96,0.00,CLR,,0.00,WeatherDisplay:10.37,2013-10-11 09:43:00,
2013-10-11 04:45:00,42.6,41.6,28.79,WSW,248,0.0,0.0,96,0.00,CLR,,0.00,WeatherDisplay:10.37,2013-10-11 09:45:00,
2013-10-11 04:46:00,42.6,41.6,28.79,WSW,248,0.0,0.0,96,0.00,CLR,,0.00,WeatherDisplay:10.37,2013-10-11 09:46:00,
2013-10-11 04:48:00,42.6,41.6,28.79,WSW,248,0.0,0.0,96,0.00,CLR,,0.00,WeatherDisplay:10.37,2013-10-11 09:48:00,
2013-10-11 04:50:00,42.6,41.6,28.79,WSW,248,0.0,0.0,96,0.00,CLR,,0.00,WeatherDisplay:10.37,2013-10-11 09:50:00,
2013-10-11 04:51:00,42.6,41.6,28.79,WSW,248,0.0,0.0,96,0.00,CLR,,0.00,WeatherDisplay:10.37,2013-10-11 09:51:00,
2013-10-11 04:52:00,42.4,41.4,28.79,WSW,248,0.0,0.0,96,0.00,CLR,,0.00,WeatherDisplay:10.37,2013-10-11 09:52:00,
2013-10-11 04:54:00,42.4,41.4,28.79,WSW,248,0.0,0.0,96,0.00,CLR,,0.00,WeatherDisplay:10.37,2013-10-11 09:54:00,
2013-10-11 04:55:00,42.4,41.4,28.82,WSW,248,0.0,0.0,96,0.00,CLR,,0.00,WeatherDisplay:10.37,2013-10-11 09:55:00,
2013-10-11 04:56:00,42.4,41.4,28.82,WSW,248,0.0,0.0,96,0.00,CLR,,0.00,WeatherDisplay:10.37,2013-10-11 09:56:00,
2013-10-11 04:57:00,42.4,41.4,28.82,WSW,248,0.0,0.0,96,0.00,CLR,,0.00,WeatherDisplay:10.37,2013-10-11 09:57:00,
2013-10-11 04:59:00,42.4,41.4,28.82,WSW,248,0.0,0.0,96,0.00,CLR,,0.00,WeatherDisplay:10.37,2013-10-11 09:59:00,
2013-10-11 05:00:00,42.4,41.4,28.82,WSW,248,0.0,0.0,96,0.00,CLR,,0.00,WeatherDisplay:10.37,2013-10-11 10:00:00,
2013-10-11 05:01:00,42.4,41.4,28.82,WSW,248,0.0,0.0,96,0.00,CLR,,0.00,WeatherDisplay:10.37,2013-10-11 10:01:00,
2013-10-11 05:02:00,42.4,41.4,28.82,WSW,248,0.0,0.0,96,0.00,CLR,,0.00,WeatherDisplay:10.37,2013-10-11 10:02:00,
2013-10-11 05:04:00,42.4,41.4,28.82,WSW,248,0.0,0.0,96,0.00,CLR,,0.00,WeatherDisplay:10.37,2013-10-11 10:04:00,
2013-10-11 05:05:00,42.4,41.4,28.82,WSW,248,0.0,0.0,96,0.00,CLR,,0.00,WeatherDisplay:10.37,2013-10-11 10:05:00,
2013-10-11 05:06:00,42.4,41.4,28.82,WSW,248,0.0,0.0,96,0.00,CLR,,0.00,WeatherDisplay:10.37,2013-10-11 10:06:00,
2013-10-11 05:07:00,42.4,41.4,28.82,WSW,248,0.0,0.0,96,0.00,CLR,,0.00,WeatherDisplay:10.37,2013-10-11 10:07:00,
2013-10-11 05:08:00,42.4,41.4,28.82,WSW,248,0.0,0.0,96,0.00,CLR,,0.00,WeatherDisplay:10.37,2013-10-11 10:08:00,
2013-10-11 05:09:00,42.4,41.4,28.82,WSW,248,0.0,0.0,96,0.00,CLR,,0.00,WeatherDisplay:10.37,2013-10-11 10:09:00,
2013-10-11 05:10:00,42.4,41.4,28.82,WSW,248,0.0,0.0,96,0.00,CLR,,0.00,WeatherDisplay:10.37,2013-10-11 10:10:00,
2013-10-11 05:12:00,42.4,41.4,28.82,WSW,248,0.0,0.0,96,0.00,CLR,,0.00,WeatherDisplay:10.37,2013-10-11 10:12:00,
2013-10-11 05:13:00,42.4,41.4,28.82,WSW,248,0.0,0.0,96,0.00,CLR,,0.00,WeatherDisplay:10.37,2013-10-11 10:13:00,
2013-10-11 05:14:00,42.4,41.4,28.82,WSW,248,0.0,0.0,96,0.00,CLR,,0.00,WeatherDisplay:10.37,2013-10-11 10:14:00,
2013-10-11 05:15:00,42.4,41.4,28.82,WSW,248,0.0,0.0,96,0.00,CLR,,0.00,WeatherDisplay:10.37,2013-10-11 10:15:00,
2013-10-11 05:17:00,42.3,41.2,28.82,WSW,248,0.0,0.0,96,0.00,CLR,,0.00,WeatherDisplay:10.37,2013-10-11 10:17:00,
2013-10-11 05:18:00,42.3,41.2,28.82,WSW,248,1.2,0.0,96,0.00,CLR,,0.00,WeatherDisplay:10.37,2013-10-11 10:18:00,
2013-10-11 05:19:00,42.3,41.2,28.82,WSW,248,0.0,0.0,96,0.00,CLR,,0.00,WeatherDisplay:10.37,2013-10-11 10:19:00,
2013-10-11 05:20:00,42.3,41.2,28.82,WSW,248,0.0,0.0,96,0.00,CLR,,0.00,WeatherDisplay:10.37,2013-10-11 10:20:00,
2013-10-11 05:22:00,42.1,41.0,28.82,WSW,248,0.0,0.0,96,0.00,CLR,,0.00,WeatherDisplay:10.37,2013-10-11 10:22:00,
2013-10-11 05:23:00,42.1,41.0,28.82,WSW,248,0.0,0.0,96,0.00,CLR,,0.00,WeatherDisplay:10.37,2013-10-11 10:23:00,
2013-10-11 05:24:00,42.1,41.0,28.82,WSW,248,1.2,0.0,96,0.00,CLR,,0.00,WeatherDisplay:10.37,2013-10-11 10:24:00,
2013-10-11 05:25:00,42.1,41.0,28.79,WSW,248,0.0,0.0,96,0.00,CLR,,0.00,WeatherDisplay:10.37,2013-10-11 10:25:00,
2013-10-11 05:26:00,42.1,41.0,28.79,WSW,248,0.0,0.0,96,0.00,CLR,,0.00,WeatherDisplay:10.37,2013-10-11 10:26:00,
2013-10-11 05:27:00,42.1,41.0,28.79,WSW,248,0.0,0.0,96,0.00,CLR,,0.00,WeatherDisplay:10.37,2013-10-11 10:27:00,
2013-10-11 05:29:00,42.1,41.0,28.79,WSW,248,0.0,0.0,96,0.00,CLR,,0.00,WeatherDisplay:10.37,2013-10-11 10:29:00,
2013-10-11 05:30:00,42.3,41.2,28.79,WSW,248,0.0,0.0,96,0.00,CLR,,0.00,WeatherDisplay:10.37,2013-10-11 10:30:00,
2013-10-11 05:31:00,42.3,41.2,28.79,WSW,248,0.0,0.0,96,0.00,CLR,,0.00,WeatherDisplay:10.37,2013-10-11 10:31:00,
2013-10-11 05:33:00,42.3,41.2,28.79,WSW,248,1.2,1.2,96,0.00,CLR,,0.00,WeatherDisplay:10.37,2013-10-11 10:33:00,
2013-10-11 05:34:00,42.4,41.4,28.79,WSW,248,1.2,0.0,96,0.00,CLR,,0.00,WeatherDisplay:10.37,2013-10-11 10:34:00,
2013-10-11 05:35:00,42.4,41.4,28.79,WSW,248,0.0,0.0,96,0.00,CLR,,0.00,WeatherDisplay:10.37,2013-10-11 10:35:00,
2013-10-11 05:36:00,42.4,41.4,28.79,WSW,248,0.0,0.0,96,0.00,CLR,,0.00,WeatherDisplay:10.37,2013-10-11 10:36:00,
2013-10-11 05:37:00,42.4,41.4,28.79,WSW,248,0.0,0.0,96,0.00,CLR,,0.00,WeatherDisplay:10.37,2013-10-11 10:37:00,
2013-10-11 05:39:00,42.4,41.6,28.79,WSW,248,0.0,0.0,97,0.00,CLR,,0.00,WeatherDisplay:10.37,2013-10-11 10:39:00,
2013-10-11 05:40:00,42.4,41.6,28.79,WSW,248,0.0,0.0,97,0.00,CLR,,0.00,WeatherDisplay:10.37,2013-10-11 10:40:00,
2013-10-11 05:41:00,42.3,41.5,28.79,WSW,248,0.0,0.0,97,0.00,CLR,,0.00,WeatherDisplay:10.37,2013-10-11 10:41:00,
2013-10-11 05:42:00,42.3,41.5,28.79,WSW,248,0.0,0.0,97,0.00,CLR,,0.00,WeatherDisplay:10.37,2013-10-11 10:42:00,
2013-10-11 05:44:00,42.3,41.2,28.79,WSW,248,0.0,0.0,96,0.00,CLR,,0.00,WeatherDisplay:10.37,2013-10-11 10:44:00,
2013-10-11 05:46:00,42.3,41.2,28.79,WSW,248,0.0,0.0,96,0.00,CLR,,0.00,WeatherDisplay:10.37,2013-10-11 10:46:00,
2013-10-11 05:47:00,42.3,41.2,28.79,WSW,248,0.0,0.0,96,0.00,CLR,,0.00,WeatherDisplay:10.37,2013-10-11 10:47:00,
2013-10-11 05:49:00,42.1,41.0,28.79,WSW,248,0.0,0.0,96,0.00,CLR,,0.00,WeatherDisplay:10.37,2013-10-11 10:49:00,
2013-10-11 05:50:00,42.1,41.0,28.79,WSW,248,0.0,0.0,96,0.00,CLR,,0.00,WeatherDisplay:10.37,2013-10-11 10:50:00,
2013-10-11 05:51:00,42.1,41.0,28.79,WSW,248,0.0,0.0,96,0.00,CLR,,0.00,WeatherDisplay:10.37,2013-10-11 10:51:00,
2013-10-11 05:52:00,41.9,40.8,28.79,WSW,248,0.0,0.0,96,0.00,CLR,,0.00,WeatherDisplay:10.37,2013-10-11 10:52:00,
2013-10-11 05:54:00,41.9,40.8,28.79,WSW,248,0.0,0.0,96,0.00,CLR,,0.00,WeatherDisplay:10.37,2013-10-11 10:54:00,
2013-10-11 05:55:00,41.9,40.8,28.79,WSW,248,0.0,0.0,96,0.00,CLR,,0.00,WeatherDisplay:10.37,2013-10-11 10:55:00,
2013-10-11 05:56:00,41.9,40.8,28.79,WSW,248,0.0,0.0,96,0.00,CLR,,0.00,WeatherDisplay:10.37,2013-10-11 10:56:00,
2013-10-11 05:57:00,41.9,40.8,28.79,WSW,248,0.0,0.0,96,0.00,CLR,,0.00,WeatherDisplay:10.37,2013-10-11 10:57:00,
2013-10-11 05:58:00,41.9,40.8,28.79,WSW,248,0.0,0.0,96,0.00,CLR,,0.00,WeatherDisplay:10.37,2013-10-11 10:58:00,
2013-10-11 06:00:00,41.9,40.8,28.79,WSW,248,0.0,0.0,96,0.00,CLR,,0.00,WeatherDisplay:10.37,2013-10-11 11:00:00,
2013-10-11 06:01:00,41.9,40.8,28.79,WSW,248,0.0,0.0,96,0.00,CLR,,0.00,WeatherDisplay:10.37,2013-10-11 11:01:00,
2013-10-11 06:02:00,41.7,40.7,28.79,WSW,248,0.0,0.0,96,0.00,CLR,,0.00,WeatherDisplay:10.37,2013-10-11 11:02:00,
2013-10-11 06:03:00,41.7,40.7,28.79,WSW,248,0.0,0.0,96,0.00,CLR,,0.00,WeatherDisplay:10.37,2013-10-11 11:03:00,
2013-10-11 06:05:00,41.9,40.8,28.79,WSW,248,0.0,0.0,96,0.00,CLR,,0.00,WeatherDisplay:10.37,2013-10-11 11:05:00,
2013-10-11 06:06:00,41.9,40.8,28.79,WSW,248,0.0,0.0,96,0.00,CLR,,0.00,WeatherDisplay:10.37,2013-10-11 11:06:00,
2013-10-11 06:07:00,41.9,40.8,28.79,WSW,248,0.0,0.0,96,0.00,CLR,,0.00,WeatherDisplay:10.37,2013-10-11 11:07:00,
2013-10-11 06:09:00,41.9,40.8,28.79,WSW,248,0.0,0.0,96,0.00,CLR,,0.00,WeatherDisplay:10.37,2013-10-11 11:09:00,
2013-10-11 06:11:00,41.9,41.1,28.79,WSW,248,0.0,0.0,97,0.00,CLR,,0.00,WeatherDisplay:10.37,2013-10-11 11:11:00,
2013-10-11 06:12:00,41.7,40.9,28.79,WSW,248,0.0,0.0,97,0.00,CLR,,0.00,WeatherDisplay:10.37,2013-10-11 11:12:00,
2013-10-11 06:13:00,41.7,40.9,28.79,WSW,248,0.0,0.0,97,0.00,CLR,,0.00,WeatherDisplay:10.37,2013-10-11 11:13:00,
2013-10-11 06:14:00,41.7,40.9,28.79,WSW,248,0.0,0.0,97,0.00,CLR,,0.00,WeatherDisplay:10.37,2013-10-11 11:14:00,
2013-10-11 06:16:00,41.7,40.9,28.79,WSW,248,0.0,0.0,97,0.00,CLR,,0.00,WeatherDisplay:10.37,2013-10-11 11:16:00,
2013-10-11 06:17:00,41.7,40.9,28.79,WSW,248,0.0,0.0,97,0.00,CLR,,0.00,WeatherDisplay:10.37,2013-10-11 11:17:00,
2013-10-11 06:18:00,41.7,40.9,28.79,WSW,248,0.0,0.0,97,0.00,CLR,,0.00,WeatherDisplay:10.37,2013-10-11 11:18:00,
2013-10-11 06:19:00,41.7,40.9,28.79,WSW,248,0.0,0.0,97,0.00,CLR,,0.00,WeatherDisplay:10.37,2013-10-11 11:19:00,
2013-10-11 06:21:00,41.7,40.9,28.79,WSW,248,0.0,0.0,97,0.00,CLR,,0.00,WeatherDisplay:10.37,2013-10-11 11:21:00,
2013-10-11 06:22:00,41.7,40.9,28.79,WSW,248,0.0,0.0,97,0.00,CLR,,0.00,WeatherDisplay:10.37,2013-10-11 11:22:00,
2013-10-11 06:23:00,41.7,40.9,28.79,WSW,248,0.0,0.0,97,0.00,CLR,,0.00,WeatherDisplay:10.37,2013-10-11 11:23:00,
2013-10-11 06:24:00,41.7,40.9,28.79,WSW,248,0.0,0.0,97,0.00,CLR,,0.00,WeatherDisplay:10.37,2013-10-11 11:24:00,
2013-10-11 06:26:00,41.7,40.9,28.79,WSW,248,0.0,0.0,97,0.00,CLR,,0.00,WeatherDisplay:10.37,2013-10-11 11:26:00,
2013-10-11 06:27:00,41.7,40.9,28.79,WSW,248,0.0,0.0,97,0.00,CLR,,0.00,WeatherDisplay:10.37,2013-10-11 11:27:00,
2013-10-11 06:28:00,41.7,40.9,28.79,WSW,248,0.0,0.0,97,0.00,CLR,,0.00,WeatherDisplay:10.37,2013-10-11 11:28:00,
2013-10-11 06:29:00,41.7,40.9,28.79,WSW,248,0.0,0.0,97,0.00,CLR,,0.00,WeatherDisplay:10.37,2013-10-11 11:29:00,
2013-10-11 06:30:00,41.5,40.8,28.79,WSW,248,0.0,0.0,97,0.00,CLR,,0.00,WeatherDisplay:10.37,2013-10-11 11:30:00,
2013-10-11 06:32:00,41.5,40.8,28.79,WSW,248,0.0,0.0,97,0.00,CLR,,0.00,WeatherDisplay:10.37,2013-10-11 11:32:00,
2013-10-11 06:33:00,41.5,40.8,28.79,WSW,248,0.0,0.0,97,0.00,CLR,,0.00,WeatherDisplay:10.37,2013-10-11 11:33:00,
2013-10-11 06:34:00,41.5,40.8,28.79,WSW,248,0.0,0.0,97,0.00,CLR,,0.00,WeatherDisplay:10.37,2013-10-11 11:34:00,
2013-10-11 06:35:00,41.5,40.8,28.79,WSW,248,0.0,0.0,97,0.00,CLR,,0.00,WeatherDisplay:10.37,2013-10-11 11:35:00,
2013-10-11 06:37:00,41.5,40.8,28.79,WSW,248,0.0,0.0,97,0.00,CLR,,0.00,WeatherDisplay:10.37,2013-10-11 11:37:00,
2013-10-11 06:38:00,41.5,40.8,28.79,WSW,248,0.0,0.0,97,0.00,CLR,,0.00,WeatherDisplay:10.37,2013-10-11 11:38:00,
2013-10-11 06:39:00,41.5,40.8,28.79,WSW,248,0.0,0.0,97,0.00,CLR,,0.00,WeatherDisplay:10.37,2013-10-11 11:39:00,
2013-10-11 06:40:00,41.5,40.8,28.82,WSW,248,0.0,0.0,97,0.00,CLR,,0.00,WeatherDisplay:10.37,2013-10-11 11:40:00,
2013-10-11 06:42:00,41.5,40.8,28.82,WSW,248,0.0,0.0,97,0.00,CLR,,0.00,WeatherDisplay:10.37,2013-10-11 11:42:00,
2013-10-11 06:43:00,41.5,40.8,28.82,WSW,248,0.0,0.0,97,0.00,CLR,,0.00,WeatherDisplay:10.37,2013-10-11 11:43:00,
2013-10-11 06:44:00,41.4,40.6,28.82,WSW,248,0.0,0.0,97,0.00,CLR,,0.00,WeatherDisplay:10.37,2013-10-11 11:44:00,
2013-10-11 06:45:00,41.5,40.8,28.82,WSW,248,0.0,0.0,97,0.00,CLR,,0.00,WeatherDisplay:10.37,2013-10-11 11:45:00,
2013-10-11 06:48:00,41.4,40.6,28.82,WSW,248,0.0,0.0,97,0.00,CLR,,0.00,WeatherDisplay:10.37,2013-10-11 11:48:00,
2013-10-11 06:49:00,41.2,40.4,28.82,WSW,248,0.0,0.0,97,0.00,CLR,,0.00,WeatherDisplay:10.37,2013-10-11 11:49:00,
2013-10-11 06:52:00,41.2,40.4,28.82,WSW,248,0.0,0.0,97,0.00,CLR,,0.00,WeatherDisplay:10.37,2013-10-11 11:52:00,
2013-10-11 06:53:00,41.2,40.4,28.82,WSW,248,0.0,0.0,97,0.00,CLR,,0.00,WeatherDisplay:10.37,2013-10-11 11:53:00,
2013-10-11 06:54:00,41.2,40.4,28.82,WSW,248,0.0,0.0,97,0.00,CLR,,0.00,WeatherDisplay:10.37,2013-10-11 11:54:00,
2013-10-11 06:55:00,41.2,40.4,28.82,WSW,248,0.0,0.0,97,0.00,CLR,,0.00,WeatherDisplay:10.37,2013-10-11 11:55:00,
2013-10-11 06:57:00,41.2,40.4,28.82,WSW,248,0.0,0.0,97,0.00,CLR,,0.00,WeatherDisplay:10.37,2013-10-11 11:57:00,
2013-10-11 06:58:00,41.2,40.4,28.82,WSW,248,0.0,0.0,97,0.00,CLR,,0.00,WeatherDisplay:10.37,2013-10-11 11:58:00,
2013-10-11 06:59:00,41.2,40.4,28.82,WSW,248,0.0,0.0,97,0.00,CLR,,0.00,WeatherDisplay:10.37,2013-10-11 11:59:00,
2013-10-11 07:00:00,41.2,40.4,28.82,WSW,248,0.0,0.0,97,0.00,CLR,,0.00,WeatherDisplay:10.37,2013-10-11 12:00:00,
2013-10-11 07:02:00,41.2,40.4,28.82,WSW,248,0.0,0.0,97,0.00,CLR,,0.00,WeatherDisplay:10.37,2013-10-11 12:02:00,
2013-10-11 07:03:00,41.2,40.4,28.82,WSW,248,0.0,0.0,97,0.00,CLR,,0.00,WeatherDisplay:10.37,2013-10-11 12:03:00,
2013-10-11 07:04:00,41.2,40.4,28.82,WSW,248,0.0,0.0,97,0.00,CLR,,0.00,WeatherDisplay:10.37,2013-10-11 12:04:00,
2013-10-11 07:05:00,41.4,40.6,28.82,WSW,248,0.0,0.0,97,0.00,CLR,,0.00,WeatherDisplay:10.37,2013-10-11 12:05:00,
2013-10-11 07:07:00,41.2,40.4,28.82,WSW,248,0.0,0.0,97,0.00,CLR,,0.00,WeatherDisplay:10.37,2013-10-11 12:07:00,
2013-10-11 07:08:00,41.2,40.4,28.82,WSW,248,0.0,0.0,97,0.00,CLR,,0.00,WeatherDisplay:10.37,2013-10-11 12:08:00,
2013-10-11 07:09:00,41.2,40.4,28.82,WSW,248,0.0,0.0,97,0.00,CLR,,0.00,WeatherDisplay:10.37,2013-10-11 12:09:00,
2013-10-11 07:10:00,41.2,40.4,28.85,WSW,248,0.0,0.0,97,0.00,CLR,,0.00,WeatherDisplay:10.37,2013-10-11 12:10:00,
2013-10-11 07:13:00,41.4,40.6,28.85,WSW,248,0.0,0.0,97,0.00,CLR,,0.00,WeatherDisplay:10.37,2013-10-11 12:13:00,
2013-10-11 07:14:00,41.4,40.6,28.85,WSW,248,0.0,0.0,97,0.00,CLR,,0.00,WeatherDisplay:10.37,2013-10-11 12:14:00,
2013-10-11 07:15:00,41.4,40.6,28.85,WSW,248,0.0,0.0,97,0.00,CLR,,0.00,WeatherDisplay:10.37,2013-10-11 12:15:00,
2013-10-11 07:16:00,41.4,40.6,28.85,WSW,248,0.0,0.0,97,0.00,CLR,,0.00,WeatherDisplay:10.37,2013-10-11 12:16:00,
2013-10-11 07:18:00,41.5,40.8,28.85,WSW,248,0.0,0.0,97,0.00,CLR,,0.00,WeatherDisplay:10.37,2013-10-11 12:18:00,
2013-10-11 07:19:00,41.5,40.8,28.85,WSW,248,0.0,0.0,97,0.00,CLR,,0.00,WeatherDisplay:10.37,2013-10-11 12:19:00,
2013-10-11 07:20:00,41.5,40.8,28.85,WSW,248,0.0,0.0,97,0.00,CLR,,0.00,WeatherDisplay:10.37,2013-10-11 12:20:00,
2013-10-11 07:21:00,41.7,40.9,28.85,WSW,248,0.0,0.0,97,0.00,CLR,,0.00,WeatherDisplay:10.37,2013-10-11 12:21:00,
2013-10-11 07:24:00,41.7,41.2,28.85,WSW,248,0.0,0.0,98,0.00,CLR,,0.00,WeatherDisplay:10.37,2013-10-11 12:24:00,
2013-10-11 07:25:00,41.7,41.2,28.82,WSW,248,0.0,0.0,98,0.00,CLR,,0.00,WeatherDisplay:10.37,2013-10-11 12:25:00,
2013-10-11 07:26:00,41.9,41.4,28.82,WSW,248,0.0,0.0,98,0.00,CLR,,0.00,WeatherDisplay:10.37,2013-10-11 12:26:00,
2013-10-11 07:29:00,42.3,41.7,28.82,WSW,248,0.0,0.0,98,0.00,CLR,,0.00,WeatherDisplay:10.37,2013-10-11 12:29:00,
2013-10-11 07:30:00,42.3,41.7,28.82,WSW,248,0.0,0.0,98,0.00,CLR,,0.00,WeatherDisplay:10.37,2013-10-11 12:30:00,
2013-10-11 07:31:00,42.4,41.9,28.82,WSW,248,0.0,0.0,98,0.00,CLR,,0.00,WeatherDisplay:10.37,2013-10-11 12:31:00,
2013-10-11 07:34:00,43.2,42.6,28.82,WSW,248,0.0,0.0,98,0.00,CLR,,0.00,WeatherDisplay:10.37,2013-10-11 12:34:00,
2013-10-11 07:35:00,43.2,42.6,28.82,WSW,248,0.0,0.0,98,0.00,CLR,,0.00,WeatherDisplay:10.37,2013-10-11 12:35:00,
2013-10-11 07:36:00,43.3,42.8,28.82,WSW,248,0.0,0.0,98,0.00,CLR,,0.00,WeatherDisplay:10.37,2013-10-11 12:36:00,
2013-10-11 07:40:00,44.1,43.5,28.82,WSW,248,0.0,0.0,98,0.00,CLR,,0.00,WeatherDisplay:10.37,2013-10-11 12:40:00,
2013-10-11 07:41:00,44.1,43.5,28.82,WSW,248,1.4,0.0,98,0.00,CLR,,0.00,WeatherDisplay:10.37,2013-10-11 12:41:00,
2013-10-11 07:42:00,44.1,43.5,28.82,WSW,248,1.2,0.0,98,0.00,CLR,,0.00,WeatherDisplay:10.37,2013-10-11 12:42:00,
2013-10-11 07:45:00,44.2,43.7,28.82,WSW,248,0.0,0.0,98,0.00,CLR,,0.00,WeatherDisplay:10.37,2013-10-11 12:45:00,
2013-10-11 07:46:00,44.6,44.1,28.82,WSW,248,0.0,0.0,98,0.00,CLR,,0.00,WeatherDisplay:10.37,2013-10-11 12:46:00,
2013-10-11 07:47:00,44.6,44.1,28.82,WSW,248,0.0,0.0,98,0.00,CLR,,0.00,WeatherDisplay:10.37,2013-10-11 12:47:00,
2013-10-11 07:48:00,45.0,44.4,28.82,WSW,248,0.0,0.0,98,0.00,CLR,,0.00,WeatherDisplay:10.37,2013-10-11 12:48:00,
2013-10-11 07:50:00,45.5,45.0,28.82,WSW,248,0.0,0.0,98,0.00,CLR,,0.00,WeatherDisplay:10.37,2013-10-11 12:50:00,
2013-10-11 07:51:00,45.7,45.1,28.82,WSW,248,0.0,0.0,98,0.00,CLR,,0.00,WeatherDisplay:10.37,2013-10-11 12:51:00,
2013-10-11 07:52:00,45.9,45.3,28.82,WSW,248,0.0,0.0,98,0.00,CLR,,0.00,WeatherDisplay:10.37,2013-10-11 12:52:00,
2013-10-11 07:53:00,46.0,45.5,28.82,WSW,248,0.0,0.0,98,0.00,CLR,,0.00,WeatherDisplay:10.37,2013-10-11 12:53:00,
2013-10-11 07:55:00,46.8,46.2,28.82,WSW,248,0.0,0.0,98,0.00,CLR,,0.00,WeatherDisplay:10.37,2013-10-11 12:55:00,
2013-10-11 07:56:00,46.9,46.4,28.82,WSW,248,0.0,0.0,98,0.00,CLR,,0.00,WeatherDisplay:10.37,2013-10-11 12:56:00,
2013-10-11 07:57:00,47.1,46.6,28.82,WSW,248,0.0,0.0,98,0.00,CLR,,0.00,WeatherDisplay:10.37,2013-10-11 12:57:00,
2013-10-11 07:58:00,47.3,46.8,28.82,WSW,248,0.0,0.0,98,0.00,CLR,,0.00,WeatherDisplay:10.37,2013-10-11 12:58:00,
2013-10-11 08:00:00,47.7,47.1,28.82,WSW,248,0.0,0.0,98,0.00,CLR,,0.00,WeatherDisplay:10.37,2013-10-11 13:00:00,
2013-10-11 08:01:00,47.8,47.3,28.82,WSW,248,0.0,0.0,98,0.00,CLR,,0.00,WeatherDisplay:10.37,2013-10-11 13:01:00,
2013-10-11 08:02:00,48.0,47.2,28.82,WSW,248,0.0,0.0,97,0.00,CLR,,0.00,WeatherDisplay:10.37,2013-10-11 13:02:00,
2013-10-11 08:03:00,48.2,47.4,28.82,WSW,248,1.2,1.2,97,0.00,CLR,,0.00,WeatherDisplay:10.37,2013-10-11 13:03:00,
2013-10-11 08:04:00,48.2,47.4,28.82,WSW,248,1.2,0.0,97,0.00,CLR,,0.00,WeatherDisplay:10.37,2013-10-11 13:04:00,
2013-10-11 08:05:00,48.4,47.6,28.82,WSW,248,1.2,0.0,97,0.00,CLR,,0.00,WeatherDisplay:10.37,2013-10-11 13:05:00,
2013-10-11 08:06:00,48.6,47.7,28.82,WSW,248,0.0,0.0,97,0.00,CLR,,0.00,WeatherDisplay:10.37,2013-10-11 13:06:00,
2013-10-11 08:07:00,48.7,47.9,28.82,WSW,248,0.0,0.0,97,0.00,CLR,,0.00,WeatherDisplay:10.37,2013-10-11 13:07:00,
2013-10-11 08:08:00,48.9,48.1,28.82,WSW,248,0.0,0.0,97,0.00,CLR,,0.00,WeatherDisplay:10.37,2013-10-11 13:08:00,
2013-10-11 08:09:00,49.1,48.3,28.82,WSW,248,0.0,0.0,97,0.00,CLR,,0.00,WeatherDisplay:10.37,2013-10-11 13:09:00,
2013-10-11 08:10:00,49.1,48.3,28.82,WSW,248,0.0,0.0,97,0.00,CLR,,0.00,WeatherDisplay:10.37,2013-10-11 13:10:00,
2013-10-11 08:11:00,48.9,48.1,28.82,WSW,248,0.0,0.0,97,0.00,CLR,,0.00,WeatherDisplay:10.37,2013-10-11 13:11:00,
2013-10-11 08:12:00,48.7,47.9,28.82,WSW,248,0.0,0.0,97,0.00,CLR,,0.00,WeatherDisplay:10.37,2013-10-11 13:12:00,
2013-10-11 08:13:00,48.7,47.7,28.82,WSW,248,0.0,0.0,96,0.00,CLR,,0.00,WeatherDisplay:10.37,2013-10-11 13:13:00,
2013-10-11 08:14:00,48.6,47.5,28.82,WSW,248,0.0,0.0,96,0.00,CLR,,0.00,WeatherDisplay:10.37,2013-10-11 13:14:00,
2013-10-11 08:16:00,48.7,47.7,28.82,WSW,248,0.0,0.0,96,0.00,CLR,,0.00,WeatherDisplay:10.37,2013-10-11 13:16:00,
2013-10-11 08:17:00,48.7,47.7,28.82,WSW,248,0.0,0.0,96,0.00,CLR,,0.00,WeatherDisplay:10.37,2013-10-11 13:17:00,
2013-10-11 08:18:00,48.6,47.5,28.82,WSW,248,0.0,0.0,96,0.00,CLR,,0.00,WeatherDisplay:10.37,2013-10-11 13:18:00,
2013-10-11 08:19:00,48.6,47.5,28.82,WSW,248,0.0,0.0,96,0.00,CLR,,0.00,WeatherDisplay:10.37,2013-10-11 13:19:00,
2013-10-11 08:21:00,48.7,47.7,28.82,WSW,248,0.0,0.0,96,0.00,CLR,,0.00,WeatherDisplay:10.37,2013-10-11 13:21:00,
2013-10-11 08:22:00,48.7,47.7,28.82,WSW,248,0.0,0.0,96,0.00,CLR,,0.00,WeatherDisplay:10.37,2013-10-11 13:22:00,
2013-10-11 08:23:00,48.7,47.7,28.82,WSW,248,0.0,0.0,96,0.00,CLR,,0.00,WeatherDisplay:10.37,2013-10-11 13:23:00,
2013-10-11 08:24:00,48.7,47.7,28.82,WSW,248,0.0,0.0,96,0.00,CLR,,0.00,WeatherDisplay:10.37,2013-10-11 13:24:00,
2013-10-11 08:26:00,48.9,47.6,28.85,WSW,248,0.0,0.0,95,0.00,CLR,,0.00,WeatherDisplay:10.37,2013-10-11 13:26:00,
2013-10-11 08:27:00,49.1,47.7,28.85,WSW,248,0.0,0.0,95,0.00,CLR,,0.00,WeatherDisplay:10.37,2013-10-11 13:27:00,
2013-10-11 08:28:00,49.3,48.2,28.85,WSW,248,0.0,0.0,96,0.00,CLR,,0.00,WeatherDisplay:10.37,2013-10-11 13:28:00,
2013-10-11 08:29:00,49.3,48.2,28.85,WSW,248,0.0,0.0,96,0.00,CLR,,0.00,WeatherDisplay:10.37,2013-10-11 13:29:00,
2013-10-11 08:30:00,49.6,48.5,28.85,WSW,248,0.0,0.0,96,0.00,CLR,,0.00,WeatherDisplay:10.37,2013-10-11 13:30:00,
2013-10-11 08:31:00,50.0,48.6,28.85,WSW,248,0.0,0.0,95,0.00,CLR,,0.00,WeatherDisplay:10.37,2013-10-11 13:31:00,
2013-10-11 08:32:00,50.7,49.6,28.85,SE,135,0.0,0.0,96,0.00,CLR,,0.00,WeatherDisplay:10.37,2013-10-11 13:32:00,
2013-10-11 08:33:00,51.3,50.2,28.85,SE,135,0.0,0.0,96,0.00,CLR,,0.00,WeatherDisplay:10.37,2013-10-11 13:33:00,
2013-10-11 08:34:00,51.6,50.5,28.85,SE,135,0.0,0.0,96,0.00,CLR,,0.00,WeatherDisplay:10.37,2013-10-11 13:34:00,
2013-10-11 08:35:00,52.2,51.1,28.85,SE,135,0.0,0.0,96,0.00,CLR,,0.00,WeatherDisplay:10.37,2013-10-11 13:35:00,
2013-10-11 08:36:00,52.9,51.8,28.85,SE,135,0.0,0.0,96,0.00,CLR,,0.00,WeatherDisplay:10.37,2013-10-11 13:36:00,
2013-10-11 08:37:00,52.9,51.8,28.85,SE,135,0.0,0.0,96,0.00,CLR,,0.00,WeatherDisplay:10.37,2013-10-11 13:37:00,
2013-10-11 08:38:00,52.9,51.8,28.85,SE,135,0.0,0.0,96,0.00,CLR,,0.00,WeatherDisplay:10.37,2013-10-11 13:38:00,
2013-10-11 08:40:00,54.5,53.4,28.82,SE,135,1.2,0.0,96,0.00,CLR,,0.00,WeatherDisplay:10.37,2013-10-11 13:40:00,
2013-10-11 08:41:00,54.7,53.6,28.82,SE,135,1.4,0.0,96,0.00,CLR,,0.00,WeatherDisplay:10.37,2013-10-11 13:41:00,
2013-10-11 08:43:00,55.4,54.0,28.82,SE,135,0.0,0.0,95,0.00,CLR,,0.00,WeatherDisplay:10.37,2013-10-11 13:43:00,
2013-10-11 08:46:00,55.9,54.2,28.82,ESE,112,2.3,2.3,94,0.00,CLR,,0.00,WeatherDisplay:10.37,2013-10-11 13:46:00,
2013-10-11 08:47:00,55.8,53.8,28.82,ESE,112,2.3,2.3,93,0.00,CLR,,0.00,WeatherDisplay:10.37,2013-10-11 13:47:00,
2013-10-11 08:48:00,55.6,53.6,28.82,ESE,112,3.5,3.5,93,0.00,CLR,,0.00,WeatherDisplay:10.37,2013-10-11 13:48:00,
2013-10-11 08:49:00,55.8,53.8,28.82,ESE,112,1.2,0.0,93,0.00,CLR,,0.00,WeatherDisplay:10.37,2013-10-11 13:49:00,
2013-10-11 08:51:00,55.9,53.6,28.82,ESE,112,2.3,2.3,92,0.00,CLR,,0.00,WeatherDisplay:10.37,2013-10-11 13:51:00,
2013-10-11 08:52:00,55.9,53.6,28.82,East,90,2.3,2.3,92,0.00,CLR,,0.00,WeatherDisplay:10.37,2013-10-11 13:52:00,
2013-10-11 08:53:00,55.9,53.6,28.82,SE,135,3.6,3.6,92,0.00,CLR,,0.00,WeatherDisplay:10.37,2013-10-11 13:53:00,
2013-10-11 08:54:00,55.8,53.5,28.82,East,90,3.5,3.5,92,0.00,CLR,,0.00,WeatherDisplay:10.37,2013-10-11 13:54:00,
2013-10-11 08:56:00,55.9,53.6,28.82,ESE,112,3.5,3.5,92,0.00,CLR,,0.00,WeatherDisplay:10.37,2013-10-11 13:56:00,
2013-10-11 08:58:00,55.9,53.4,28.82,East,90,3.5,3.5,91,0.00,CLR,,0.00,WeatherDisplay:10.37,2013-10-11 13:58:00,
2013-10-11 08:59:00,55.9,53.4,28.82,South,180,3.5,3.5,91,0.00,CLR,,0.00,WeatherDisplay:10.37,2013-10-11 13:59:00,
2013-10-11 09:02:00,56.3,54.0,28.82,East,90,1.2,0.0,92,0.00,CLR,,0.00,WeatherDisplay:10.37,2013-10-11 14:02:00,
2013-10-11 09:03:00,56.3,53.7,28.82,SE,135,3.5,3.5,91,0.00,CLR,,0.00,WeatherDisplay:10.37,2013-10-11 14:03:00,
2013-10-11 09:04:00,56.7,54.1,28.82,SE,135,2.6,2.6,91,0.00,CLR,,0.00,WeatherDisplay:10.37,2013-10-11 14:04:00,
2013-10-11 09:05:00,56.7,54.1,28.82,SE,135,2.3,2.4,91,0.00,CLR,,0.00,WeatherDisplay:10.37,2013-10-11 14:05:00,
2013-10-11 09:07:00,57.2,54.6,28.82,ESE,112,2.6,2.6,91,0.00,CLR,,0.00,WeatherDisplay:10.37,2013-10-11 14:07:00,
2013-10-11 09:08:00,57.2,54.6,28.82,SSE,158,3.5,3.5,91,0.00,CLR,,0.00,WeatherDisplay:10.37,2013-10-11 14:08:00,
2013-10-11 09:09:00,57.2,54.3,28.82,SE,135,3.8,3.8,90,0.00,CLR,,0.00,WeatherDisplay:10.37,2013-10-11 14:09:00,
2013-10-11 09:10:00,57.6,54.6,28.85,South,180,3.5,3.5,90,0.00,CLR,,0.00,WeatherDisplay:10.37,2013-10-11 14:10:00,
2013-10-11 09:13:00,57.6,54.3,28.85,SSW,202,2.3,2.3,89,0.00,CLR,,0.00,WeatherDisplay:10.37,2013-10-11 14:13:00,
2013-10-11 09:14:00,57.6,54.3,28.85,SSW,202,1.4,1.6,89,0.00,CLR,,0.00,WeatherDisplay:10.37,2013-10-11 14:14:00,
2013-10-11 09:15:00,57.6,54.0,28.85,ESE,112,4.6,4.6,88,0.00,CLR,,0.00,WeatherDisplay:10.37,2013-10-11 14:15:00,
2013-10-11 09:18:00,58.1,54.2,28.85,SE,135,3.5,3.5,87,0.00,CLR,,0.00,WeatherDisplay:10.37,2013-10-11 14:18:00,
2013-10-11 09:19:00,58.3,54.4,28.85,SE,135,3.6,3.6,87,0.00,CLR,,0.00,WeatherDisplay:10.37,2013-10-11 14:19:00,
2013-10-11 09:20:00,58.3,54.4,28.85,East,90,3.5,3.5,87,0.00,CLR,,0.00,WeatherDisplay:10.37,2013-10-11 14:20:00,
2013-10-11 09:23:00,58.3,53.8,28.85,ESE,112,2.2,2.2,85,0.00,CLR,,0.00,WeatherDisplay:10.37,2013-10-11 14:23:00,
2013-10-11 09:24:00,58.5,54.0,28.85,ESE,112,2.9,2.9,85,0.00,CLR,,0.00,WeatherDisplay:10.37,2013-10-11 14:24:00,
2013-10-11 09:25:00,58.5,54.0,28.82,ESE,112,2.3,2.3,85,0.00,CLR,,0.00,WeatherDisplay:10.37,2013-10-11 14:25:00,
2013-10-11 09:28:00,59.2,54.7,28.82,ENE,68,2.4,2.4,85,0.00,CLR,,0.00,WeatherDisplay:10.37,2013-10-11 14:28:00,
2013-10-11 09:29:00,59.4,54.8,28.82,East,90,2.3,2.3,85,0.00,CLR,,0.00,WeatherDisplay:10.37,2013-10-11 14:29:00,
2013-10-11 09:30:00,59.5,55.0,28.82,SE,135,2.9,2.9,85,0.00,CLR,,0.00,WeatherDisplay:10.37,2013-10-11 14:30:00,
2013-10-11 09:33:00,59.9,54.4,28.82,SE,135,3.5,3.5,82,0.00,CLR,,0.00,WeatherDisplay:10.37,2013-10-11 14:33:00,
2013-10-11 09:34:00,60.1,54.6,28.82,SE,135,3.5,3.5,82,0.00,CLR,,0.00,WeatherDisplay:10.37,2013-10-11 14:34:00,
2013-10-11 09:35:00,60.4,54.9,28.82,East,90,3.5,3.5,82,0.00,CLR,,0.00,WeatherDisplay:10.37,2013-10-11 14:35:00,
2013-10-11 09:38:00,61.7,55.8,28.82,ENE,68,2.3,2.3,81,0.00,CLR,,0.00,WeatherDisplay:10.37,2013-10-11 14:38:00,
2013-10-11 09:39:00,61.9,55.6,28.82,East,90,2.9,2.9,80,0.00,CLR,,0.00,WeatherDisplay:10.37,2013-10-11 14:39:00,
2013-10-11 09:40:00,61.9,55.6,28.82,ESE,112,2.3,2.3,80,0.00,CLR,,0.00,WeatherDisplay:10.37,2013-10-11 14:40:00,
2013-10-11 09:43:00,63.1,56.9,28.82,ESE,112,2.3,2.3,80,0.00,CLR,,0.00,WeatherDisplay:10.37,2013-10-11 14:43:00,
2013-10-11 09:44:00,63.0,55.6,28.82,ESE,112,3.5,3.5,77,0.00,CLR,,0.00,WeatherDisplay:10.37,2013-10-11 14:44:00,
2013-10-11 09:45:00,63.0,55.6,28.82,NE,45,2.3,2.3,77,0.00,CLR,,0.00,WeatherDisplay:10.37,2013-10-11 14:45:00,
2013-10-11 09:46:00,62.6,54.6,28.82,East,90,3.5,3.5,75,0.00,CLR,,0.00,WeatherDisplay:10.37,2013-10-11 14:46:00,
2013-10-11 09:49:00,61.9,53.1,28.82,SSE,158,5.8,5.9,73,0.00,CLR,,0.00,WeatherDisplay:10.37,2013-10-11 14:49:00,
2013-10-11 09:50:00,62.2,53.8,28.82,SE,135,4.6,4.6,74,0.00,CLR,,0.00,WeatherDisplay:10.37,2013-10-11 14:50:00,
2013-10-11 09:51:00,62.6,54.6,28.82,West,270,2.6,2.6,75,0.00,CLR,,0.00,WeatherDisplay:10.37,2013-10-11 14:51:00,
2013-10-11 09:54:00,62.1,52.9,28.82,South,180,8.1,8.1,72,0.00,CLR,,0.00,WeatherDisplay:10.37,2013-10-11 14:54:00,
2013-10-11 09:55:00,61.7,53.0,28.82,South,180,5.8,5.8,73,0.00,CLR,,0.00,WeatherDisplay:10.37,2013-10-11 14:55:00,
2013-10-11 09:56:00,61.7,53.0,28.82,SSE,158,5.8,5.8,73,0.00,CLR,,0.00,WeatherDisplay:10.37,2013-10-11 14:56:00,
2013-10-11 09:59:00,62.1,53.3,28.82,SSE,158,5.8,5.8,73,0.00,CLR,,0.00,WeatherDisplay:10.37,2013-10-11 14:59:00,
2013-10-11 10:00:00,62.1,53.3,28.82,SSE,158,5.8,5.8,73,0.00,CLR,,0.00,WeatherDisplay:10.37,2013-10-11 15:00:00,
2013-10-11 10:01:00,62.1,53.3,28.82,SE,135,4.6,4.6,73,0.00,CLR,,0.00,WeatherDisplay:10.37,2013-10-11 15:01:00,
2013-10-11 10:02:00,62.2,53.5,28.82,SSW,202,4.6,4.6,73,0.00,CLR,,0.00,WeatherDisplay:10.37,2013-10-11 15:02:00,
2013-10-11 10:04:00,63.1,54.3,28.82,East,90,6.2,6.2,73,0.00,CLR,,0.00,WeatherDisplay:10.37,2013-10-11 15:04:00,
2013-10-11 10:06:00,63.1,54.0,28.82,SE,135,3.6,3.6,72,0.00,CLR,,0.00,WeatherDisplay:10.37,2013-10-11 15:06:00,
2013-10-11 10:07:00,63.1,54.0,28.82,SSW,202,3.5,3.5,72,0.00,CLR,,0.00,WeatherDisplay:10.37,2013-10-11 15:07:00,
2013-10-11 10:09:00,63.0,53.8,28.82,SW,225,5.4,5.4,72,0.00,CLR,,0.00,WeatherDisplay:10.37,2013-10-11 15:09:00,
2013-10-11 10:11:00,63.0,53.4,28.82,SSE,158,8.1,8.1,71,0.00,CLR,,0.00,WeatherDisplay:10.37,2013-10-11 15:11:00,
2013-10-11 10:12:00,62.8,53.2,28.82,South,180,7.6,7.6,71,0.00,CLR,,0.00,WeatherDisplay:10.37,2013-10-11 15:12:00,
2013-10-11 10:14:00,62.8,53.2,28.82,ESE,112,4.6,4.6,71,0.00,CLR,,0.00,WeatherDisplay:10.37,2013-10-11 15:14:00,
2013-10-11 10:16:00,63.0,53.8,28.82,SE,135,5.8,5.8,72,0.00,CLR,,0.00,WeatherDisplay:10.37,2013-10-11 15:16:00,
2013-10-11 10:17:00,63.3,54.1,28.82,South,180,5.8,5.8,72,0.00,CLR,,0.00,WeatherDisplay:10.37,2013-10-11 15:17:00,
2013-10-11 10:18:00,63.5,53.9,28.82,SSE,158,5.8,5.8,71,0.00,CLR,,0.00,WeatherDisplay:10.37,2013-10-11 15:18:00,
2013-10-11 10:19:00,63.9,54.3,28.82,SE,135,5.8,5.8,71,0.00,CLR,,0.00,WeatherDisplay:10.37,2013-10-11 15:19:00,
2013-10-11 10:21:00,64.4,54.4,28.82,SSE,158,6.0,6.0,70,0.00,CLR,,0.00,WeatherDisplay:10.37,2013-10-11 15:21:00,
2013-10-11 10:22:00,64.4,54.4,28.82,SSE,158,5.8,5.8,70,0.00,CLR,,0.00,WeatherDisplay:10.37,2013-10-11 15:22:00,
2013-10-11 10:23:00,64.8,54.7,28.82,South,180,5.8,5.8,70,0.00,CLR,,0.00,WeatherDisplay:10.37,2013-10-11 15:23:00,
2013-10-11 10:25:00,64.6,54.2,28.79,South,180,11.5,11.5,69,0.00,CLR,,0.00,WeatherDisplay:10.37,2013-10-11 15:25:00,
2013-10-11 10:26:00,63.9,53.9,28.79,SE,135,11.5,11.5,70,0.00,CLR,,0.00,WeatherDisplay:10.37,2013-10-11 15:26:00,
2013-10-11 10:27:00,64.2,54.2,28.79,SW,225,8.1,8.1,70,0.00,CLR,,0.00,WeatherDisplay:10.37,2013-10-11 15:27:00,
2013-10-11 10:28:00,64.8,54.7,28.79,SSE,158,5.8,5.8,70,0.00,CLR,,0.00,WeatherDisplay:10.37,2013-10-11 15:28:00,
2013-10-11 10:30:00,65.1,54.7,28.79,SE,135,10.4,10.4,69,0.00,CLR,,0.00,WeatherDisplay:10.37,2013-10-11 15:30:00,
2013-10-11 10:32:00,65.8,55.0,28.79,SSE,158,6.9,6.9,68,0.00,CLR,,0.00,WeatherDisplay:10.37,2013-10-11 15:32:00,
2013-10-11 10:33:00,66.2,54.9,28.79,SW,225,5.8,5.8,67,0.00,CLR,,0.00,WeatherDisplay:10.37,2013-10-11 15:33:00,
2013-10-11 10:35:00,66.9,56.0,28.79,South,180,4.6,4.6,68,0.00,CLR,,0.00,WeatherDisplay:10.37,2013-10-11 15:35:00,
2013-10-11 10:37:00,67.3,55.9,28.79,SE,135,5.8,5.8,67,0.00,CLR,,0.00,WeatherDisplay:10.37,2013-10-11 15:37:00,
2013-10-11 10:38:00,67.1,55.4,28.79,East,90,4.6,4.6,66,0.00,CLR,,0.00,WeatherDisplay:10.37,2013-10-11 15:38:00,
2013-10-11 10:39:00,67.1,55.4,28.79,ESE,112,4.6,4.6,66,0.00,CLR,,0.00,WeatherDisplay:10.37,2013-10-11 15:39:00,
2013-10-11 10:40:00,67.3,55.1,28.79,South,180,5.8,5.8,65,0.00,CLR,,0.00,WeatherDisplay:10.37,2013-10-11 15:40:00,
2013-10-11 10:41:00,67.3,55.1,28.79,West,270,5.8,5.8,65,0.00,CLR,,0.00,WeatherDisplay:10.37,2013-10-11 15:41:00,
2013-10-11 10:42:00,67.6,55.9,28.79,South,180,4.0,4.0,66,0.00,CLR,,0.00,WeatherDisplay:10.37,2013-10-11 15:42:00,
2013-10-11 10:43:00,67.6,55.0,28.79,SSE,158,5.8,5.8,64,0.00,CLR,,0.00,WeatherDisplay:10.37,2013-10-11 15:43:00,
2013-10-11 10:44:00,67.5,54.4,28.79,South,180,8.1,8.1,63,0.00,CLR,,0.00,WeatherDisplay:10.37,2013-10-11 15:44:00,
2013-10-11 10:46:00,67.3,54.3,28.79,ESE,112,5.8,5.8,63,0.00,CLR,,0.00,WeatherDisplay:10.37,2013-10-11 15:46:00,
2013-10-11 10:47:00,67.3,54.7,28.79,SE,135,5.8,5.8,64,0.00,CLR,,0.00,WeatherDisplay:10.37,2013-10-11 15:47:00,
2013-10-11 10:48:00,67.5,54.9,28.79,SSE,158,5.8,5.8,64,0.00,CLR,,0.00,WeatherDisplay:10.37,2013-10-11 15:48:00,
2013-10-11 10:49:00,67.6,55.0,28.79,SE,135,4.6,4.6,64,0.00,CLR,,0.00,WeatherDisplay:10.37,2013-10-11 15:49:00,
2013-10-11 10:51:00,68.2,55.1,28.79,SE,135,4.6,4.6,63,0.00,CLR,,0.00,WeatherDisplay:10.37,2013-10-11 15:51:00,
2013-10-11 10:52:00,68.4,55.3,28.79,ESE,112,5.9,5.9,63,0.00,CLR,,0.00,WeatherDisplay:10.37,2013-10-11 15:52:00,
2013-10-11 10:53:00,68.4,55.3,28.79,ESE,112,5.8,5.8,63,0.00,CLR,,0.00,WeatherDisplay:10.37,2013-10-11 15:53:00,
2013-10-11 10:54:00,68.2,54.7,28.79,SSW,202,5.8,5.8,62,0.00,CLR,,0.00,WeatherDisplay:10.37,2013-10-11 15:54:00,
2013-10-11 10:56:00,68.5,55.4,28.76,SSE,158,4.6,4.6,63,0.00,CLR,,0.00,WeatherDisplay:10.37,2013-10-11 15:56:00,
2013-10-11 10:58:00,68.7,55.6,28.76,East,90,4.6,4.6,63,0.00,CLR,,0.00,WeatherDisplay:10.37,2013-10-11 15:58:00,
2013-10-11 10:59:00,68.9,55.3,28.76,SE,135,6.2,6.2,62,0.00,CLR,,0.00,WeatherDisplay:10.37,2013-10-11 15:59:00,
2013-10-11 11:01:00,69.3,55.2,28.76,East,90,5.8,5.8,61,0.00,CLR,,0.00,WeatherDisplay:10.37,2013-10-11 16:01:00,
2013-10-11 11:03:00,69.4,55.4,28.76,East,90,4.6,4.6,61,0.00,CLR,,0.00,WeatherDisplay:10.37,2013-10-11 16:03:00,
2013-10-11 11:04:00,69.4,55.4,28.76,NNE,22,4.6,4.6,61,0.00,CLR,,0.00,WeatherDisplay:10.37,2013-10-11 16:04:00,
2013-10-11 11:05:00,70.0,55.5,28.76,SSE,158,4.6,4.6,60,0.00,CLR,,0.00,WeatherDisplay:10.37,2013-10-11 16:05:00,
2013-10-11 11:07:00,70.2,55.6,28.76,SSE,158,4.6,4.6,60,0.00,CLR,,0.00,WeatherDisplay:10.37,2013-10-11 16:07:00,
2013-10-11 11:08:00,70.2,55.6,28.76,East,90,5.8,5.8,60,0.00,CLR,,0.00,WeatherDisplay:10.37,2013-10-11 16:08:00,
2013-10-11 11:09:00,70.2,55.2,28.76,East,90,5.8,5.8,59,0.00,CLR,,0.00,WeatherDisplay:10.37,2013-10-11 16:09:00,
2013-10-11 11:10:00,70.2,55.2,28.79,ESE,112,5.8,5.8,59,0.00,CLR,,0.00,WeatherDisplay:10.37,2013-10-11 16:10:00,
2013-10-11 11:11:00,70.2,55.2,28.79,SE,135,5.8,5.8,59,0.00,CLR,,0.00,WeatherDisplay:10.37,2013-10-11 16:11:00,
2013-10-11 11:12:00,70.2,55.2,28.79,ESE,112,5.6,5.6,59,0.00,CLR,,0.00,WeatherDisplay:10.37,2013-10-11 16:12:00,
2013-10-11 11:13:00,70.0,55.0,28.79,SSE,158,5.8,5.8,59,0.00,CLR,,0.00,WeatherDisplay:10.37,2013-10-11 16:13:00,
2013-10-11 11:14:00,70.2,55.2,28.79,East,90,5.8,5.8,59,0.00,CLR,,0.00,WeatherDisplay:10.37,2013-10-11 16:14:00,
2013-10-11 11:15:00,70.2,55.6,28.79,East,90,6.9,6.9,60,0.00,CLR,,0.00,WeatherDisplay:10.37,2013-10-11 16:15:00,
2013-10-11 11:16:00,70.2,55.2,28.79,ESE,112,6.9,6.9,59,0.00,CLR,,0.00,WeatherDisplay:10.37,2013-10-11 16:16:00,
2013-10-11 11:17:00,70.2,55.2,28.79,SE,135,5.8,5.8,59,0.00,CLR,,0.00,WeatherDisplay:10.37,2013-10-11 16:17:00,
2013-10-11 11:18:00,70.0,55.0,28.79,South,180,6.9,6.9,59,0.00,CLR,,0.00,WeatherDisplay:10.37,2013-10-11 16:18:00,
2013-10-11 11:19:00,70.2,55.6,28.79,SE,135,5.8,5.8,60,0.00,CLR,,0.00,WeatherDisplay:10.37,2013-10-11 16:19:00,
2013-10-11 11:20:00,70.3,55.8,28.79,East,90,6.2,6.2,60,0.00,CLR,,0.00,WeatherDisplay:10.37,2013-10-11 16:20:00,
2013-10-11 11:21:00,70.3,55.8,28.79,SE,135,5.8,5.8,60,0.00,CLR,,0.00,WeatherDisplay:10.37,2013-10-11 16:21:00,
2013-10-11 11:22:00,70.5,55.5,28.79,ESE,112,4.9,4.9,59,0.00,CLR,,0.00,WeatherDisplay:10.37,2013-10-11 16:22:00,
2013-10-11 11:24:00,70.9,55.8,28.79,East,90,4.6,4.6,59,0.00,CLR,,0.00,WeatherDisplay:10.37,2013-10-11 16:24:00,
2013-10-11 11:26:00,71.6,56.0,28.79,SE,135,6.0,6.0,58,0.00,CLR,,0.00,WeatherDisplay:10.37,2013-10-11 16:26:00,
2013-10-11 11:27:00,71.6,56.0,28.79,SSE,158,5.8,5.8,58,0.00,CLR,,0.00,WeatherDisplay:10.37,2013-10-11 16:27:00,
2013-10-11 11:29:00,71.1,55.1,28.79,SSE,158,6.9,6.9,57,0.00,CLR,,0.00,WeatherDisplay:10.37,2013-10-11 16:29:00,
2013-10-11 11:30:00,71.1,55.1,28.79,South,180,4.6,4.6,57,0.00,CLR,,0.00,WeatherDisplay:10.37,2013-10-11 16:30:00,
2013-10-11 11:31:00,71.2,55.2,28.79,SSE,158,4.7,4.7,57,0.00,CLR,,0.00,WeatherDisplay:10.37,2013-10-11 16:31:00,
2013-10-11 11:32:00,71.4,54.9,28.79,ESE,112,5.8,5.8,56,0.00,CLR,,0.00,WeatherDisplay:10.37,2013-10-11 16:32:00,
2013-10-11 11:34:00,71.4,55.4,28.79,ESE,112,5.8,5.8,57,0.00,CLR,,0.00,WeatherDisplay:10.37,2013-10-11 16:34:00,
2013-10-11 11:35:00,71.4,54.9,28.79,SE,135,6.9,6.9,56,0.00,CLR,,0.00,WeatherDisplay:10.37,2013-10-11 16:35:00,
2013-10-11 11:36:00,71.1,54.1,28.79,South,180,13.0,13.0,55,0.00,CLR,,0.00,WeatherDisplay:10.37,2013-10-11 16:36:00,
2013-10-11 11:37:00,71.1,54.1,28.79,SSE,158,12.7,12.7,55,0.00,CLR,,0.00,WeatherDisplay:10.37,2013-10-11 16:37:00,
2013-10-11 11:38:00,71.2,54.2,28.79,SE,135,11.5,11.5,55,0.00,CLR,,0.00,WeatherDisplay:10.37,2013-10-11 16:38:00,
2013-10-11 11:39:00,71.4,54.9,28.79,East,90,4.6,4.6,56,0.00,CLR,,0.00,WeatherDisplay:10.37,2013-10-11 16:39:00,
2013-10-11 11:40:00,72.0,55.4,28.79,South,180,10.4,10.4,56,0.00,CLR,,0.00,WeatherDisplay:10.37,2013-10-11 16:40:00,
2013-10-11 11:42:00,72.0,54.9,28.79,SSE,158,6.4,6.4,55,0.00,CLR,,0.00,WeatherDisplay:10.37,2013-10-11 16:42:00,
2013-10-11 11:43:00,72.1,55.6,28.79,SSE,158,6.9,6.9,56,0.00,CLR,,0.00,WeatherDisplay:10.37,2013-10-11 16:43:00,
2013-10-11 11:44:00,72.1,55.1,28.79,SSE,158,6.9,6.9,55,0.00,CLR,,0.00,WeatherDisplay:10.37,2013-10-11 16:44:00,
2013-10-11 11:45:00,72.3,55.2,28.79,SE,135,6.9,6.9,55,0.00,CLR,,0.00,WeatherDisplay:10.37,2013-10-11 16:45:00,
2013-10-11 11:46:00,72.3,55.2,28.79,East,90,6.9,6.9,55,0.00,CLR,,0.00,WeatherDisplay:10.37,2013-10-11 16:46:00,
2013-10-11 11:48:00,72.0,53.9,28.79,SE,135,11.5,11.5,53,0.00,CLR,,0.00,WeatherDisplay:10.37,2013-10-11 16:48:00,
2013-10-11 11:49:00,72.1,54.6,28.79,South,180,6.9,6.9,54,0.00,CLR,,0.00,WeatherDisplay:10.37,2013-10-11 16:49:00,
2013-10-11 11:50:00,72.3,54.7,28.79,SE,135,9.7,9.7,54,0.00,CLR,,0.00,WeatherDisplay:10.37,2013-10-11 16:50:00,
2013-10-11 11:51:00,72.0,53.4,28.79,SSE,158,11.2,11.2,52,0.00,CLR,,0.00,WeatherDisplay:10.37,2013-10-11 16:51:00,
2013-10-11 11:53:00,72.0,53.9,28.79,South,180,8.1,8.1,53,0.00,CLR,,0.00,WeatherDisplay:10.37,2013-10-11 16:53:00,
2013-10-11 11:54:00,72.1,54.6,28.79,SE,135,7.8,7.8,54,0.00,CLR,,0.00,WeatherDisplay:10.37,2013-10-11 16:54:00,
2013-10-11 11:55:00,72.1,54.6,28.76,SE,135,8.7,8.7,54,0.00,CLR,,0.00,WeatherDisplay:10.37,2013-10-11 16:55:00,
2013-10-11 11:56:00,72.1,54.6,28.76,SSE,158,10.4,10.4,54,0.00,CLR,,0.00,WeatherDisplay:10.37,2013-10-11 16:56:00,
2013-10-11 11:58:00,71.6,53.6,28.76,SE,135,12.7,12.7,53,0.00,CLR,,0.00,WeatherDisplay:10.37,2013-10-11 16:58:00,
2013-10-11 11:59:00,71.8,54.2,28.76,South,180,8.1,8.1,54,0.00,CLR,,0.00,WeatherDisplay:10.37,2013-10-11 16:59:00,
2013-10-11 12:00:00,72.1,54.6,28.76,East,90,8.1,8.1,54,0.00,CLR,,0.00,WeatherDisplay:10.37,2013-10-11 17:00:00,
2013-10-11 12:01:00,72.1,54.6,28.76,ESE,112,5.8,5.8,54,0.00,CLR,,0.00,WeatherDisplay:10.37,2013-10-11 17:01:00,
2013-10-11 12:03:00,72.7,55.1,28.76,ESE,112,4.6,4.6,54,0.00,CLR,,0.00,WeatherDisplay:10.37,2013-10-11 17:03:00,
2013-10-11 12:05:00,72.5,53.9,28.76,SSE,158,6.9,6.9,52,0.00,CLR,,0.00,WeatherDisplay:10.37,2013-10-11 17:05:00,
2013-10-11 12:06:00,72.3,53.7,28.76,SSW,202,11.5,11.5,52,0.00,CLR,,0.00,WeatherDisplay:10.37,2013-10-11 17:06:00,
2013-10-11 12:08:00,72.7,55.1,28.76,South,180,12.7,12.7,54,0.00,CLR,,0.00,WeatherDisplay:10.37,2013-10-11 17:08:00,
2013-10-11 12:09:00,72.7,55.1,28.76,East,90,5.8,5.8,54,0.00,CLR,,0.00,WeatherDisplay:10.37,2013-10-11 17:09:00,
2013-10-11 12:10:00,72.7,55.1,28.76,SSE,158,10.7,10.7,54,0.00,CLR,,0.00,WeatherDisplay:10.37,2013-10-11 17:10:00,
2013-10-11 12:11:00,72.7,54.0,28.76,WSW,248,12.7,12.7,52,0.00,CLR,,0.00,WeatherDisplay:10.37,2013-10-11 17:11:00,
2013-10-11 12:14:00,72.3,52.6,28.76,SSE,158,15.4,15.4,50,0.00,CLR,,0.00,WeatherDisplay:10.37,2013-10-11 17:14:00,
2013-10-11 12:15:00,72.1,53.0,28.76,SSE,158,15.0,15.0,51,0.00,CLR,,0.00,WeatherDisplay:10.37,2013-10-11 17:15:00,
2013-10-11 12:16:00,72.1,53.0,28.76,SSE,158,17.3,17.3,51,0.00,CLR,,0.00,WeatherDisplay:10.37,2013-10-11 17:16:00,
2013-10-11 12:19:00,72.1,53.5,28.76,WSW,248,10.4,10.4,52,0.00,CLR,,0.00,WeatherDisplay:10.37,2013-10-11 17:19:00,
2013-10-11 12:20:00,72.5,52.8,28.76,SE,135,7.8,7.8,50,0.00,CLR,,0.00,WeatherDisplay:10.37,2013-10-11 17:20:00,
2013-10-11 12:21:00,72.5,52.8,28.76,SE,135,8.1,8.1,50,0.00,CLR,,0.00,WeatherDisplay:10.37,2013-10-11 17:21:00,
2013-10-11 12:24:00,72.5,53.3,28.73,South,180,12.7,12.7,51,0.00,CLR,,0.00,WeatherDisplay:10.37,2013-10-11 17:24:00,
2013-10-11 12:25:00,72.5,53.3,28.73,South,180,10.4,10.4,51,0.00,CLR,,0.00,WeatherDisplay:10.37,2013-10-11 17:25:00,
2013-10-11 12:26:00,72.5,53.3,28.73,SE,135,10.0,10.0,51,0.00,CLR,,0.00,WeatherDisplay:10.37,2013-10-11 17:26:00,
2013-10-11 12:27:00,72.3,53.2,28.73,SE,135,12.8,12.8,51,0.00,CLR,,0.00,WeatherDisplay:10.37,2013-10-11 17:27:00,
2013-10-11 12:29:00,72.6,53.5,28.73,SSE,160,6.0,14.0,51,0.00,CLR,,0.00,WeatherDisplay:10.37,2013-10-11 17:29:00,
2013-10-11 12:30:00,72.7,53.5,28.73,SE,135,9.2,9.2,51,0.00,CLR,,0.00,WeatherDisplay:10.37,2013-10-11 17:30:00,
2013-10-11 12:31:00,72.9,53.7,28.73,SSE,158,10.4,10.4,51,0.00,CLR,,0.00,WeatherDisplay:10.37,2013-10-11 17:31:00,
2013-10-11 12:32:00,72.9,53.7,28.73,SSE,158,10.4,10.4,51,0.00,CLR,,0.00,WeatherDisplay:10.37,2013-10-11 17:32:00,
2013-10-11 12:34:00,72.9,53.7,28.73,SSE,159,7.0,10.0,51,0.00,CLR,,0.00,WeatherDisplay:10.37,2013-10-11 17:34:00,
2013-10-11 12:35:00,72.9,53.7,28.73,SSW,202,14.5,14.5,51,0.00,CLR,,0.00,WeatherDisplay:10.37,2013-10-11 17:35:00,
2013-10-11 12:37:00,73.0,53.8,28.73,SSE,158,11.5,11.5,51,0.00,CLR,,0.00,WeatherDisplay:10.37,2013-10-11 17:37:00,
2013-10-11 12:40:00,73.2,53.5,28.73,SSE,158,10.2,10.2,50,0.00,CLR,,0.00,WeatherDisplay:10.37,2013-10-11 17:40:00,
2013-10-11 12:41:00,72.9,52.6,28.73,SSE,158,12.7,12.7,49,0.00,CLR,,0.00,WeatherDisplay:10.37,2013-10-11 17:41:00,
2013-10-11 12:42:00,73.0,53.3,28.73,SE,135,9.2,10.0,50,0.00,CLR,,0.00,WeatherDisplay:10.37,2013-10-11 17:42:00,
2013-10-11 12:45:00,73.4,53.1,28.73,SSE,158,12.7,12.7,49,0.00,CLR,,0.00,WeatherDisplay:10.37,2013-10-11 17:45:00,
2013-10-11 12:46:00,73.4,52.5,28.73,SSW,202,13.8,13.8,48,0.00,CLR,,0.00,WeatherDisplay:10.37,2013-10-11 17:46:00,
2013-10-11 12:47:00,73.0,52.2,28.73,SSE,158,15.0,15.0,48,0.00,CLR,,0.00,WeatherDisplay:10.37,2013-10-11 17:47:00,
2013-10-11 12:48:00,73.0,52.2,28.73,SSW,202,23.0,23.0,48,0.00,CLR,,0.00,WeatherDisplay:10.37,2013-10-11 17:48:00,
2013-10-11 12:50:00,72.9,52.6,28.73,ESE,112,15.0,15.0,49,0.00,CLR,,0.00,WeatherDisplay:10.37,2013-10-11 17:50:00,
2013-10-11 12:51:00,72.9,53.1,28.73,SSW,202,15.0,15.0,50,0.00,CLR,,0.00,WeatherDisplay:10.37,2013-10-11 17:51:00,
2013-10-11 12:52:00,72.9,53.1,28.73,SE,135,17.3,17.3,50,0.00,CLR,,0.00,WeatherDisplay:10.37,2013-10-11 17:52:00,
2013-10-11 12:53:00,72.9,53.1,28.73,SSE,158,12.8,12.8,50,0.00,CLR,,0.00,WeatherDisplay:10.37,2013-10-11 17:53:00,
2013-10-11 12:54:00,72.5,52.8,28.73,SSE,158,21.0,21.0,50,0.00,CLR,,0.00,WeatherDisplay:10.37,2013-10-11 17:54:00,
2013-10-11 12:55:00,72.3,52.1,28.73,South,180,20.7,20.7,49,0.00,CLR,,0.00,WeatherDisplay:10.37,2013-10-11 17:55:00,
2013-10-11 12:56:00,72.3,52.1,28.73,SSE,158,15.2,15.2,49,0.00,CLR,,0.00,WeatherDisplay:10.37,2013-10-11 17:56:00,
2013-10-11 12:57:00,72.3,52.1,28.73,South,180,21.9,21.9,49,0.00,CLR,,0.00,WeatherDisplay:10.37,2013-10-11 17:57:00,
2013-10-11 12:58:00,72.5,52.8,28.73,SSE,158,12.7,13.2,50,0.00,CLR,,0.00,WeatherDisplay:10.37,2013-10-11 17:58:00,
2013-10-11 12:59:00,72.1,51.9,28.73,SW,225,13.0,13.0,49,0.00,CLR,,0.00,WeatherDisplay:10.37,2013-10-11 17:59:00,
2013-10-11 13:00:00,72.1,51.9,28.73,SSE,158,24.2,24.2,49,0.00,CLR,,0.00,WeatherDisplay:10.37,2013-10-11 18:00:00,
2013-10-11 13:01:00,72.3,52.6,28.73,North,0,24.2,24.2,50,0.00,CLR,,0.00,WeatherDisplay:10.37,2013-10-11 18:01:00,
2013-10-11 13:02:00,72.3,52.6,28.73,South,180,15.0,15.0,50,0.00,CLR,,0.00,WeatherDisplay:10.37,2013-10-11 18:02:00,
2013-10-11 13:03:00,72.0,51.8,28.73,SE,135,12.7,12.7,49,0.00,CLR,,0.00,WeatherDisplay:10.37,2013-10-11 18:03:00,
2013-10-11 13:04:00,72.0,51.8,28.73,South,180,12.7,12.7,49,0.00,CLR,,0.00,WeatherDisplay:10.37,2013-10-11 18:04:00,
2013-10-11 13:05:00,72.5,52.8,28.73,South,180,8.1,8.1,50,0.00,CLR,,0.00,WeatherDisplay:10.37,2013-10-11 18:05:00,
2013-10-11 13:07:00,72.5,52.2,28.73,SSE,158,13.8,13.8,49,0.00,CLR,,0.00,WeatherDisplay:10.37,2013-10-11 18:07:00,
2013-10-11 13:08:00,72.1,52.5,28.73,SE,135,11.5,11.5,50,0.00,CLR,,0.00,WeatherDisplay:10.37,2013-10-11 18:08:00,
2013-10-11 13:09:00,72.1,52.5,28.73,SE,135,20.7,20.7,50,0.00,CLR,,0.00,WeatherDisplay:10.37,2013-10-11 18:09:00,
2013-10-11 13:10:00,72.0,52.3,28.73,East,90,11.5,11.8,50,0.00,CLR,,0.00,WeatherDisplay:10.37,2013-10-11 18:10:00,
2013-10-11 13:12:00,72.1,52.5,28.73,SE,135,13.0,13.0,50,0.00,CLR,,0.00,WeatherDisplay:10.37,2013-10-11 18:12:00,
2013-10-11 13:13:00,72.0,52.3,28.73,SSE,158,19.0,19.0,50,0.00,CLR,,0.00,WeatherDisplay:10.37,2013-10-11 18:13:00,
2013-10-11 13:14:00,72.0,52.3,28.73,SSE,158,24.2,24.2,50,0.00,CLR,,0.00,WeatherDisplay:10.37,2013-10-11 18:14:00,
2013-10-11 13:15:00,72.0,52.8,28.73,ESE,112,18.4,18.4,51,0.00,CLR,,0.00,WeatherDisplay:10.37,2013-10-11 18:15:00,
2013-10-11 13:17:00,72.0,52.8,28.73,SE,135,12.7,12.7,51,0.00,CLR,,0.00,WeatherDisplay:10.37,2013-10-11 18:17:00,
2013-10-11 13:18:00,72.0,52.8,28.73,ESE,112,12.7,12.7,51,0.00,CLR,,0.00,WeatherDisplay:10.37,2013-10-11 18:18:00,
2013-10-11 13:19:00,72.9,53.7,28.73,SW,225,11.5,11.5,51,0.00,CLR,,0.00,WeatherDisplay:10.37,2013-10-11 18:19:00,
2013-10-11 13:20:00,73.2,53.5,28.73,SSE,158,11.5,11.5,50,0.00,CLR,,0.00,WeatherDisplay:10.37,2013-10-11 18:20:00,
2013-10-11 13:21:00,73.4,53.6,28.73,SSW,202,15.0,15.0,50,0.00,CLR,,0.00,WeatherDisplay:10.37,2013-10-11 18:21:00,
2013-10-11 13:22:00,73.6,53.8,28.73,SSE,158,10.0,10.0,50,0.00,CLR,,0.00,WeatherDisplay:10.37,2013-10-11 18:22:00,
2013-10-11 13:23:00,73.6,52.7,28.73,ESE,112,16.1,16.1,48,0.00,CLR,,0.00,WeatherDisplay:10.37,2013-10-11 18:23:00,
2013-10-11 13:24:00,73.4,52.5,28.73,SSE,158,13.8,13.8,48,0.00,CLR,,0.00,WeatherDisplay:10.37,2013-10-11 18:24:00,
2013-10-11 13:26:00,73.6,53.2,28.70,ESE,112,13.0,13.0,49,0.00,CLR,,0.00,WeatherDisplay:10.37,2013-10-11 18:26:00,
2013-10-11 13:27:00,73.2,52.3,28.70,ESE,112,16.1,16.1,48,0.00,CLR,,0.00,WeatherDisplay:10.37,2013-10-11 18:27:00,
2013-10-11 13:28:00,73.0,52.2,28.70,SE,135,13.0,13.0,48,0.00,CLR,,0.00,WeatherDisplay:10.37,2013-10-11 18:28:00,
2013-10-11 13:29:00,73.0,52.2,28.70,SSE,158,12.7,12.7,48,0.00,CLR,,0.00,WeatherDisplay:10.37,2013-10-11 18:29:00,
2013-10-11 13:31:00,73.0,52.2,28.70,SE,135,17.3,17.3,48,0.00,CLR,,0.00,WeatherDisplay:10.37,2013-10-11 18:31:00,
2013-10-11 13:32:00,73.0,52.7,28.70,ENE,68,11.5,11.5,49,0.00,CLR,,0.00,WeatherDisplay:10.37,2013-10-11 18:32:00,
2013-10-11 13:33:00,73.2,53.5,28.70,SSW,202,13.8,13.8,50,0.00,CLR,,0.00,WeatherDisplay:10.37,2013-10-11 18:33:00,
2013-10-11 13:34:00,73.2,52.3,28.70,South,180,18.4,18.4,48,0.00,CLR,,0.00,WeatherDisplay:10.37,2013-10-11 18:34:00,
2013-10-11 13:35:00,73.2,52.3,28.70,SSE,158,21.9,21.9,48,0.00,CLR,,0.00,WeatherDisplay:10.37,2013-10-11 18:35:00,
2013-10-11 13:36:00,73.2,52.3,28.70,SE,135,21.9,21.9,48,0.00,CLR,,0.00,WeatherDisplay:10.37,2013-10-11 18:36:00,
2013-10-11 13:37:00,72.9,52.0,28.70,SSW,202,12.7,12.7,48,0.00,CLR,,0.00,WeatherDisplay:10.37,2013-10-11 18:37:00,
2013-10-11 13:38:00,72.9,52.0,28.70,SSE,158,19.6,19.6,48,0.00,CLR,,0.00,WeatherDisplay:10.37,2013-10-11 18:38:00,
2013-10-11 13:39:00,73.0,52.7,28.70,SSE,158,23.0,23.0,49,0.00,CLR,,0.00,WeatherDisplay:10.37,2013-10-11 18:39:00,
2013-10-11 13:40:00,73.0,52.7,28.70,SSE,158,13.8,13.8,49,0.00,CLR,,0.00,WeatherDisplay:10.37,2013-10-11 18:40:00,
2013-10-11 13:42:00,73.0,52.2,28.70,SE,135,16.1,16.1,48,0.00,CLR,,0.00,WeatherDisplay:10.37,2013-10-11 18:42:00,
2013-10-11 13:43:00,72.9,52.6,28.70,South,180,15.9,15.9,49,0.00,CLR,,0.00,WeatherDisplay:10.37,2013-10-11 18:43:00,
2013-10-11 13:45:00,72.7,53.0,28.70,SSE,158,16.1,16.1,50,0.00,CLR,,0.00,WeatherDisplay:10.37,2013-10-11 18:45:00,
2013-10-11 13:47:00,72.5,53.3,28.70,SSE,158,6.9,7.4,51,0.00,CLR,,0.00,WeatherDisplay:10.37,2013-10-11 18:47:00,
2013-10-11 13:48:00,72.5,53.3,28.70,SSE,158,10.4,10.4,51,0.00,CLR,,0.00,WeatherDisplay:10.37,2013-10-11 18:48:00,
2013-10-11 13:50:00,72.5,52.8,28.70,SE,135,17.3,17.3,50,0.00,CLR,,0.00,WeatherDisplay:10.37,2013-10-11 18:50:00,
2013-10-11 13:51:00,72.1,52.5,28.70,SSE,158,11.5,11.5,50,0.00,CLR,,0.00,WeatherDisplay:10.37,2013-10-11 18:51:00,
2013-10-11 13:52:00,72.1,53.0,28.70,ESE,112,13.8,13.8,51,0.00,CLR,,0.00,WeatherDisplay:10.37,2013-10-11 18:52:00,
2013-10-11 13:53:00,72.1,53.0,28.70,SE,135,12.7,12.7,51,0.00,CLR,,0.00,WeatherDisplay:10.37,2013-10-11 18:53:00,
2013-10-11 13:55:00,72.1,53.0,28.70,South,180,8.1,8.1,51,0.00,CLR,,0.00,WeatherDisplay:10.37,2013-10-11 18:55:00,
2013-10-11 13:56:00,72.3,52.6,28.70,SSE,158,13.8,13.8,50,0.00,CLR,,0.00,WeatherDisplay:10.37,2013-10-11 18:56:00,
2013-10-11 13:57:00,72.3,52.6,28.70,ESE,112,15.2,15.2,50,0.00,CLR,,0.00,WeatherDisplay:10.37,2013-10-11 18:57:00,
2013-10-11 13:58:00,73.2,53.5,28.70,SSE,158,16.1,16.1,50,0.00,CLR,,0.00,WeatherDisplay:10.37,2013-10-11 18:58:00,
2013-10-11 14:00:00,73.6,53.8,28.70,South,180,10.4,10.4,50,0.00,CLR,,0.00,WeatherDisplay:10.37,2013-10-11 19:00:00,
2013-10-11 14:01:00,73.9,53.6,28.70,East,90,10.7,10.7,49,0.00,CLR,,0.00,WeatherDisplay:10.37,2013-10-11 19:01:00,
2013-10-11 14:03:00,73.9,51.8,28.70,SSE,158,15.2,15.2,46,0.00,CLR,,0.00,WeatherDisplay:10.37,2013-10-11 19:03:00,
2013-10-11 14:05:00,73.6,50.9,28.70,SE,135,16.3,16.3,45,0.00,CLR,,0.00,WeatherDisplay:10.37,2013-10-11 19:05:00,
2013-10-11 14:06:00,73.4,50.8,28.70,ENE,68,17.3,17.3,45,0.00,CLR,,0.00,WeatherDisplay:10.37,2013-10-11 19:06:00,
2013-10-11 14:08:00,73.4,51.4,28.70,SSE,158,12.7,12.7,46,0.00,CLR,,0.00,WeatherDisplay:10.37,2013-10-11 19:08:00,
2013-10-11 14:10:00,73.6,51.5,28.67,SSE,158,17.3,17.3,46,0.00,CLR,,0.00,WeatherDisplay:10.37,2013-10-11 19:10:00,
2013-10-11 14:11:00,73.6,50.9,28.67,South,180,16.1,16.1,45,0.00,CLR,,0.00,WeatherDisplay:10.37,2013-10-11 19:11:00,
2013-10-11 14:13:00,73.8,51.1,28.67,SSE,158,26.5,26.5,45,0.00,CLR,,0.00,WeatherDisplay:10.37,2013-10-11 19:13:00,
2013-10-11 14:15:00,73.6,50.9,28.67,SSW,202,25.3,25.3,45,0.00,CLR,,0.00,WeatherDisplay:10.37,2013-10-11 19:15:00,
2013-10-11 14:16:00,73.8,51.1,28.67,South,180,17.3,17.3,45,0.00,CLR,,0.00,WeatherDisplay:10.37,2013-10-11 19:16:00,
2013-10-11 14:17:00,73.9,51.3,28.67,SE,135,8.1,8.1,45,0.00,CLR,,0.00,WeatherDisplay:10.37,2013-10-11 19:17:00,
2013-10-11 14:18:00,74.1,51.4,28.67,SSE,158,12.1,12.1,45,0.00,CLR,,0.00,WeatherDisplay:10.37,2013-10-11 19:18:00,
2013-10-11 14:19:00,74.1,51.4,28.67,ENE,68,11.5,11.5,45,0.00,CLR,,0.00,WeatherDisplay:10.37,2013-10-11 19:19:00,
2013-10-11 14:20:00,74.3,52.2,28.67,SE,135,10.4,10.4,46,0.00,CLR,,0.00,WeatherDisplay:10.37,2013-10-11 19:20:00,
2013-10-11 14:21:00,74.1,52.0,28.67,South,180,10.4,10.4,46,0.00,CLR,,0.00,WeatherDisplay:10.37,2013-10-11 19:21:00,
2013-10-11 14:22:00,74.1,52.0,28.67,SSE,158,10.4,10.4,46,0.00,CLR,,0.00,WeatherDisplay:10.37,2013-10-11 19:22:00,
2013-10-11 14:24:00,74.1,52.6,28.67,South,180,9.2,9.2,47,0.00,CLR,,0.00,WeatherDisplay:10.37,2013-10-11 19:24:00,
2013-10-11 14:25:00,73.4,51.4,28.67,SSW,202,13.8,13.8,46,0.00,CLR,,0.00,WeatherDisplay:10.37,2013-10-11 19:25:00,
2013-10-11 14:26:00,73.4,51.4,28.67,SSE,158,19.6,19.6,46,0.00,CLR,,0.00,WeatherDisplay:10.37,2013-10-11 19:26:00,
2013-10-11 14:27:00,73.4,51.4,28.67,South,180,20.7,20.7,46,0.00,CLR,,0.00,WeatherDisplay:10.37,2013-10-11 19:27:00,
2013-10-11 14:28:00,73.4,51.4,28.67,SSE,158,16.1,16.1,46,0.00,CLR,,0.00,WeatherDisplay:10.37,2013-10-11 19:28:00,
2013-10-11 14:29:00,73.8,51.1,28.67,SSE,158,17.5,17.5,45,0.00,CLR,,0.00,WeatherDisplay:10.37,2013-10-11 19:29:00,
2013-10-11 14:31:00,73.8,51.1,28.67,SSE,158,18.4,18.4,45,0.00,CLR,,0.00,WeatherDisplay:10.37,2013-10-11 19:31:00,
2013-10-11 14:32:00,73.8,51.1,28.67,South,180,14.7,14.7,45,0.00,CLR,,0.00,WeatherDisplay:10.37,2013-10-11 19:32:00,
2013-10-11 14:33:00,73.8,51.1,28.67,SSE,158,15.0,15.0,45,0.00,CLR,,0.00,WeatherDisplay:10.37,2013-10-11 19:33:00,
2013-10-11 14:34:00,73.8,51.1,28.67,SSW,202,8.1,8.1,45,0.00,CLR,,0.00,WeatherDisplay:10.37,2013-10-11 19:34:00,
2013-10-11 14:36:00,74.3,51.0,28.67,SSE,158,11.5,11.5,44,0.00,CLR,,0.00,WeatherDisplay:10.37,2013-10-11 19:36:00,
2013-10-11 14:37:00,74.3,50.4,28.67,SSE,158,10.4,11.4,43,0.00,CLR,,0.00,WeatherDisplay:10.37,2013-10-11 19:37:00,
2013-10-11 14:38:00,74.3,50.4,28.67,South,180,10.4,11.4,43,0.00,CLR,,0.00,WeatherDisplay:10.37,2013-10-11 19:38:00,
2013-10-11 14:39:00,74.3,50.4,28.67,South,180,8.1,8.1,43,0.00,CLR,,0.00,WeatherDisplay:10.37,2013-10-11 19:39:00,
2013-10-11 14:42:00,74.5,51.1,28.67,SSE,158,25.3,25.3,44,0.00,CLR,,0.00,WeatherDisplay:10.37,2013-10-11 19:42:00,
2013-10-11 14:43:00,74.5,51.1,28.67,SSW,202,12.7,12.7,44,0.00,CLR,,0.00,WeatherDisplay:10.37,2013-10-11 19:43:00,
2013-10-11 14:44:00,74.5,51.1,28.67,ESE,112,16.1,16.1,44,0.00,CLR,,0.00,WeatherDisplay:10.37,2013-10-11 19:44:00,
2013-10-11 14:47:00,74.1,50.2,28.67,WNW,292,21.9,21.9,43,0.00,CLR,,0.00,WeatherDisplay:10.37,2013-10-11 19:47:00,
2013-10-11 14:48:00,73.8,50.5,28.67,NNE,22,19.6,19.6,44,0.00,CLR,,0.00,WeatherDisplay:10.37,2013-10-11 19:48:00,
2013-10-11 14:49:00,73.8,50.5,28.67,SW,225,12.3,12.3,44,0.00,CLR,,0.00,WeatherDisplay:10.37,2013-10-11 19:49:00,
2013-10-11 14:52:00,73.8,49.2,28.67,SW,225,20.7,20.7,42,0.00,CLR,,0.00,WeatherDisplay:10.37,2013-10-11 19:52:00,
2013-10-11 14:54:00,73.8,49.2,28.67,SSE,158,13.0,13.0,42,0.00,CLR,,0.00,WeatherDisplay:10.37,2013-10-11 19:54:00,
2013-10-11 14:57:00,73.6,49.7,28.67,SSE,158,26.5,26.5,43,0.00,CLR,,0.00,WeatherDisplay:10.37,2013-10-11 19:57:00,
2013-10-11 14:58:00,73.6,49.7,28.67,South,180,17.3,17.3,43,0.00,CLR,,0.00,WeatherDisplay:10.37,2013-10-11 19:58:00,
2013-10-11 14:59:00,73.6,49.7,28.67,South,180,10.4,10.4,43,0.00,CLR,,0.00,WeatherDisplay:10.37,2013-10-11 19:59:00,
2013-10-11 15:02:00,74.3,51.0,28.67,SSE,158,12.7,12.7,44,0.00,CLR,,0.00,WeatherDisplay:10.37,2013-10-11 20:02:00,
2013-10-11 15:03:00,74.3,51.0,28.67,SSE,158,12.7,12.7,44,0.00,CLR,,0.00,WeatherDisplay:10.37,2013-10-11 20:03:00,
2013-10-11 15:04:00,74.3,51.0,28.67,ESE,112,17.3,17.3,44,0.00,CLR,,0.00,WeatherDisplay:10.37,2013-10-11 20:04:00,
2013-10-11 15:05:00,74.1,50.2,28.67,SE,135,17.3,17.3,43,0.00,CLR,,0.00,WeatherDisplay:10.37,2013-10-11 20:05:00,
2013-10-11 15:07:00,74.3,50.4,28.67,SSW,202,21.9,21.9,43,0.00,CLR,,0.00,WeatherDisplay:10.37,2013-10-11 20:07:00,
2013-10-11 15:08:00,74.5,50.5,28.67,SSE,158,10.5,11.8,43,0.00,CLR,,0.00,WeatherDisplay:10.37,2013-10-11 20:08:00,
2013-10-11 15:09:00,74.5,50.5,28.67,SSE,158,10.7,10.7,43,0.00,CLR,,0.00,WeatherDisplay:10.37,2013-10-11 20:09:00,
2013-10-11 15:10:00,74.5,50.5,28.67,SSE,158,10.4,10.4,43,0.00,CLR,,0.00,WeatherDisplay:10.37,2013-10-11 20:10:00,
2013-10-11 15:12:00,74.7,50.0,28.67,SSE,158,16.1,16.1,42,0.00,CLR,,0.00,WeatherDisplay:10.37,2013-10-11 20:12:00,
2013-10-11 15:13:00,74.7,50.0,28.67,South,180,16.8,16.8,42,0.00,CLR,,0.00,WeatherDisplay:10.37,2013-10-11 20:13:00,
2013-10-11 15:14:00,74.3,49.1,28.67,South,180,23.0,23.0,41,0.00,CLR,,0.00,WeatherDisplay:10.37,2013-10-11 20:14:00,
2013-10-11 15:15:00,74.3,49.1,28.67,SSE,158,23.0,23.0,41,0.00,CLR,,0.00,WeatherDisplay:10.37,2013-10-11 20:15:00,
2013-10-11 15:16:00,74.3,49.1,28.67,SSE,158,26.5,26.5,41,0.00,CLR,,0.00,WeatherDisplay:10.37,2013-10-11 20:16:00,
2013-10-11 15:18:00,74.3,50.4,28.67,SSE,158,9.2,11.4,43,0.00,CLR,,0.00,WeatherDisplay:10.37,2013-10-11 20:18:00,
2013-10-11 15:19:00,74.3,50.4,28.67,SSE,158,12.8,12.8,43,0.00,CLR,,0.00,WeatherDisplay:10.37,2013-10-11 20:19:00,
2013-10-11 15:21:00,74.5,50.5,28.67,South,180,17.3,17.3,43,0.00,CLR,,0.00,WeatherDisplay:10.37,2013-10-11 20:21:00,
2013-10-11 15:23:00,74.3,49.7,28.67,South,180,15.0,15.0,42,0.00,CLR,,0.00,WeatherDisplay:10.37,2013-10-11 20:23:00,
2013-10-11 15:24:00,74.1,50.2,28.64,South,180,18.4,18.4,43,0.00,CLR,,0.00,WeatherDisplay:10.37,2013-10-11 20:24:00,
2013-10-11 15:27:00,74.3,50.4,28.64,SSE,158,12.8,12.8,43,0.00,CLR,,0.00,WeatherDisplay:10.37,2013-10-11 20:27:00,
2013-10-11 15:28:00,74.7,51.9,28.64,SE,135,12.7,12.7,45,0.00,CLR,,0.00,WeatherDisplay:10.37,2013-10-11 20:28:00,
2013-10-11 15:29:00,74.7,51.9,28.64,SSE,158,10.2,10.2,45,0.00,CLR,,0.00,WeatherDisplay:10.37,2013-10-11 20:29:00,
2013-10-11 15:30:00,74.7,51.9,28.64,SSE,158,12.7,12.7,45,0.00,CLR,,0.00,WeatherDisplay:10.37,2013-10-11 20:30:00,
2013-10-11 15:32:00,74.7,51.3,28.64,SSE,158,21.9,21.9,44,0.00,CLR,,0.00,WeatherDisplay:10.37,2013-10-11 20:32:00,
2013-10-11 15:33:00,74.3,50.4,28.64,SSW,202,13.8,13.8,43,0.00,CLR,,0.00,WeatherDisplay:10.37,2013-10-11 20:33:00,
2013-10-11 15:34:00,74.3,50.4,28.64,SE,135,17.3,17.3,43,0.00,CLR,,0.00,WeatherDisplay:10.37,2013-10-11 20:34:00,
2013-10-11 15:35:00,74.3,50.4,28.64,South,180,17.3,17.3,43,0.00,CLR,,0.00,WeatherDisplay:10.37,2013-10-11 20:35:00,
2013-10-11 15:37:00,74.3,50.4,28.64,ESE,112,17.8,17.8,43,0.00,CLR,,0.00,WeatherDisplay:10.37,2013-10-11 20:37:00,
2013-10-11 15:38:00,73.9,50.0,28.64,SSW,202,19.2,19.2,43,0.00,CLR,,0.00,WeatherDisplay:10.37,2013-10-11 20:38:00,
2013-10-11 15:39:00,73.6,49.7,28.64,SE,135,19.6,19.6,43,0.00,CLR,,0.00,WeatherDisplay:10.37,2013-10-11 20:39:00,
2013-10-11 15:40:00,73.6,49.7,28.64,SSW,202,17.3,17.3,43,0.00,CLR,,0.00,WeatherDisplay:10.37,2013-10-11 20:40:00,
2013-10-11 15:42:00,73.2,50.0,28.64,South,180,26.5,26.5,44,0.00,CLR,,0.00,WeatherDisplay:10.37,2013-10-11 20:42:00,
2013-10-11 15:43:00,73.0,49.8,28.64,SSE,158,15.0,15.0,44,0.00,CLR,,0.00,WeatherDisplay:10.37,2013-10-11 20:43:00,
2013-10-11 15:44:00,73.0,49.8,28.64,SSE,158,19.9,19.9,44,0.00,CLR,,0.00,WeatherDisplay:10.37,2013-10-11 20:44:00,
2013-10-11 15:45:00,73.2,50.0,28.64,SSE,158,19.6,19.6,44,0.00,CLR,,0.00,WeatherDisplay:10.37,2013-10-11 20:45:00,
2013-10-11 15:46:00,73.2,50.0,28.64,SSE,158,16.1,16.1,44,0.00,CLR,,0.00,WeatherDisplay:10.37,2013-10-11 20:46:00,
2013-10-11 15:47:00,73.4,50.2,28.64,South,180,12.7,12.7,44,0.00,CLR,,0.00,WeatherDisplay:10.37,2013-10-11 20:47:00,
2013-10-11 15:49:00,73.4,49.5,28.64,East,90,19.6,19.6,43,0.00,CLR,,0.00,WeatherDisplay:10.37,2013-10-11 20:49:00,
2013-10-11 15:50:00,73.4,49.5,28.64,SSE,158,13.8,13.8,43,0.00,CLR,,0.00,WeatherDisplay:10.37,2013-10-11 20:50:00,
2013-10-11 15:51:00,73.6,49.7,28.64,SSE,158,13.8,13.8,43,0.00,CLR,,0.00,WeatherDisplay:10.37,2013-10-11 20:51:00,
2013-10-11 15:52:00,73.6,49.7,28.64,SSE,158,15.0,15.0,43,0.00,CLR,,0.00,WeatherDisplay:10.37,2013-10-11 20:52:00,
2013-10-11 15:54:00,73.8,49.9,28.64,SSE,158,11.5,12.8,43,0.00,CLR,,0.00,WeatherDisplay:10.37,2013-10-11 20:54:00,
2013-10-11 15:55:00,73.8,49.9,28.64,SSE,158,10.4,10.4,43,0.00,CLR,,0.00,WeatherDisplay:10.37,2013-10-11 20:55:00,
2013-10-11 15:56:00,73.9,50.0,28.64,South,180,15.0,15.0,43,0.00,CLR,,0.00,WeatherDisplay:10.37,2013-10-11 20:56:00,
2013-10-11 15:58:00,73.9,50.0,28.64,SSE,158,18.4,18.4,43,0.00,CLR,,0.00,WeatherDisplay:10.37,2013-10-11 20:58:00,
2013-10-11 15:59:00,73.9,50.0,28.64,SE,135,17.3,17.3,43,0.00,CLR,,0.00,WeatherDisplay:10.37,2013-10-11 20:59:00,
2013-10-11 16:00:00,74.1,50.2,28.64,SSE,158,10.4,10.4,43,0.00,CLR,,0.00,WeatherDisplay:10.37,2013-10-11 21:00:00,
2013-10-11 16:01:00,73.9,50.0,28.64,SSW,202,12.7,12.7,43,0.00,CLR,,0.00,WeatherDisplay:10.37,2013-10-11 21:01:00,
2013-10-11 16:02:00,73.9,50.0,28.64,South,180,17.3,17.3,43,0.00,CLR,,0.00,WeatherDisplay:10.37,2013-10-11 21:02:00,
2013-10-11 16:03:00,73.9,50.6,28.64,SSE,158,17.3,17.3,44,0.00,CLR,,0.00,WeatherDisplay:10.37,2013-10-11 21:03:00,
2013-10-11 16:04:00,73.8,49.9,28.64,South,180,15.0,15.0,43,0.00,CLR,,0.00,WeatherDisplay:10.37,2013-10-11 21:04:00,
2013-10-11 16:05:00,73.9,50.6,28.64,South,180,10.4,10.4,44,0.00,CLR,,0.00,WeatherDisplay:10.37,2013-10-11 21:05:00,
2013-10-11 16:06:00,73.9,50.6,28.64,SSE,158,12.7,12.7,44,0.00,CLR,,0.00,WeatherDisplay:10.37,2013-10-11 21:06:00,
2013-10-11 16:07:00,74.1,50.8,28.64,SE,135,10.4,10.4,44,0.00,CLR,,0.00,WeatherDisplay:10.37,2013-10-11 21:07:00,
2013-10-11 16:08:00,74.1,50.8,28.64,ESE,112,13.8,13.8,44,0.00,CLR,,0.00,WeatherDisplay:10.37,2013-10-11 21:08:00,
2013-10-11 16:09:00,74.1,50.8,28.64,ESE,112,9.2,9.2,44,0.00,CLR,,0.00,WeatherDisplay:10.37,2013-10-11 21:09:00,
2013-10-11 16:10:00,74.1,50.8,28.64,WSW,248,15.0,15.0,44,0.00,CLR,,0.00,WeatherDisplay:10.37,2013-10-11 21:10:00,
2013-10-11 16:11:00,74.1,50.8,28.64,South,180,15.0,15.0,44,0.00,CLR,,0.00,WeatherDisplay:10.37,2013-10-11 21:11:00,
2013-10-11 16:13:00,74.3,51.0,28.64,South,180,9.8,9.8,44,0.00,CLR,,0.00,WeatherDisplay:10.37,2013-10-11 21:13:00,
2013-10-11 16:15:00,74.3,51.0,28.64,South,180,13.0,13.0,44,0.00,CLR,,0.00,WeatherDisplay:10.37,2013-10-11 21:15:00,
2013-10-11 16:16:00,74.1,50.8,28.64,SSE,158,12.7,12.7,44,0.00,CLR,,0.00,WeatherDisplay:10.37,2013-10-11 21:16:00,
2013-10-11 16:18:00,74.1,50.8,28.64,South,180,6.9,6.9,44,0.00,CLR,,0.00,WeatherDisplay:10.37,2013-10-11 21:18:00,
2013-10-11 16:19:00,74.1,50.8,28.64,SSE,158,15.2,15.2,44,0.00,CLR,,0.00,WeatherDisplay:10.37,2013-10-11 21:19:00,
2013-10-11 16:21:00,74.1,50.8,28.64,SSE,158,9.2,9.2,44,0.00,CLR,,0.00,WeatherDisplay:10.37,2013-10-11 21:21:00,
2013-10-11 16:22:00,74.1,50.8,28.64,SSE,158,8.1,8.1,44,0.00,CLR,,0.00,WeatherDisplay:10.37,2013-10-11 21:22:00,
2013-10-11 16:23:00,74.1,50.8,28.64,South,180,12.7,12.7,44,0.00,CLR,,0.00,WeatherDisplay:10.37,2013-10-11 21:23:00,
2013-10-11 16:24:00,74.1,50.2,28.64,SE,135,10.5,10.5,43,0.00,CLR,,0.00,WeatherDisplay:10.37,2013-10-11 21:24:00,
2013-10-11 16:26:00,74.1,50.2,28.64,South,180,10.4,10.4,43,0.00,CLR,,0.00,WeatherDisplay:10.37,2013-10-11 21:26:00,
2013-10-11 16:27:00,74.1,50.2,28.64,SSE,158,10.4,10.4,43,0.00,CLR,,0.00,WeatherDisplay:10.37,2013-10-11 21:27:00,
2013-10-11 16:28:00,74.3,50.4,28.64,SSE,158,12.8,12.8,43,0.00,CLR,,0.00,WeatherDisplay:10.37,2013-10-11 21:28:00,
2013-10-11 16:29:00,74.1,50.2,28.64,ESE,112,17.3,17.3,43,0.00,CLR,,0.00,WeatherDisplay:10.37,2013-10-11 21:29:00,
2013-10-11 16:32:00,73.9,50.0,28.64,SE,135,13.8,13.8,43,0.00,CLR,,0.00,WeatherDisplay:10.37,2013-10-11 21:32:00,
2013-10-11 16:33:00,73.9,50.0,28.64,South,180,12.7,12.7,43,0.00,CLR,,0.00,WeatherDisplay:10.37,2013-10-11 21:33:00,
2013-10-11 16:34:00,73.9,50.0,28.64,SE,135,10.4,10.4,43,0.00,CLR,,0.00,WeatherDisplay:10.37,2013-10-11 21:34:00,
2013-10-11 16:37:00,74.1,50.2,28.64,SSE,158,10.7,10.7,43,0.00,CLR,,0.00,WeatherDisplay:10.37,2013-10-11 21:37:00,
2013-10-11 16:38:00,73.9,50.6,28.64,ESE,112,15.0,15.0,44,0.00,CLR,,0.00,WeatherDisplay:10.37,2013-10-11 21:38:00,
2013-10-11 16:39:00,73.9,50.0,28.64,SSE,158,12.7,12.7,43,0.00,CLR,,0.00,WeatherDisplay:10.37,2013-10-11 21:39:00,
2013-10-11 16:42:00,73.8,49.9,28.64,SE,135,12.7,12.7,43,0.00,CLR,,0.00,WeatherDisplay:10.37,2013-10-11 21:42:00,
2013-10-11 16:43:00,73.8,49.9,28.64,SSE,158,11.5,11.5,43,0.00,CLR,,0.00,WeatherDisplay:10.37,2013-10-11 21:43:00,
2013-10-11 16:45:00,73.8,50.5,28.64,SSE,158,10.5,10.5,44,0.00,CLR,,0.00,WeatherDisplay:10.37,2013-10-11 21:45:00,
2013-10-11 16:47:00,73.8,50.5,28.64,SSE,158,11.5,11.5,44,0.00,CLR,,0.00,WeatherDisplay:10.37,2013-10-11 21:47:00,
2013-10-11 16:48:00,73.8,50.5,28.64,East,90,8.1,8.1,44,0.00,CLR,,0.00,WeatherDisplay:10.37,2013-10-11 21:48:00,
2013-10-11 16:50:00,73.8,50.5,28.64,SSE,158,10.4,10.4,44,0.00,CLR,,0.00,WeatherDisplay:10.37,2013-10-11 21:50:00,
2013-10-11 16:52:00,73.6,50.3,28.64,SSE,158,15.0,15.0,44,0.00,CLR,,0.00,WeatherDisplay:10.37,2013-10-11 21:52:00,
2013-10-11 16:53:00,73.6,50.3,28.64,SSW,202,15.0,15.0,44,0.00,CLR,,0.00,WeatherDisplay:10.37,2013-10-11 21:53:00,
2013-10-11 16:54:00,73.6,50.3,28.64,SSW,202,15.0,15.0,44,0.00,CLR,,0.00,WeatherDisplay:10.37,2013-10-11 21:54:00,
2013-10-11 16:56:00,73.6,50.3,28.64,SSW,202,9.2,9.2,44,0.00,CLR,,0.00,WeatherDisplay:10.37,2013-10-11 21:56:00,
2013-10-11 16:58:00,73.8,50.5,28.64,SSE,158,16.6,16.6,44,0.00,CLR,,0.00,WeatherDisplay:10.37,2013-10-11 21:58:00,
2013-10-11 16:59:00,73.8,49.9,28.64,SSW,202,16.1,16.1,43,0.00,CLR,,0.00,WeatherDisplay:10.37,2013-10-11 21:59:00,
2013-10-11 17:01:00,73.6,50.3,28.64,SSW,202,10.4,10.4,44,0.00,CLR,,0.00,WeatherDisplay:10.37,2013-10-11 22:01:00,
2013-10-11 17:03:00,73.6,49.7,28.64,ESE,112,15.0,15.0,43,0.00,CLR,,0.00,WeatherDisplay:10.37,2013-10-11 22:03:00,
2013-10-11 17:04:00,73.6,49.7,28.64,South,180,12.8,12.8,43,0.00,CLR,,0.00,WeatherDisplay:10.37,2013-10-11 22:04:00,
2013-10-11 17:06:00,73.4,49.5,28.64,SSE,158,19.4,19.4,43,0.00,CLR,,0.00,WeatherDisplay:10.37,2013-10-11 22:06:00,
2013-10-11 17:08:00,73.4,49.5,28.64,ESE,112,13.8,13.8,43,0.00,CLR,,0.00,WeatherDisplay:10.37,2013-10-11 22:08:00,
2013-10-11 17:09:00,73.4,49.5,28.64,South,180,13.8,13.8,43,0.00,CLR,,0.00,WeatherDisplay:10.37,2013-10-11 22:09:00,
2013-10-11 17:12:00,73.2,50.0,28.64,South,180,17.6,17.6,44,0.00,CLR,,0.00,WeatherDisplay:10.37,2013-10-11 22:12:00,
2013-10-11 17:13:00,73.2,50.0,28.64,SSE,158,17.3,17.3,44,0.00,CLR,,0.00,WeatherDisplay:10.37,2013-10-11 22:13:00,
2013-10-11 17:14:00,73.2,50.0,28.64,SSE,158,23.0,23.0,44,0.00,CLR,,0.00,WeatherDisplay:10.37,2013-10-11 22:14:00,
2013-10-11 17:17:00,73.2,50.0,28.64,SSW,202,12.7,12.7,44,0.00,CLR,,0.00,WeatherDisplay:10.37,2013-10-11 22:17:00,
2013-10-11 17:18:00,73.0,49.8,28.64,SSE,158,13.8,13.8,44,0.00,CLR,,0.00,WeatherDisplay:10.37,2013-10-11 22:18:00,
2013-10-11 17:19:00,73.0,49.8,28.64,South,180,8.1,8.1,44,0.00,CLR,,0.00,WeatherDisplay:10.37,2013-10-11 22:19:00,
2013-10-11 17:23:00,72.9,50.3,28.64,ESE,112,8.1,8.1,45,0.00,CLR,,0.00,WeatherDisplay:10.37,2013-10-11 22:23:00,
2013-10-11 17:24:00,72.9,50.3,28.64,South,180,9.2,9.2,45,0.00,CLR,,0.00,WeatherDisplay:10.37,2013-10-11 22:24:00,
2013-10-11 17:25:00,72.9,50.3,28.64,SSW,202,9.2,9.2,45,0.00,CLR,,0.00,WeatherDisplay:10.37,2013-10-11 22:25:00,
2013-10-11 17:26:00,72.9,50.3,28.64,SE,135,8.1,8.1,45,0.00,CLR,,0.00,WeatherDisplay:10.37,2013-10-11 22:26:00,
2013-10-11 17:28:00,72.9,50.3,28.64,South,180,12.7,12.7,45,0.00,CLR,,0.00,WeatherDisplay:10.37,2013-10-11 22:28:00,
2013-10-11 17:29:00,72.7,50.1,28.64,SSW,202,10.4,10.4,45,0.00,CLR,,0.00,WeatherDisplay:10.37,2013-10-11 22:29:00,
2013-10-11 17:30:00,72.5,49.9,28.64,ESE,112,6.0,6.0,45,0.00,CLR,,0.00,WeatherDisplay:10.37,2013-10-11 22:30:00,
2013-10-11 17:31:00,72.3,50.4,28.64,SSE,158,9.2,9.2,46,0.00,CLR,,0.00,WeatherDisplay:10.37,2013-10-11 22:31:00,
2013-10-11 17:33:00,72.3,49.8,28.64,South,180,23.0,23.0,45,0.00,CLR,,0.00,WeatherDisplay:10.37,2013-10-11 22:33:00,
2013-10-11 17:34:00,72.3,50.4,28.64,SE,135,15.4,15.4,46,0.00,CLR,,0.00,WeatherDisplay:10.37,2013-10-11 22:34:00,
2013-10-11 17:35:00,72.3,50.4,28.64,SSE,158,15.0,15.0,46,0.00,CLR,,0.00,WeatherDisplay:10.37,2013-10-11 22:35:00,
2013-10-11 17:36:00,72.1,50.2,28.64,SE,135,9.2,9.2,46,0.00,CLR,,0.00,WeatherDisplay:10.37,2013-10-11 22:36:00,
2013-10-11 17:39:00,72.0,50.6,28.64,SSE,158,8.5,8.5,47,0.00,CLR,,0.00,WeatherDisplay:10.37,2013-10-11 22:39:00,
2013-10-11 17:40:00,72.0,50.6,28.64,SSE,158,8.1,8.1,47,0.00,CLR,,0.00,WeatherDisplay:10.37,2013-10-11 22:40:00,
2013-10-11 17:41:00,71.8,50.5,28.64,ESE,112,9.2,9.2,47,0.00,CLR,,0.00,WeatherDisplay:10.37,2013-10-11 22:41:00,
2013-10-11 17:44:00,71.7,50.3,28.64,SSE,149,6.0,10.0,47,0.00,CLR,,0.00,WeatherDisplay:10.37,2013-10-11 22:44:00,
2013-10-11 17:45:00,71.6,50.3,28.64,SSE,158,8.1,8.1,47,0.00,CLR,,0.00,WeatherDisplay:10.37,2013-10-11 22:45:00,
2013-10-11 17:46:00,71.6,50.3,28.64,SSW,202,10.4,10.4,47,0.00,CLR,,0.00,WeatherDisplay:10.37,2013-10-11 22:46:00,
2013-10-11 17:47:00,71.4,50.7,28.64,SSE,158,11.5,11.5,48,0.00,CLR,,0.00,WeatherDisplay:10.37,2013-10-11 22:47:00,
2013-10-11 17:50:00,71.4,50.7,28.64,SSW,202,6.9,6.9,48,0.00,CLR,,0.00,WeatherDisplay:10.37,2013-10-11 22:50:00,
2013-10-11 17:51:00,71.2,50.5,28.64,ESE,112,8.1,8.1,48,0.00,CLR,,0.00,WeatherDisplay:10.37,2013-10-11 22:51:00,
2013-10-11 17:52:00,71.2,50.5,28.64,South,180,6.9,6.9,48,0.00,CLR,,0.00,WeatherDisplay:10.37,2013-10-11 22:52:00,
2013-10-11 17:55:00,71.1,50.9,28.64,South,180,9.2,9.2,49,0.00,CLR,,0.00,WeatherDisplay:10.37,2013-10-11 22:55:00,
2013-10-11 17:56:00,70.9,50.8,28.64,SSE,158,8.1,8.1,49,0.00,CLR,,0.00,WeatherDisplay:10.37,2013-10-11 22:56:00,
2013-10-11 17:57:00,70.9,50.8,28.64,SSE,158,8.1,8.1,49,0.00,CLR,,0.00,WeatherDisplay:10.37,2013-10-11 22:57:00,
2013-10-11 18:00:00,70.7,51.1,28.64,SSE,158,5.8,6.4,50,0.00,CLR,,0.00,WeatherDisplay:10.37,2013-10-11 23:00:00,
2013-10-11 18:02:00,70.5,51.0,28.64,SE,135,5.8,5.8,50,0.00,CLR,,0.00,WeatherDisplay:10.37,2013-10-11 23:02:00,
2013-10-11 18:03:00,70.5,51.0,28.64,SSE,158,7.8,7.8,50,0.00,CLR,,0.00,WeatherDisplay:10.37,2013-10-11 23:03:00,
2013-10-11 18:05:00,70.3,50.8,28.64,South,180,10.4,10.4,50,0.00,CLR,,0.00,WeatherDisplay:10.37,2013-10-11 23:05:00,
2013-10-11 18:06:00,70.3,50.8,28.64,SSE,158,8.1,8.1,50,0.00,CLR,,0.00,WeatherDisplay:10.37,2013-10-11 23:06:00,
2013-10-11 18:07:00,70.3,50.8,28.64,SSE,158,8.1,8.1,50,0.00,CLR,,0.00,WeatherDisplay:10.37,2013-10-11 23:07:00,
2013-10-11 18:08:00,70.3,50.8,28.64,SE,135,8.1,8.1,50,0.00,CLR,,0.00,WeatherDisplay:10.37,2013-10-11 23:08:00,
2013-10-11 18:10:00,70.2,51.2,28.64,ESE,112,7.4,7.4,51,0.00,CLR,,0.00,WeatherDisplay:10.37,2013-10-11 23:10:00,
2013-10-11 18:11:00,70.2,51.2,28.64,SSW,202,6.9,6.9,51,0.00,CLR,,0.00,WeatherDisplay:10.37,2013-10-11 23:11:00,
2013-10-11 18:12:00,70.0,51.0,28.64,ESE,112,5.8,5.8,51,0.00,CLR,,0.00,WeatherDisplay:10.37,2013-10-11 23:12:00,
2013-10-11 18:13:00,70.0,51.0,28.64,SSW,202,8.1,8.1,51,0.00,CLR,,0.00,WeatherDisplay:10.37,2013-10-11 23:13:00,
2013-10-11 18:14:00,70.0,51.0,28.64,SSW,202,6.9,6.9,51,0.00,CLR,,0.00,WeatherDisplay:10.37,2013-10-11 23:14:00,
2013-10-11 18:15:00,70.0,51.0,28.64,SSE,158,6.9,6.9,51,0.00,CLR,,0.00,WeatherDisplay:10.37,2013-10-11 23:15:00,
2013-10-11 18:16:00,70.0,51.0,28.64,SSE,158,6.9,6.9,51,0.00,CLR,,0.00,WeatherDisplay:10.37,2013-10-11 23:16:00,
2013-10-11 18:18:00,69.8,50.9,28.64,SSE,158,8.1,8.1,51,0.00,CLR,,0.00,WeatherDisplay:10.37,2013-10-11 23:18:00,
2013-10-11 18:19:00,69.6,51.2,28.64,South,180,6.9,6.9,52,0.00,CLR,,0.00,WeatherDisplay:10.37,2013-10-11 23:19:00,
2013-10-11 18:20:00,69.6,51.2,28.64,South,180,6.9,6.9,52,0.00,CLR,,0.00,WeatherDisplay:10.37,2013-10-11 23:20:00,
2013-10-11 18:21:00,69.6,51.2,28.64,East,90,4.6,4.6,52,0.00,CLR,,0.00,WeatherDisplay:10.37,2013-10-11 23:21:00,
2013-10-11 18:23:00,69.4,51.0,28.64,SE,135,5.8,5.8,52,0.00,CLR,,0.00,WeatherDisplay:10.37,2013-10-11 23:23:00,
2013-10-11 18:24:00,69.4,51.6,28.64,South,180,5.8,5.8,53,0.00,CLR,,0.00,WeatherDisplay:10.37,2013-10-11 23:24:00,
2013-10-11 18:25:00,69.3,51.4,28.64,South,180,5.8,5.8,53,0.00,CLR,,0.00,WeatherDisplay:10.37,2013-10-11 23:25:00,
2013-10-11 18:26:00,69.3,51.4,28.64,SSE,158,5.8,5.8,53,0.00,CLR,,0.00,WeatherDisplay:10.37,2013-10-11 23:26:00,
2013-10-11 18:27:00,69.3,51.4,28.64,SSW,202,5.8,5.8,53,0.00,CLR,,0.00,WeatherDisplay:10.37,2013-10-11 23:27:00,
2013-10-11 18:28:00,69.1,51.2,28.64,SSE,158,5.8,5.8,53,0.00,CLR,,0.00,WeatherDisplay:10.37,2013-10-11 23:28:00,
2013-10-11 18:29:00,69.1,51.7,28.64,SE,135,5.8,5.8,54,0.00,CLR,,0.00,WeatherDisplay:10.37,2013-10-11 23:29:00,
2013-10-11 18:30:00,68.9,51.6,28.64,ESE,112,4.6,4.6,54,0.00,CLR,,0.00,WeatherDisplay:10.37,2013-10-11 23:30:00,
2013-10-11 18:31:00,68.9,51.6,28.64,WSW,248,6.9,6.9,54,0.00,CLR,,0.00,WeatherDisplay:10.37,2013-10-11 23:31:00,
2013-10-11 18:32:00,68.9,51.6,28.64,SSE,158,6.9,6.9,54,0.00,CLR,,0.00,WeatherDisplay:10.37,2013-10-11 23:32:00,
2013-10-11 18:33:00,68.7,51.4,28.64,SE,135,6.0,6.0,54,0.00,CLR,,0.00,WeatherDisplay:10.37,2013-10-11 23:33:00,
2013-10-11 18:35:00,68.7,51.4,28.64,SSE,158,5.8,5.8,54,0.00,CLR,,0.00,WeatherDisplay:10.37,2013-10-11 23:35:00,
2013-10-11 18:36:00,68.5,51.2,28.64,SSE,158,3.5,3.8,54,0.00,CLR,,0.00,WeatherDisplay:10.37,2013-10-11 23:36:00,
2013-10-11 18:37:00,68.5,51.7,28.64,SE,135,5.8,5.8,55,0.00,CLR,,0.00,WeatherDisplay:10.37,2013-10-11 23:37:00,
2013-10-11 18:39:00,68.5,51.7,28.64,South,180,6.9,6.9,55,0.00,CLR,,0.00,WeatherDisplay:10.37,2013-10-11 23:39:00,
2013-10-11 18:40:00,68.5,51.7,28.64,SSE,158,6.9,6.9,55,0.00,CLR,,0.00,WeatherDisplay:10.37,2013-10-11 23:40:00,
2013-10-11 18:41:00,68.5,51.7,28.64,SSW,202,5.8,5.8,55,0.00,CLR,,0.00,WeatherDisplay:10.37,2013-10-11 23:41:00,
2013-10-11 18:42:00,68.4,51.6,28.64,SSE,158,4.6,4.6,55,0.00,CLR,,0.00,WeatherDisplay:10.37,2013-10-11 23:42:00,
2013-10-11 18:44:00,68.4,51.6,28.64,SSE,158,5.8,5.8,55,0.00,CLR,,0.00,WeatherDisplay:10.37,2013-10-11 23:44:00,
2013-10-11 18:46:00,68.2,51.9,28.64,SSW,202,5.8,5.8,56,0.00,CLR,,0.00,WeatherDisplay:10.37,2013-10-11 23:46:00,
2013-10-11 18:47:00,68.2,51.4,28.64,South,180,5.8,5.8,55,0.00,CLR,,0.00,WeatherDisplay:10.37,2013-10-11 23:47:00,
2013-10-11 18:48:00,68.2,51.9,28.64,SSE,158,5.8,5.8,56,0.00,CLR,,0.00,WeatherDisplay:10.37,2013-10-11 23:48:00,
2013-10-11 18:50:00,68.0,51.7,28.64,South,180,4.6,4.6,56,0.00,CLR,,0.00,WeatherDisplay:10.37,2013-10-11 23:50:00,
2013-10-11 18:51:00,67.8,51.5,28.64,South,180,4.6,4.6,56,0.00,CLR,,0.00,WeatherDisplay:10.37,2013-10-11 23:51:00,
2013-10-11 18:52:00,67.8,51.5,28.64,SSE,158,4.9,4.9,56,0.00,CLR,,0.00,WeatherDisplay:10.37,2013-10-11 23:52:00,
2013-10-11 18:53:00,67.8,52.0,28.64,SSE,158,4.6,4.6,57,0.00,CLR,,0.00,WeatherDisplay:10.37,2013-10-11 23:53:00,
2013-10-11 18:55:00,67.6,51.9,28.64,SSE,158,5.8,5.8,57,0.00,CLR,,0.00,WeatherDisplay:10.37,2013-10-11 23:55:00,
2013-10-11 18:57:00,67.6,51.9,28.64,SE,135,5.8,5.8,57,0.00,CLR,,0.00,WeatherDisplay:10.37,2013-10-11 23:57:00,
2013-10-11 18:58:00,67.6,52.3,28.64,SSE,158,5.8,5.8,58,0.00,CLR,,0.00,WeatherDisplay:10.37,2013-10-11 23:58:00,
2013-10-11 19:00:00,67.5,52.2,28.64,SSE,158,4.6,4.6,58,0.00,CLR,,0.00,WeatherDisplay:10.37,2013-10-12 00:00:00,
2013-10-11 19:02:00,67.3,52.0,28.64,South,180,4.7,4.7,58,0.00,CLR,,0.00,WeatherDisplay:10.37,2013-10-12 00:02:00,
2013-10-11 19:04:00,66.9,52.1,28.64,South,180,3.5,3.5,59,0.00,CLR,,0.00,WeatherDisplay:10.37,2013-10-12 00:04:00,
2013-10-11 19:05:00,66.9,52.1,28.64,South,180,3.5,3.5,59,0.00,CLR,,0.00,WeatherDisplay:10.37,2013-10-12 00:05:00,
2013-10-11 19:07:00,66.9,52.1,28.64,South,180,3.5,3.5,59,0.00,CLR,,0.00,WeatherDisplay:10.37,2013-10-12 00:07:00,
2013-10-11 19:08:00,66.7,52.0,28.64,SSE,158,4.6,4.6,59,0.00,CLR,,0.00,WeatherDisplay:10.37,2013-10-12 00:08:00,
2013-10-11 19:10:00,66.6,52.2,28.64,SE,135,4.6,4.6,60,0.00,CLR,,0.00,WeatherDisplay:10.37,2013-10-12 00:10:00,
2013-10-11 19:12:00,66.7,52.4,28.64,SSE,158,8.1,8.1,60,0.00,CLR,,0.00,WeatherDisplay:10.37,2013-10-12 00:12:00,
2013-10-11 19:13:00,66.7,52.9,28.64,SSE,158,8.1,8.1,61,0.00,CLR,,0.00,WeatherDisplay:10.37,2013-10-12 00:13:00,
2013-10-11 19:15:00,66.7,52.9,28.64,South,180,5.9,5.9,61,0.00,CLR,,0.00,WeatherDisplay:10.37,2013-10-12 00:15:00,
2013-10-11 19:16:00,66.7,52.9,28.64,South,180,5.8,5.8,61,0.00,CLR,,0.00,WeatherDisplay:10.37,2013-10-12 00:16:00,
2013-10-11 19:18:00,66.7,52.9,28.64,SSE,158,3.5,3.6,61,0.00,CLR,,0.00,WeatherDisplay:10.37,2013-10-12 00:18:00,
2013-10-11 19:20:00,66.6,52.7,28.64,South,180,6.9,6.9,61,0.00,CLR,,0.00,WeatherDisplay:10.37,2013-10-12 00:20:00,
2013-10-11 19:22:00,66.6,52.7,28.64,SSE,158,6.9,6.9,61,0.00,CLR,,0.00,WeatherDisplay:10.37,2013-10-12 00:22:00,
2013-10-11 19:23:00,66.6,52.7,28.64,SSE,158,6.9,6.9,61,0.00,CLR,,0.00,WeatherDisplay:10.37,2013-10-12 00:23:00,
2013-10-11 19:24:00,66.6,52.7,28.64,SSE,158,5.8,5.8,61,0.00,CLR,,0.00,WeatherDisplay:10.37,2013-10-12 00:24:00,
2013-10-11 19:25:00,66.6,53.1,28.67,SSE,158,6.0,6.0,62,0.00,CLR,,0.00,WeatherDisplay:10.37,2013-10-12 00:25:00,
2013-10-11 19:28:00,66.4,53.0,28.67,SSE,158,5.8,5.8,62,0.00,CLR,,0.00,WeatherDisplay:10.37,2013-10-12 00:28:00,
2013-10-11 19:29:00,66.4,53.0,28.67,SSE,158,5.8,5.8,62,0.00,CLR,,0.00,WeatherDisplay:10.37,2013-10-12 00:29:00,
2013-10-11 19:30:00,66.4,53.0,28.67,SSE,158,6.9,6.9,62,0.00,CLR,,0.00,WeatherDisplay:10.37,2013-10-12 00:30:00,
2013-10-11 19:33:00,66.4,53.0,28.67,South,180,6.9,6.9,62,0.00,CLR,,0.00,WeatherDisplay:10.37,2013-10-12 00:33:00,
2013-10-11 19:34:00,66.4,53.0,28.67,SE,135,4.6,4.6,62,0.00,CLR,,0.00,WeatherDisplay:10.37,2013-10-12 00:34:00,
2013-10-11 19:35:00,66.2,53.2,28.67,SSE,158,4.0,4.0,63,0.00,CLR,,0.00,WeatherDisplay:10.37,2013-10-12 00:35:00,
2013-10-11 19:38:00,66.2,53.2,28.67,SSE,158,5.8,5.8,63,0.00,CLR,,0.00,WeatherDisplay:10.37,2013-10-12 00:38:00,
2013-10-11 19:39:00,66.2,53.2,28.64,SSE,158,5.9,5.9,63,0.00,CLR,,0.00,WeatherDisplay:10.37,2013-10-12 00:39:00,
2013-10-11 19:40:00,66.2,53.2,28.64,SSE,158,5.8,5.8,63,0.00,CLR,,0.00,WeatherDisplay:10.37,2013-10-12 00:40:00,
2013-10-11 19:43:00,66.0,53.5,28.64,SE,135,5.8,5.8,64,0.00,CLR,,0.00,WeatherDisplay:10.37,2013-10-12 00:43:00,
2013-10-11 19:44:00,66.0,53.5,28.64,SSW,202,5.8,5.8,64,0.00,CLR,,0.00,WeatherDisplay:10.37,2013-10-12 00:44:00,
2013-10-11 19:45:00,66.0,53.5,28.64,SSE,158,5.8,5.8,64,0.00,CLR,,0.00,WeatherDisplay:10.37,2013-10-12 00:45:00,
2013-10-11 19:46:00,66.0,53.5,28.64,SSE,158,5.8,5.8,64,0.00,CLR,,0.00,WeatherDisplay:10.37,2013-10-12 00:46:00,
2013-10-11 19:49:00,66.0,53.5,28.64,South,180,5.8,5.8,64,0.00,CLR,,0.00,WeatherDisplay:10.37,2013-10-12 00:49:00,
2013-10-11 19:50:00,66.0,53.5,28.64,East,90,6.9,6.9,64,0.00,CLR,,0.00,WeatherDisplay:10.37,2013-10-12 00:50:00,
2013-10-11 19:51:00,66.0,53.5,28.64,ESE,112,6.9,6.9,64,0.00,CLR,,0.00,WeatherDisplay:10.37,2013-10-12 00:51:00,
2013-10-11 19:52:00,66.0,53.9,28.64,SSE,158,6.9,6.9,65,0.00,CLR,,0.00,WeatherDisplay:10.37,2013-10-12 00:52:00,
2013-10-11 19:54:00,66.0,53.9,28.64,SE,135,7.6,7.6,65,0.00,CLR,,0.00,WeatherDisplay:10.37,2013-10-12 00:54:00,
2013-10-11 19:55:00,66.0,53.9,28.64,ESE,112,8.1,8.1,65,0.00,CLR,,0.00,WeatherDisplay:10.37,2013-10-12 00:55:00,
2013-10-11 19:56:00,65.8,53.7,28.64,SE,135,5.8,5.8,65,0.00,CLR,,0.00,WeatherDisplay:10.37,2013-10-12 00:56:00,
2013-10-11 19:57:00,65.8,53.7,28.64,SE,135,8.1,8.1,65,0.00,CLR,,0.00,WeatherDisplay:10.37,2013-10-12 00:57:00,
2013-10-11 19:59:00,65.8,53.7,28.64,SSW,202,8.1,8.1,65,0.00,CLR,,0.00,WeatherDisplay:10.37,2013-10-12 00:59:00,
2013-10-11 20:00:00,65.8,53.7,28.64,SSE,158,4.6,4.6,65,0.00,CLR,,0.00,WeatherDisplay:10.37,2013-10-12 01:00:00,
2013-10-11 20:02:00,65.8,53.7,28.64,SSE,158,6.9,6.9,65,0.00,CLR,,0.00,WeatherDisplay:10.37,2013-10-12 01:02:00,
2013-10-11 20:04:00,65.7,53.6,28.64,SSE,158,5.8,5.8,65,0.00,CLR,,0.00,WeatherDisplay:10.37,2013-10-12 01:04:00,
2013-10-11 20:05:00,65.7,53.6,28.64,SE,135,5.8,5.8,65,0.00,CLR,,0.00,WeatherDisplay:10.37,2013-10-12 01:05:00,
2013-10-11 20:07:00,65.7,54.0,28.64,ESE,112,5.8,5.8,66,0.00,CLR,,0.00,WeatherDisplay:10.37,2013-10-12 01:07:00,
2013-10-11 20:08:00,65.5,53.8,28.64,SSE,158,4.6,4.6,66,0.00,CLR,,0.00,WeatherDisplay:10.37,2013-10-12 01:08:00,
2013-10-11 20:10:00,65.5,53.8,28.67,SE,135,4.6,4.6,66,0.00,CLR,,0.00,WeatherDisplay:10.37,2013-10-12 01:10:00,
2013-10-11 20:13:00,65.3,53.2,28.67,South,180,3.6,3.6,65,0.00,CLR,,0.00,WeatherDisplay:10.37,2013-10-12 01:13:00,
2013-10-11 20:15:00,65.1,53.5,28.67,South,180,3.6,3.6,66,0.00,CLR,,0.00,WeatherDisplay:10.37,2013-10-12 01:15:00,
2013-10-11 20:16:00,65.1,53.5,28.67,South,180,3.8,3.8,66,0.00,CLR,,0.00,WeatherDisplay:10.37,2013-10-12 01:16:00,
2013-10-11 20:18:00,64.9,53.3,28.67,SSE,158,3.5,3.5,66,0.00,CLR,,0.00,WeatherDisplay:10.37,2013-10-12 01:18:00,
2013-10-11 20:19:00,64.9,53.7,28.67,SSE,158,3.6,3.6,67,0.00,CLR,,0.00,WeatherDisplay:10.37,2013-10-12 01:19:00,
2013-10-11 20:20:00,65.1,53.9,28.67,South,180,5.9,5.9,67,0.00,CLR,,0.00,WeatherDisplay:10.37,2013-10-12 01:20:00,
2013-10-11 20:21:00,65.1,53.9,28.67,SSE,158,5.8,5.8,67,0.00,CLR,,0.00,WeatherDisplay:10.37,2013-10-12 01:21:00,
2013-10-11 20:23:00,65.1,53.9,28.67,SE,135,5.9,5.9,67,0.00,CLR,,0.00,WeatherDisplay:10.37,2013-10-12 01:23:00,
2013-10-11 20:24:00,65.1,53.9,28.67,South,180,5.8,5.8,67,0.00,CLR,,0.00,WeatherDisplay:10.37,2013-10-12 01:24:00,
2013-10-11 20:25:00,65.1,53.9,28.67,South,180,4.6,4.6,67,0.00,CLR,,0.00,WeatherDisplay:10.37,2013-10-12 01:25:00,
2013-10-11 20:26:00,65.1,53.9,28.67,South,180,4.6,4.6,67,0.00,CLR,,0.00,WeatherDisplay:10.37,2013-10-12 01:26:00,
2013-10-11 20:27:00,64.9,53.7,28.67,SSE,158,4.6,4.6,67,0.00,CLR,,0.00,WeatherDisplay:10.37,2013-10-12 01:27:00,
2013-10-11 20:28:00,64.8,53.5,28.67,SSW,202,3.5,3.5,67,0.00,CLR,,0.00,WeatherDisplay:10.37,2013-10-12 01:28:00,
2013-10-11 20:30:00,64.8,53.5,28.67,SSE,158,5.8,5.8,67,0.00,CLR,,0.00,WeatherDisplay:10.37,2013-10-12 01:30:00,
2013-10-11 20:31:00,64.9,54.1,28.67,SSE,158,5.8,5.8,68,0.00,CLR,,0.00,WeatherDisplay:10.37,2013-10-12 01:31:00,
2013-10-11 20:32:00,64.9,53.7,28.67,SSE,158,5.8,5.8,67,0.00,CLR,,0.00,WeatherDisplay:10.37,2013-10-12 01:32:00,
2013-10-11 20:33:00,64.9,54.1,28.67,SE,135,3.5,3.5,68,0.00,CLR,,0.00,WeatherDisplay:10.37,2013-10-12 01:33:00,
2013-10-11 20:35:00,64.9,54.1,28.67,SSE,158,5.8,5.8,68,0.00,CLR,,0.00,WeatherDisplay:10.37,2013-10-12 01:35:00,
2013-10-11 20:36:00,64.9,54.1,28.67,South,180,4.6,4.6,68,0.00,CLR,,0.00,WeatherDisplay:10.37,2013-10-12 01:36:00,
2013-10-11 20:38:00,64.8,53.9,28.67,SSE,158,5.8,5.8,68,0.00,CLR,,0.00,WeatherDisplay:10.37,2013-10-12 01:38:00,
2013-10-11 20:39:00,64.8,53.9,28.67,South,180,4.6,4.6,68,0.00,CLR,,0.00,WeatherDisplay:10.37,2013-10-12 01:39:00,
2013-10-11 20:40:00,64.8,53.9,28.67,South,180,4.6,4.6,68,0.00,CLR,,0.00,WeatherDisplay:10.37,2013-10-12 01:40:00,
2013-10-11 20:41:00,64.6,53.8,28.67,SSE,158,4.7,4.7,68,0.00,CLR,,0.00,WeatherDisplay:10.37,2013-10-12 01:41:00,
2013-10-11 20:43:00,64.6,53.8,28.67,ESE,112,4.6,4.6,68,0.00,CLR,,0.00,WeatherDisplay:10.37,2013-10-12 01:43:00,
2013-10-11 20:44:00,64.6,53.8,28.67,South,180,4.6,4.6,68,0.00,CLR,,0.00,WeatherDisplay:10.37,2013-10-12 01:44:00,
2013-10-11 20:45:00,64.6,53.8,28.67,South,180,4.6,4.6,68,0.00,CLR,,0.00,WeatherDisplay:10.37,2013-10-12 01:45:00,
2013-10-11 20:46:00,64.6,53.8,28.67,SSE,158,4.6,4.6,68,0.00,CLR,,0.00,WeatherDisplay:10.37,2013-10-12 01:46:00,
2013-10-11 20:48:00,64.6,54.2,28.67,SE,135,4.6,4.6,69,0.00,CLR,,0.00,WeatherDisplay:10.37,2013-10-12 01:48:00,
2013-10-11 20:49:00,64.6,54.2,28.67,SE,135,3.5,3.5,69,0.00,CLR,,0.00,WeatherDisplay:10.37,2013-10-12 01:49:00,
2013-10-11 20:50:00,64.6,54.2,28.67,South,180,4.6,4.6,69,0.00,CLR,,0.00,WeatherDisplay:10.37,2013-10-12 01:50:00,
2013-10-11 20:51:00,64.6,54.2,28.67,SSE,158,4.6,4.6,69,0.00,CLR,,0.00,WeatherDisplay:10.37,2013-10-12 01:51:00,
2013-10-11 20:53:00,64.6,54.2,28.67,South,180,4.6,4.6,69,0.00,CLR,,0.00,WeatherDisplay:10.37,2013-10-12 01:53:00,
2013-10-11 20:54:00,64.6,54.2,28.67,SSE,158,3.5,3.5,69,0.00,CLR,,0.00,WeatherDisplay:10.37,2013-10-12 01:54:00,
2013-10-11 20:55:00,64.6,54.2,28.67,South,180,4.6,4.6,69,0.00,CLR,,0.00,WeatherDisplay:10.37,2013-10-12 01:55:00,
2013-10-11 20:56:00,64.6,54.2,28.67,SSE,158,4.6,4.6,69,0.00,CLR,,0.00,WeatherDisplay:10.37,2013-10-12 01:56:00,
2013-10-11 20:57:00,64.6,54.2,28.67,SSE,158,4.6,4.6,69,0.00,CLR,,0.00,WeatherDisplay:10.37,2013-10-12 01:57:00,
2013-10-11 20:59:00,64.6,54.2,28.67,SSE,158,4.6,4.6,69,0.00,CLR,,0.00,WeatherDisplay:10.37,2013-10-12 01:59:00,
2013-10-11 21:01:00,64.4,54.0,28.67,SSE,158,4.6,4.6,69,0.00,CLR,,0.00,WeatherDisplay:10.37,2013-10-12 02:01:00,
2013-10-11 21:02:00,64.4,54.0,28.67,SSE,158,4.6,4.6,69,0.00,CLR,,0.00,WeatherDisplay:10.37,2013-10-12 02:02:00,
2013-10-11 21:04:00,64.4,54.0,28.67,SSE,158,5.8,5.8,69,0.00,CLR,,0.00,WeatherDisplay:10.37,2013-10-12 02:04:00,
2013-10-11 21:05:00,64.4,54.0,28.67,SE,135,5.8,5.8,69,0.00,CLR,,0.00,WeatherDisplay:10.37,2013-10-12 02:05:00,
2013-10-11 21:06:00,64.4,54.0,28.67,SE,135,4.6,4.6,69,0.00,CLR,,0.00,WeatherDisplay:10.37,2013-10-12 02:06:00,
2013-10-11 21:07:00,64.4,54.0,28.67,South,180,5.8,5.8,69,0.00,CLR,,0.00,WeatherDisplay:10.37,2013-10-12 02:07:00,
2013-10-11 21:09:00,64.4,54.0,28.67,SSE,158,5.8,5.8,69,0.00,CLR,,0.00,WeatherDisplay:10.37,2013-10-12 02:09:00,
2013-10-11 21:11:00,64.4,54.0,28.64,SSE,158,4.6,4.6,69,0.00,CLR,,0.00,WeatherDisplay:10.37,2013-10-12 02:11:00,
2013-10-11 21:12:00,64.4,54.0,28.64,SSE,158,4.0,4.0,69,0.00,CLR,,0.00,WeatherDisplay:10.37,2013-10-12 02:12:00,
2013-10-11 21:13:00,64.4,54.0,28.64,SSE,158,4.6,4.6,69,0.00,CLR,,0.00,WeatherDisplay:10.37,2013-10-12 02:13:00,
2013-10-11 21:14:00,64.4,54.0,28.64,SSE,158,3.5,3.5,69,0.00,CLR,,0.00,WeatherDisplay:10.37,2013-10-12 02:14:00,
2013-10-11 21:16:00,64.4,54.0,28.64,SSW,202,5.8,5.8,69,0.00,CLR,,0.00,WeatherDisplay:10.37,2013-10-12 02:16:00,
2013-10-11 21:17:00,64.4,54.0,28.64,SSE,158,3.5,3.5,69,0.00,CLR,,0.00,WeatherDisplay:10.37,2013-10-12 02:17:00,
2013-10-11 21:18:00,64.6,54.2,28.64,South,180,5.8,5.8,69,0.00,CLR,,0.00,WeatherDisplay:10.37,2013-10-12 02:18:00,
2013-10-11 21:19:00,64.6,54.2,28.64,SSE,167,3.0,6.0,69,0.00,CLR,,0.00,WeatherDisplay:10.37,2013-10-12 02:19:00,
2013-10-11 21:21:00,64.6,54.2,28.64,SSE,158,4.9,4.9,69,0.00,CLR,,0.00,WeatherDisplay:10.37,2013-10-12 02:21:00,
2013-10-11 21:22:00,64.6,54.2,28.64,South,180,5.6,5.6,69,0.00,CLR,,0.00,WeatherDisplay:10.37,2013-10-12 02:22:00,
2013-10-11 21:23:00,64.8,54.3,28.64,SSE,158,6.4,6.4,69,0.00,CLR,,0.00,WeatherDisplay:10.37,2013-10-12 02:23:00,
2013-10-11 21:24:00,64.8,54.3,28.64,South,170,5.0,7.0,69,0.00,CLR,,0.00,WeatherDisplay:10.37,2013-10-12 02:24:00,
2013-10-11 21:26:00,64.8,54.3,28.64,SSE,158,6.2,6.2,69,0.00,CLR,,0.00,WeatherDisplay:10.37,2013-10-12 02:26:00,
2013-10-11 21:27:00,64.8,54.3,28.64,SE,135,6.9,6.9,69,0.00,CLR,,0.00,WeatherDisplay:10.37,2013-10-12 02:27:00,
2013-10-11 21:28:00,64.8,54.3,28.64,South,180,4.9,4.9,69,0.00,CLR,,0.00,WeatherDisplay:10.37,2013-10-12 02:28:00,
2013-10-11 21:29:00,64.9,54.5,28.64,SSE,158,9.2,9.2,69,0.00,CLR,,0.00,WeatherDisplay:10.37,2013-10-12 02:29:00,
2013-10-11 21:30:00,64.9,54.5,28.64,South,180,9.2,9.2,69,0.00,CLR,,0.00,WeatherDisplay:10.37,2013-10-12 02:30:00,
2013-10-11 21:31:00,64.9,54.5,28.64,SSE,158,5.8,5.8,69,0.00,CLR,,0.00,WeatherDisplay:10.37,2013-10-12 02:31:00,
2013-10-11 21:32:00,64.9,54.5,28.64,South,180,5.8,5.8,69,0.00,CLR,,0.00,WeatherDisplay:10.37,2013-10-12 02:32:00,
2013-10-11 21:33:00,64.9,54.5,28.64,West,270,10.4,10.4,69,0.00,CLR,,0.00,WeatherDisplay:10.37,2013-10-12 02:33:00,
2013-10-11 21:34:00,64.9,54.5,28.64,SSW,202,5.8,5.8,69,0.00,CLR,,0.00,WeatherDisplay:10.37,2013-10-12 02:34:00,
2013-10-11 21:35:00,64.9,54.5,28.64,SE,135,5.8,5.8,69,0.00,CLR,,0.00,WeatherDisplay:10.37,2013-10-12 02:35:00,
2013-10-11 21:36:00,64.9,54.5,28.64,SSE,158,7.1,7.1,69,0.00,CLR,,0.00,WeatherDisplay:10.37,2013-10-12 02:36:00,
2013-10-11 21:37:00,65.1,54.3,28.64,SSE,158,6.9,6.9,68,0.00,CLR,,0.00,WeatherDisplay:10.37,2013-10-12 02:37:00,
2013-10-11 21:39:00,65.1,54.3,28.64,SSE,158,5.8,5.8,68,0.00,CLR,,0.00,WeatherDisplay:10.37,2013-10-12 02:39:00,
2013-10-11 21:41:00,65.1,54.3,28.64,SSE,158,5.8,5.8,68,0.00,CLR,,0.00,WeatherDisplay:10.37,2013-10-12 02:41:00,
2013-10-11 21:43:00,65.1,54.3,28.64,South,180,5.8,5.8,68,0.00,CLR,,0.00,WeatherDisplay:10.37,2013-10-12 02:43:00,
2013-10-11 21:44:00,65.1,54.3,28.64,South,180,6.9,6.9,68,0.00,CLR,,0.00,WeatherDisplay:10.37,2013-10-12 02:44:00,
2013-10-11 21:45:00,65.3,54.5,28.64,SSE,158,6.9,6.9,68,0.00,CLR,,0.00,WeatherDisplay:10.37,2013-10-12 02:45:00,
2013-10-11 21:46:00,65.3,54.5,28.64,SSE,158,5.8,5.8,68,0.00,CLR,,0.00,WeatherDisplay:10.37,2013-10-12 02:46:00,
2013-10-11 21:47:00,65.3,54.5,28.64,SSE,158,5.8,5.8,68,0.00,CLR,,0.00,WeatherDisplay:10.37,2013-10-12 02:47:00,
2013-10-11 21:48:00,65.3,54.1,28.64,ENE,68,5.4,5.4,67,0.00,CLR,,0.00,WeatherDisplay:10.37,2013-10-12 02:48:00,
2013-10-11 21:49:00,65.3,54.1,28.64,South,180,6.9,6.9,67,0.00,CLR,,0.00,WeatherDisplay:10.37,2013-10-12 02:49:00,
2013-10-11 21:50:00,65.5,54.2,28.64,ESE,112,5.8,5.8,67,0.00,CLR,,0.00,WeatherDisplay:10.37,2013-10-12 02:50:00,
2013-10-11 21:51:00,65.5,54.2,28.64,SSW,202,5.8,5.8,67,0.00,CLR,,0.00,WeatherDisplay:10.37,2013-10-12 02:51:00,
2013-10-11 21:52:00,65.5,54.2,28.64,SSE,158,6.0,6.0,67,0.00,CLR,,0.00,WeatherDisplay:10.37,2013-10-12 02:52:00,
2013-10-11 21:53:00,65.5,54.2,28.64,SSE,158,5.8,5.8,67,0.00,CLR,,0.00,WeatherDisplay:10.37,2013-10-12 02:53:00,
2013-10-11 21:54:00,65.5,54.2,28.64,SSE,158,3.5,3.6,67,0.00,CLR,,0.00,WeatherDisplay:10.37,2013-10-12 02:54:00,
2013-10-11 21:55:00,65.5,54.2,28.64,SE,135,3.5,3.5,67,0.00,CLR,,0.00,WeatherDisplay:10.37,2013-10-12 02:55:00,
2013-10-11 21:56:00,65.5,54.2,28.64,SSE,158,5.9,5.9,67,0.00,CLR,,0.00,WeatherDisplay:10.37,2013-10-12 02:56:00,
2013-10-11 21:57:00,65.5,54.2,28.64,SSE,158,8.1,8.1,67,0.00,CLR,,0.00,WeatherDisplay:10.37,2013-10-12 02:57:00,
2013-10-11 21:58:00,65.5,54.2,28.64,SSE,158,6.9,6.9,67,0.00,CLR,,0.00,WeatherDisplay:10.37,2013-10-12 02:58:00,
2013-10-11 21:59:00,65.5,54.2,28.64,SSE,158,6.9,6.9,67,0.00,CLR,,0.00,WeatherDisplay:10.37,2013-10-12 02:59:00,
2013-10-11 22:01:00,65.5,54.2,28.64,SSE,158,5.8,5.8,67,0.00,CLR,,0.00,WeatherDisplay:10.37,2013-10-12 03:01:00,
2013-10-11 22:03:00,65.7,54.0,28.64,ENE,68,5.8,5.8,66,0.00,CLR,,0.00,WeatherDisplay:10.37,2013-10-12 03:03:00,
2013-10-11 22:04:00,65.7,54.0,28.64,SSE,158,5.8,5.8,66,0.00,CLR,,0.00,WeatherDisplay:10.37,2013-10-12 03:04:00,
2013-10-11 22:05:00,65.7,54.0,28.64,SSE,161,5.0,8.0,66,0.00,CLR,,0.00,WeatherDisplay:10.37,2013-10-12 03:05:00,
2013-10-11 22:06:00,65.7,54.0,28.64,SSE,158,8.1,8.1,66,0.00,CLR,,0.00,WeatherDisplay:10.37,2013-10-12 03:06:00,
2013-10-11 22:07:00,65.7,54.0,28.64,SE,135,6.9,6.9,66,0.00,CLR,,0.00,WeatherDisplay:10.37,2013-10-12 03:07:00,
2013-10-11 22:08:00,65.7,54.0,28.64,SSE,158,5.8,5.8,66,0.00,CLR,,0.00,WeatherDisplay:10.37,2013-10-12 03:08:00,
2013-10-11 22:09:00,65.7,54.0,28.64,SSW,202,8.1,8.1,66,0.00,CLR,,0.00,WeatherDisplay:10.37,2013-10-12 03:09:00,
2013-10-11 22:10:00,65.7,54.0,28.64,SSE,158,4.6,4.6,66,0.00,CLR,,0.00,WeatherDisplay:10.37,2013-10-12 03:10:00,
2013-10-11 22:11:00,65.7,54.0,28.64,SSW,202,5.8,5.8,66,0.00,CLR,,0.00,WeatherDisplay:10.37,2013-10-12 03:11:00,
2013-10-11 22:12:00,65.7,54.0,28.64,SE,135,5.8,5.8,66,0.00,CLR,,0.00,WeatherDisplay:10.37,2013-10-12 03:12:00,
2013-10-11 22:13:00,65.7,54.0,28.64,South,180,6.9,6.9,66,0.00,CLR,,0.00,WeatherDisplay:10.37,2013-10-12 03:13:00,
2013-10-11 22:14:00,65.7,54.0,28.64,SE,135,9.2,9.2,66,0.00,CLR,,0.00,WeatherDisplay:10.37,2013-10-12 03:14:00,
2013-10-11 22:15:00,65.8,54.2,28.64,ESE,112,9.2,9.2,66,0.00,CLR,,0.00,WeatherDisplay:10.37,2013-10-12 03:15:00,
2013-10-11 22:16:00,65.8,53.7,28.64,SSW,202,6.9,6.9,65,0.00,CLR,,0.00,WeatherDisplay:10.37,2013-10-12 03:16:00,
2013-10-11 22:17:00,65.8,53.7,28.64,SSE,158,9.2,9.2,65,0.00,CLR,,0.00,WeatherDisplay:10.37,2013-10-12 03:17:00,
2013-10-11 22:18:00,65.8,53.7,28.64,SSE,158,9.2,9.2,65,0.00,CLR,,0.00,WeatherDisplay:10.37,2013-10-12 03:18:00,
2013-10-11 22:20:00,65.8,53.7,28.64,SSE,158,9.2,9.2,65,0.00,CLR,,0.00,WeatherDisplay:10.37,2013-10-12 03:20:00,
2013-10-11 22:22:00,65.8,53.7,28.64,SSE,158,8.1,8.1,65,0.00,CLR,,0.00,WeatherDisplay:10.37,2013-10-12 03:22:00,
2013-10-11 22:23:00,65.8,53.7,28.64,SSE,158,8.1,8.1,65,0.00,CLR,,0.00,WeatherDisplay:10.37,2013-10-12 03:23:00,
2013-10-11 22:24:00,65.8,53.7,28.64,SE,135,8.1,8.1,65,0.00,CLR,,0.00,WeatherDisplay:10.37,2013-10-12 03:24:00,
2013-10-11 22:25:00,65.8,53.7,28.64,SSE,158,6.9,6.9,65,0.00,CLR,,0.00,WeatherDisplay:10.37,2013-10-12 03:25:00,
2013-10-11 22:27:00,65.8,53.7,28.64,SE,135,5.8,5.8,65,0.00,CLR,,0.00,WeatherDisplay:10.37,2013-10-12 03:27:00,
2013-10-11 22:28:00,65.8,53.7,28.64,SSE,158,5.8,5.8,65,0.00,CLR,,0.00,WeatherDisplay:10.37,2013-10-12 03:28:00,
2013-10-11 22:29:00,65.8,53.7,28.64,SSE,158,7.8,7.8,65,0.00,CLR,,0.00,WeatherDisplay:10.37,2013-10-12 03:29:00,
2013-10-11 22:30:00,65.8,53.7,28.64,SSE,158,8.1,8.1,65,0.00,CLR,,0.00,WeatherDisplay:10.37,2013-10-12 03:30:00,
2013-10-11 22:32:00,65.8,53.7,28.64,SSE,158,10.4,10.4,65,0.00,CLR,,0.00,WeatherDisplay:10.37,2013-10-12 03:32:00,
2013-10-11 22:33:00,65.8,53.7,28.64,SSE,158,8.1,8.1,65,0.00,CLR,,0.00,WeatherDisplay:10.37,2013-10-12 03:33:00,
2013-10-11 22:34:00,65.8,53.7,28.64,SE,135,8.1,8.1,65,0.00,CLR,,0.00,WeatherDisplay:10.37,2013-10-12 03:34:00,
2013-10-11 22:35:00,65.8,53.7,28.64,WNW,292,4.6,4.6,65,0.00,CLR,,0.00,WeatherDisplay:10.37,2013-10-12 03:35:00,
2013-10-11 22:36:00,65.7,53.6,28.64,SSE,158,6.9,6.9,65,0.00,CLR,,0.00,WeatherDisplay:10.37,2013-10-12 03:36:00,
2013-10-11 22:38:00,65.7,53.6,28.64,SSE,158,7.6,7.6,65,0.00,CLR,,0.00,WeatherDisplay:10.37,2013-10-12 03:38:00,
2013-10-11 22:39:00,65.8,53.7,28.64,South,180,9.2,9.2,65,0.00,CLR,,0.00,WeatherDisplay:10.37,2013-10-12 03:39:00,
2013-10-11 22:40:00,65.8,53.7,28.64,South,180,4.6,4.6,65,0.00,CLR,,0.00,WeatherDisplay:10.37,2013-10-12 03:40:00,
2013-10-11 22:42:00,65.8,53.7,28.64,SSE,158,5.8,5.8,65,0.00,CLR,,0.00,WeatherDisplay:10.37,2013-10-12 03:42:00,
2013-10-11 22:43:00,65.7,53.6,28.64,SE,135,5.9,5.9,65,0.00,CLR,,0.00,WeatherDisplay:10.37,2013-10-12 03:43:00,
2013-10-11 22:44:00,65.7,53.6,28.64,SE,135,5.8,5.8,65,0.00,CLR,,0.00,WeatherDisplay:10.37,2013-10-12 03:44:00,
2013-10-11 22:45:00,65.7,53.6,28.64,SSE,158,4.6,4.6,65,0.00,CLR,,0.00,WeatherDisplay:10.37,2013-10-12 03:45:00,
2013-10-11 22:46:00,65.7,53.6,28.64,SSE,158,4.6,4.6,65,0.00,CLR,,0.00,WeatherDisplay:10.37,2013-10-12 03:46:00,
2013-10-11 22:47:00,65.7,53.6,28.64,SSE,158,11.5,11.5,65,0.00,CLR,,0.00,WeatherDisplay:10.37,2013-10-12 03:47:00,
2013-10-11 22:48:00,65.8,53.7,28.64,South,180,5.8,5.8,65,0.00,CLR,,0.00,WeatherDisplay:10.37,2013-10-12 03:48:00,
2013-10-11 22:49:00,65.8,53.7,28.64,SSE,158,5.8,5.8,65,0.00,CLR,,0.00,WeatherDisplay:10.37,2013-10-12 03:49:00,
2013-10-11 22:50:00,65.7,53.6,28.64,South,180,10.2,10.2,65,0.00,CLR,,0.00,WeatherDisplay:10.37,2013-10-12 03:50:00,
2013-10-11 22:51:00,65.8,53.7,28.64,SE,135,4.7,4.7,65,0.00,CLR,,0.00,WeatherDisplay:10.37,2013-10-12 03:51:00,
2013-10-11 22:52:00,65.7,53.6,28.64,South,180,6.2,6.2,65,0.00,CLR,,0.00,WeatherDisplay:10.37,2013-10-12 03:52:00,
2013-10-11 22:54:00,65.7,53.6,28.64,South,180,5.8,5.8,65,0.00,CLR,,0.00,WeatherDisplay:10.37,2013-10-12 03:54:00,
2013-10-11 22:55:00,65.7,53.6,28.64,SSE,158,5.8,5.8,65,0.00,CLR,,0.00,WeatherDisplay:10.37,2013-10-12 03:55:00,
2013-10-11 22:56:00,65.7,53.6,28.64,SSE,158,5.8,5.8,65,0.00,CLR,,0.00,WeatherDisplay:10.37,2013-10-12 03:56:00,
2013-10-11 22:59:00,65.5,53.4,28.64,SSE,158,5.8,5.8,65,0.00,CLR,,0.00,WeatherDisplay:10.37,2013-10-12 03:59:00,
2013-10-11 23:00:00,65.7,53.6,28.64,South,180,5.8,5.8,65,0.00,CLR,,0.00,WeatherDisplay:10.37,2013-10-12 04:00:00,
2013-10-11 23:01:00,65.7,53.6,28.64,South,180,5.8,5.8,65,0.00,CLR,,0.00,WeatherDisplay:10.37,2013-10-12 04:01:00,
2013-10-11 23:02:00,65.7,53.6,28.64,South,180,5.8,5.8,65,0.00,CLR,,0.00,WeatherDisplay:10.37,2013-10-12 04:02:00,
2013-10-11 23:06:00,65.5,53.4,28.64,South,180,3.5,3.5,65,0.00,CLR,,0.00,WeatherDisplay:10.37,2013-10-12 04:06:00,
2013-10-11 23:07:00,65.5,53.4,28.64,SE,135,4.7,4.7,65,0.00,CLR,,0.00,WeatherDisplay:10.37,2013-10-12 04:07:00,
2013-10-11 23:11:00,65.7,53.6,28.64,SSE,158,5.8,5.8,65,0.00,CLR,,0.00,WeatherDisplay:10.37,2013-10-12 04:11:00,
2013-10-11 23:12:00,65.7,53.6,28.64,SE,135,6.9,6.9,65,0.00,CLR,,0.00,WeatherDisplay:10.37,2013-10-12 04:12:00,
2013-10-11 23:13:00,65.7,53.6,28.64,South,180,6.9,6.9,65,0.00,CLR,,0.00,WeatherDisplay:10.37,2013-10-12 04:13:00,
2013-10-11 23:16:00,65.7,53.6,28.64,South,180,6.0,6.0,65,0.00,CLR,,0.00,WeatherDisplay:10.37,2013-10-12 04:16:00,
2013-10-11 23:17:00,65.7,53.6,28.64,SE,135,5.8,5.8,65,0.00,CLR,,0.00,WeatherDisplay:10.37,2013-10-12 04:17:00,
2013-10-11 23:19:00,65.5,53.4,28.64,SE,135,5.9,5.9,65,0.00,CLR,,0.00,WeatherDisplay:10.37,2013-10-12 04:19:00,
2013-10-11 23:21:00,65.5,53.4,28.64,SSE,158,6.9,6.9,65,0.00,CLR,,0.00,WeatherDisplay:10.37,2013-10-12 04:21:00,
2013-10-11 23:22:00,65.5,53.4,28.64,SSE,158,5.8,5.8,65,0.00,CLR,,0.00,WeatherDisplay:10.37,2013-10-12 04:22:00,
2013-10-11 23:25:00,65.5,53.4,28.64,SSE,158,5.8,5.9,65,0.00,CLR,,0.00,WeatherDisplay:10.37,2013-10-12 04:25:00,
2013-10-11 23:26:00,65.5,53.4,28.64,SSW,202,4.6,4.6,65,0.00,CLR,,0.00,WeatherDisplay:10.37,2013-10-12 04:26:00,
2013-10-11 23:27:00,65.5,53.4,28.64,SE,135,5.6,5.6,65,0.00,CLR,,0.00,WeatherDisplay:10.37,2013-10-12 04:27:00,
2013-10-11 23:28:00,65.5,53.4,28.64,SE,135,5.8,5.8,65,0.00,CLR,,0.00,WeatherDisplay:10.37,2013-10-12 04:28:00,
2013-10-11 23:30:00,65.5,53.4,28.64,SSE,158,5.8,5.8,65,0.00,CLR,,0.00,WeatherDisplay:10.37,2013-10-12 04:30:00,
2013-10-11 23:31:00,65.5,53.4,28.64,SSE,158,5.4,5.4,65,0.00,CLR,,0.00,WeatherDisplay:10.37,2013-10-12 04:31:00,
2013-10-11 23:32:00,65.5,53.4,28.64,SSW,202,5.8,5.8,65,0.00,CLR,,0.00,WeatherDisplay:10.37,2013-10-12 04:32:00,
2013-10-11 23:33:00,65.5,53.4,28.64,SSE,158,7.6,7.6,65,0.00,CLR,,0.00,WeatherDisplay:10.37,2013-10-12 04:33:00,
2013-10-11 23:36:00,65.7,53.6,28.64,South,180,5.8,5.8,65,0.00,CLR,,0.00,WeatherDisplay:10.37,2013-10-12 04:36:00,
2013-10-11 23:37:00,65.5,53.4,28.64,South,180,5.8,5.8,65,0.00,CLR,,0.00,WeatherDisplay:10.37,2013-10-12 04:37:00,
2013-10-11 23:38:00,65.7,53.6,28.64,SSE,158,5.8,5.8,65,0.00,CLR,,0.00,WeatherDisplay:10.37,2013-10-12 04:38:00,
2013-10-11 23:39:00,65.7,53.6,28.64,South,180,6.0,6.0,65,0.00,CLR,,0.00,WeatherDisplay:10.37,2013-10-12 04:39:00,
2013-10-11 23:41:00,65.5,53.4,28.61,SSE,158,6.2,6.2,65,0.00,CLR,,0.00,WeatherDisplay:10.37,2013-10-12 04:41:00,
2013-10-11 23:42:00,65.7,53.6,28.61,SSE,158,9.7,9.7,65,0.00,CLR,,0.00,WeatherDisplay:10.37,2013-10-12 04:42:00,
2013-10-11 23:44:00,65.7,53.6,28.61,SSE,158,5.8,5.8,65,0.00,CLR,,0.00,WeatherDisplay:10.37,2013-10-12 04:44:00,
2013-10-11 23:45:00,65.7,53.6,28.61,SSE,158,6.9,6.9,65,0.00,CLR,,0.00,WeatherDisplay:10.37,2013-10-12 04:45:00,
2013-10-11 23:46:00,65.7,53.6,28.61,SSE,158,4.6,4.6,65,0.00,CLR,,0.00,WeatherDisplay:10.37,2013-10-12 04:46:00,
2013-10-11 23:47:00,65.7,53.6,28.61,SSE,158,4.6,4.6,65,0.00,CLR,,0.00,WeatherDisplay:10.37,2013-10-12 04:47:00,
2013-10-11 23:48:00,65.5,53.4,28.61,South,180,5.8,5.8,65,0.00,CLR,,0.00,WeatherDisplay:10.37,2013-10-12 04:48:00,
2013-10-11 23:49:00,65.5,53.4,28.61,SSE,158,4.6,4.6,65,0.00,CLR,,0.00,WeatherDisplay:10.37,2013-10-12 04:49:00,
2013-10-11 23:50:00,65.5,53.4,28.61,SE,135,5.4,5.4,65,0.00,CLR,,0.00,WeatherDisplay:10.37,2013-10-12 04:50:00,
2013-10-11 23:52:00,65.5,53.4,28.61,SW,225,5.8,5.8,65,0.00,CLR,,0.00,WeatherDisplay:10.37,2013-10-12 04:52:00,
2013-10-11 23:53:00,65.5,53.4,28.61,SSE,158,6.4,6.4,65,0.00,CLR,,0.00,WeatherDisplay:10.37,2013-10-12 04:53:00,
2013-10-11 23:54:00,65.5,53.4,28.61,SE,135,6.9,6.9,65,0.00,CLR,,0.00,WeatherDisplay:10.37,2013-10-12 04:54:00,
2013-10-11 23:55:00,65.5,53.4,28.61,SE,135,4.6,4.6,65,0.00,CLR,,0.00,WeatherDisplay:10.37,2013-10-12 04:55:00,
2013-10-11 23:57:00,65.5,53.4,28.61,SSE,158,9.8,9.8,65,0.00,CLR,,0.00,WeatherDisplay:10.37,2013-10-12 04:57:00,
2013-10-11 23:58:00,65.7,53.1,28.61,SSE,158,9.2,9.2,64,0.00,CLR,,0.00,WeatherDisplay:10.37,2013-10-12 04:58:00,
2013-10-11 23:59:00,65.7,53.6,28.61,South,180,8.1,8.1,65,0.00,CLR,,0.00,WeatherDisplay:10.37,2013-10-12 04:59:00,